Date StartTime U_cm/s V_cm/s W_cm/s Ustd_cm/s Vstd_cm/s Wstd_cm/s Uvar_(cm/s)^2 Vvar_(cm/s)^2 Wvar_(cm/s)^2 KE_(m/s)^2 TurbulentKE_(m/s)^2 HorizWindSpeed_cm/s FrictionSpeec_cm/s DragCoef SpeedOfSound_m/s SonicTemperature_C Pressure_mb 
04/06/2014  00:00:00     -138.287      113.510      -23.918       52.154       62.928       38.276     2720.013     3959.909     1465.052        2.036        0.407      178.907       33.092        0.034      337.348        9.260      865.637
04/06/2014  00:01:00     -142.168      125.764      -35.587       65.953       65.881       38.542     4349.830     4340.250     1485.462        2.373        0.509      189.811       41.863        0.049      337.321        9.214      865.653
04/06/2014  00:02:00     -140.621      146.105      -21.737       56.280       74.279       37.130     3167.494     5517.417     1378.672        2.583        0.503      202.783       39.070        0.037      337.297        9.173      865.642
04/06/2014  00:03:00     -116.082       87.810      -17.507       40.286       59.820       30.254     1622.962     3578.380      915.301        1.380        0.306      145.553       23.182        0.025      337.428        9.396      865.635
04/06/2014  00:04:00      -91.250       82.825      -21.661       35.925       59.430       28.652     1290.622     3531.920      820.940        1.065        0.282      123.234       17.196        0.019      337.358        9.277      865.637
04/06/2014  00:05:00      -95.851       75.173      -14.057       47.370       57.916       34.584     2243.881     3354.304     1196.068        1.091        0.340      121.813       29.644        0.059      337.432        9.402      865.638
04/06/2014  00:06:00      -53.292       29.577        3.372       53.677       33.434       32.638     2881.190     1117.863     1065.252        0.439        0.253       60.950       29.161        0.229      337.381        9.317      865.646
04/06/2014  00:07:00     -106.346      123.499      -24.081       48.979       75.679       35.755     2398.934     5727.374     1278.434        1.827        0.470      162.977       34.443        0.045      337.345        9.255      865.668
04/06/2014  00:08:00     -104.517       63.496       -4.880       45.386       45.983       37.465     2059.877     2114.447     1403.647        1.028        0.279      122.293       25.169        0.042      337.493        9.503      865.667
04/06/2014  00:09:00      -74.033       25.186       -4.091       31.553       48.617       24.868      995.582     2363.641      618.430        0.505        0.199       78.200       22.917        0.086      337.462        9.452      865.669
04/06/2014  00:10:00      -58.813        7.897       -8.920       48.191       49.775       27.348     2322.420     2477.537      747.898        0.457        0.277       59.340       20.383        0.118      337.407        9.360      865.673
04/06/2014  00:11:00      -73.664       51.407       -0.203       33.468       57.760       27.697     1120.108     3336.178      767.109        0.665        0.261       89.828        5.281        0.003      337.336        9.242      865.683
04/06/2014  00:12:00     -150.335       71.018      -19.021       52.544       72.325       43.132     2760.847     5230.969     1860.370        1.893        0.493      166.265       26.374        0.025      337.283        9.152      865.688
04/06/2014  00:13:00      -67.833       53.438       -3.689       42.598       75.952       30.618     1814.573     5768.682      937.482        0.799        0.426       86.353       29.843        0.119      337.244        9.087      865.687
04/06/2014  00:14:00       -6.391       44.838        8.956       51.859       49.848       34.304     2689.386     2484.844     1176.765        0.424        0.318       45.291       16.468        0.132      337.185        8.989      865.690
04/06/2014  00:15:00      -87.853       29.218      -16.126       53.363       39.912       24.854     2847.574     1592.996      617.714        0.694        0.253       92.584       15.326        0.027      337.187        8.990      865.696
04/06/2014  00:16:00     -103.083        3.251      -10.061       40.097       46.241       21.915     1607.793     2138.275      480.256        0.748        0.211      103.134       13.250        0.017      337.009        8.694      865.710
04/06/2014  00:17:00      -32.954      -15.501        5.772       41.744       25.380       18.069     1742.566      644.160      326.485        0.204        0.136       36.418       20.589        0.320      336.982        8.646      865.712
04/06/2014  00:18:00      -49.696        0.475       -3.605       59.920       35.496       38.831     3590.432     1259.968     1507.823        0.442        0.318       49.699       37.712        0.576      337.021        8.713      865.720
04/06/2014  00:19:00      -71.118       30.350       -6.169       47.414       44.828       30.389     2248.064     2009.544      923.474        0.560        0.259       77.323       28.066        0.132      337.106        8.855      865.710
04/06/2014  00:20:00      -64.081       34.641       -6.231       48.416       47.086       20.272     2344.070     2217.052      410.951        0.516        0.249       72.845       19.906        0.075      337.006        8.687      865.712
04/06/2014  00:21:00      -67.466       57.887       -4.608       52.876       37.238       32.100     2795.923     1386.698     1030.381        0.657        0.261       88.896       37.381        0.177      337.109        8.860      865.714
04/06/2014  00:22:00      -58.669       64.519      -18.560       38.777       36.320       25.689     1503.661     1319.124      659.938        0.572        0.174       87.205       17.644        0.041      337.198        9.010      865.712
04/06/2014  00:23:00      -84.004       63.003      -22.025       33.677       33.827       25.482     1134.152     1144.249      649.346        0.722        0.146      105.005       19.360        0.034      337.031        8.730      865.720
04/06/2014  00:24:00      -46.783        6.931        4.284       26.303       44.313       23.701      691.840     1963.602      561.718        0.274        0.161       47.294       22.930        0.235      337.073        8.801      865.713
04/06/2014  00:25:00      -24.494       35.201       -5.867       27.160       41.974       16.126      737.651     1761.826      260.057        0.232        0.138       42.884       14.491        0.114      337.015        8.705      865.707
04/06/2014  00:26:00      -13.394       35.818        4.688       51.377       30.763       28.041     2639.631      946.386      786.286        0.293        0.219       38.241       27.468        0.516      337.094        8.837      865.694
04/06/2014  00:27:00      -29.487       15.773       -3.889       27.079       28.563       21.561      733.287      815.848      464.868        0.157        0.101       33.441       17.373        0.270      337.088        8.825      865.691
04/06/2014  00:28:00       19.503       28.204      -10.028       22.202       27.067       21.294      492.915      732.624      453.447        0.148        0.084       34.291       14.071        0.168      337.095        8.837      865.681
04/06/2014  00:29:00      -12.297       55.872      -14.505       33.213       30.204       23.689     1103.090      912.285      561.156        0.303        0.129       57.209       14.730        0.066      337.110        8.862      865.682
04/06/2014  00:30:00       -5.992       63.704        5.209       47.390       28.225       26.923     2245.810      796.641      724.866        0.394        0.188       63.985       20.041        0.098      337.122        8.884      865.674
04/06/2014  00:31:00       -0.887       33.559       -4.625       31.099       21.404       12.664      967.138      458.119      160.370        0.137        0.079       33.571       10.043        0.090      337.001        8.680      865.666
04/06/2014  00:32:00        8.466      -32.290        8.389       25.479       35.988       18.199      649.161     1295.157      331.217        0.173        0.114       33.382       15.304        0.210      336.801        8.347      865.665
04/06/2014  00:33:00       59.316      -86.718      -18.868       33.519       32.886       27.741     1123.543     1081.464      769.567        0.718        0.149      105.064       25.642        0.060      336.550        7.928      865.653
04/06/2014  00:34:00       -1.499       -6.518        4.859       26.054       40.277       21.619      678.805     1622.275      467.366        0.142        0.138        6.688       22.436       11.254      336.421        7.711      865.645
04/06/2014  00:35:00        2.777        4.919       19.867       19.336       21.568       24.916      373.900      465.191      620.828        0.094        0.073        5.648       10.058        3.171      336.338        7.572      865.644
04/06/2014  00:36:00       15.899      -18.840       20.876       24.864       46.284       33.679      618.221     2142.220     1134.266        0.247        0.195       24.652       24.020        0.949      336.354        7.599      865.633
04/06/2014  00:37:00       14.079       14.166       37.757       19.124       20.457       19.110      365.728      418.499      365.210        0.149        0.057       19.972       12.245        0.376      336.294        7.500      865.639
04/06/2014  00:38:00       33.549        9.586       28.119       32.383       22.708       25.615     1048.667      515.658      656.139        0.211        0.111       34.891       18.252        0.274      336.285        7.484      865.644
04/06/2014  00:39:00       13.816       34.084       62.512       24.743       38.074       17.531      612.223     1449.647      307.332        0.381        0.118       36.777       15.525        0.178      336.335        7.567      865.642
04/06/2014  00:40:00       35.444       22.971       36.216       39.858       36.139       38.358     1588.696     1306.005     1471.369        0.373        0.218       42.237       32.949        0.609      336.383        7.648      865.639
04/06/2014  00:41:00       37.499       -3.219       27.238       33.853       22.825       25.638     1146.058      520.997      657.294        0.224        0.116       37.637       21.883        0.338      336.382        7.646      865.643
04/06/2014  00:42:00        1.014       14.711       32.193       26.998       36.104       37.048      728.892     1303.479     1372.584        0.233        0.170       14.746       30.121        4.172      336.327        7.552      865.644
04/06/2014  00:43:00      -18.699      -17.168       41.213       28.646       56.583       28.452      820.617     3201.680      809.493        0.359        0.242       25.385       31.046        1.496      336.481        7.812      865.649
04/06/2014  00:44:00      -29.188       -2.472       16.960       20.905       18.612       15.614      437.031      346.394      243.803        0.109        0.051       29.292       12.250        0.175      336.513        7.866      865.658
04/06/2014  00:45:00       -4.722      -35.558       -6.806       23.202       21.436       25.162      538.334      459.518      633.138        0.148        0.082       35.870       19.219        0.287      336.526        7.888      865.662
04/06/2014  00:46:00       -7.144      -23.255       11.195       29.789       33.629       22.069      887.382     1130.917      487.036        0.161        0.125       24.328       15.334        0.397      336.502        7.846      865.662
04/06/2014  00:47:00      -25.304      -31.605        3.925       28.247       31.958       17.259      797.921     1021.287      297.884        0.189        0.106       40.487       15.950        0.155      336.403        7.680      865.654
04/06/2014  00:48:00      -31.653      -43.539        5.122       32.753       25.187       21.804     1072.755      634.379      475.417        0.255        0.109       53.829       17.892        0.110      336.381        7.644      865.659
04/06/2014  00:49:00      -80.249      -27.147        1.424       27.655       17.520       18.110      764.808      306.937      327.976        0.429        0.070       84.716       11.540        0.019      336.253        7.431      865.674
04/06/2014  00:50:00      -52.768      -36.320        4.990       35.916       28.771       15.055     1289.979      827.789      226.662        0.324        0.117       64.059       18.050        0.079      336.196        7.334      865.690
04/06/2014  00:51:00      -95.436      -40.310       -9.863       17.886       16.141       14.414      319.896      260.528      207.778        0.581        0.039      103.600       12.271        0.014      336.176        7.302      865.711
04/06/2014  00:52:00      -70.475      -39.670       -3.023       20.632       16.163       13.479      425.663      261.243      181.679        0.371        0.043       80.873       11.025        0.019      336.151        7.261      865.736
04/06/2014  00:53:00      -54.113      -39.926       -2.480       41.046       16.751       13.424     1684.757      280.601      180.191        0.334        0.107       67.248       18.572        0.076      336.161        7.278      865.748
04/06/2014  00:54:00      -63.818      -42.752        1.521       24.576       14.379       13.225      603.994      206.744      174.901        0.344        0.049       76.815       14.874        0.037      336.168        7.289      865.759
04/06/2014  00:55:00      -60.568      -44.205       -0.143       23.308       21.486       15.324      543.258      461.630      234.813        0.343        0.062       74.984       10.928        0.021      336.233        7.396      865.752
04/06/2014  00:56:00      -61.106      -29.599        0.540       16.742       12.038       10.747      280.285      144.913      115.507        0.258        0.027       67.897        6.880        0.010      336.204        7.348      865.743
04/06/2014  00:57:00      -26.741      -30.901        9.255       34.735       18.913       15.377     1206.492      357.719      236.462        0.178        0.090       40.865       17.250        0.178      336.266        7.451      865.731
04/06/2014  00:58:00      -31.295      -35.632        1.701       52.976       29.288       21.611     2806.499      857.790      467.015        0.319        0.207       47.424       29.923        0.398      336.243        7.414      865.721
04/06/2014  00:59:00      -73.626      -33.897       -5.647       34.270       12.458       11.560     1174.420      155.207      133.629        0.403        0.073       81.055       12.850        0.025      336.130        7.224      865.720
04/06/2014  01:00:00      -46.326      -11.108       -3.361       19.171       13.253       10.592      367.546      175.650      112.186        0.147        0.033       47.640        9.116        0.037      336.241        7.411      865.720
04/06/2014  01:01:00      -46.144       -4.073       -6.024       10.700        9.083        6.112      114.492       82.499       37.353        0.121        0.012       46.323        5.619        0.015      336.172        7.295      865.733
04/06/2014  01:02:00      -24.043      -13.387       -9.411       11.111        9.400        7.661      123.446       88.353       58.684        0.056        0.014       27.519        4.023        0.021      336.202        7.345      865.743
04/06/2014  01:03:00      -16.491       -4.877        7.528       14.551       10.435       13.251      211.741      108.879      175.601        0.042        0.025       17.197        6.853        0.159      336.222        7.378      865.748
04/06/2014  01:04:00       -3.034        7.888       22.240       11.002       23.143       14.620      121.046      535.576      213.742        0.072        0.044        8.452       14.552        2.965      336.170        7.291      865.768
04/06/2014  01:05:00       -3.421        5.629       28.796       13.256       34.744       23.601      175.711     1207.146      557.008        0.141        0.097        6.587       25.389       14.854      336.210        7.358      865.781
04/06/2014  01:06:00       26.730       23.633       20.620       28.483       21.545       26.528      811.265      464.197      703.716        0.184        0.099       35.679       24.206        0.460      336.085        7.148      865.796
04/06/2014  01:07:00       43.242       24.226        0.468       11.950       10.525        8.969      142.812      110.774       80.440        0.140        0.017       49.565        3.675        0.005      336.011        7.026      865.804
04/06/2014  01:08:00       23.248       17.576        1.938       11.437        9.766        7.837      130.816       95.368       61.424        0.057        0.014       29.144        5.770        0.039      336.018        7.038      865.811
04/06/2014  01:09:00       -8.820        0.322        0.547       12.020        5.784        3.279      144.474       33.449       10.752        0.013        0.009        8.826        3.381        0.147      336.086        7.150      865.811
04/06/2014  01:10:00      -37.098      -23.085       -6.845        9.361        7.689        5.970       87.624       59.127       35.643        0.107        0.009       43.695        3.737        0.007      336.202        7.345      865.813
04/06/2014  01:11:00      -43.871      -13.947       -0.597       15.808        9.971        7.533      249.877       99.425       56.740        0.126        0.020       46.034        3.591        0.006      336.223        7.381      865.811
04/06/2014  01:12:00      -40.591      -24.051       -1.160       23.681       11.465        8.139      560.799      131.435       66.236        0.149        0.038       47.181        2.622        0.003      336.247        7.419      865.804
04/06/2014  01:13:00       -7.214      -20.265        5.667        7.986        8.698       10.409       63.779       75.650      108.355        0.037        0.012       21.510        4.587        0.045      336.284        7.483      865.806
04/06/2014  01:14:00      -19.822      -21.080        2.708       17.039       15.828       12.909      290.311      250.512      166.654        0.078        0.035       28.935       10.286        0.126      336.207        7.353      865.802
04/06/2014  01:15:00      -37.801      -26.558        0.567       38.937       15.074       18.891     1516.121      227.211      356.866        0.212        0.105       46.198       22.445        0.236      336.196        7.335      865.802
04/06/2014  01:16:00       32.306       22.916       10.901       12.999       14.477       17.802      168.965      209.582      316.928        0.119        0.035       39.609        9.372        0.056      336.185        7.317      865.816
04/06/2014  01:17:00        4.139       24.502      -10.116        8.853       12.874       11.037       78.369      165.733      121.819        0.054        0.018       24.849        4.009        0.026      336.197        7.335      865.829
04/06/2014  01:18:00       -1.455       18.669        6.746        9.240       15.505       10.402       85.381      240.405      108.210        0.041        0.022       18.726        8.307        0.197      336.175        7.299      865.838
04/06/2014  01:19:00        4.070       24.659        6.120        8.315       10.828        8.919       69.133      117.244       79.555        0.046        0.013       24.993        4.973        0.040      336.195        7.333      865.847
04/06/2014  01:20:00        0.297        7.301       -4.349        5.240        5.861        5.680       27.460       34.349       32.265        0.008        0.005        7.307        2.172        0.088      336.252        7.428      865.857
04/06/2014  01:21:00      -15.990       11.230       -3.517        9.537        9.206        7.337       90.961       84.748       53.828        0.031        0.011       19.540        6.253        0.102      336.260        7.442      865.857
04/06/2014  01:22:00      -29.652        0.135       -5.902        9.844        4.324        5.588       96.898       18.697       31.222        0.053        0.007       29.652        3.243        0.012      336.304        7.515      865.853
04/06/2014  01:23:00      -26.831       20.069        1.883       18.837       14.350        7.341      354.831      205.910       53.887        0.087        0.031       33.506        6.778        0.041      336.308        7.522      865.855
04/06/2014  01:24:00       15.613        8.426        8.594        9.957        9.781        9.976       99.140       95.671       99.512        0.034        0.015       17.742        7.563        0.182      336.203        7.347      865.855
04/06/2014  01:25:00       -0.835        9.032        5.451       10.557       11.654       12.311      111.458      135.812      151.549        0.026        0.020        9.070        9.925        1.197      336.100        7.174      865.848
04/06/2014  01:26:00      -23.972       13.997       -4.401       14.927       17.771        7.632      222.817      315.806       58.248        0.069        0.030       27.759        3.794        0.019      336.162        7.278      865.849
04/06/2014  01:27:00      -55.623       -6.999       -3.609       25.821       15.460       10.559      666.747      239.003      111.486        0.209        0.051       56.062       10.567        0.036      336.081        7.143      865.848
04/06/2014  01:28:00      -85.395      -51.860       -6.116       46.946       30.496       18.588     2203.932      930.015      345.532        0.675        0.174       99.909        8.431        0.007      336.022        7.044      865.840
04/06/2014  01:29:00     -116.086      -66.094        0.294       40.525       41.691       27.772     1642.303     1738.155      771.266        1.100        0.208      133.583       26.239        0.039      335.924        6.882      865.837
04/06/2014  01:30:00      -96.839      -30.610        3.999       55.668       36.963       23.155     3098.981     1366.288      536.134        0.767        0.250      101.561       22.930        0.051      335.893        6.831      865.837
04/06/2014  01:31:00     -122.752     -116.485      -11.877       55.385       48.009       30.708     3067.451     2304.837      942.961        1.755        0.316      169.224       35.699        0.045      335.950        6.924      865.845
04/06/2014  01:32:00     -121.643      -47.420       -0.660       40.440       42.864       24.798     1635.375     1837.327      614.931        1.057        0.204      130.559       22.219        0.029      335.898        6.837      865.854
04/06/2014  01:33:00     -127.857      -36.977        3.316       58.310       50.508       24.194     3400.059     2551.089      585.330        1.213        0.327      133.097       28.062        0.044      335.818        6.706      865.854
04/06/2014  01:34:00     -133.743      -67.697        4.684       40.136       35.472       26.493     1610.891     1258.264      701.888        1.303        0.179      149.901       25.003        0.028      335.892        6.827      865.856
04/06/2014  01:35:00     -136.853      -64.961        2.957       52.554       42.630       30.959     2761.913     1817.281      958.484        1.425        0.277      151.488       27.427        0.033      335.747        6.585      865.864
04/06/2014  01:36:00     -119.793      -51.758       -6.997       27.428       33.798       16.640      752.303     1142.275      276.891        0.962        0.109      130.496       12.877        0.010      335.745        6.584      865.890
04/06/2014  01:37:00     -108.979      -28.565       -5.203       30.500       29.762       22.439      930.226      885.761      503.514        0.752        0.116      112.661       19.121        0.029      335.690        6.493      865.905
04/06/2014  01:38:00     -101.849      -10.583       -9.750       30.000       31.418       18.876      899.993      987.069      356.321        0.641        0.112      102.397       17.791        0.030      335.601        6.343      865.909
04/06/2014  01:39:00     -113.840      -36.454       -1.975       32.302       37.434       25.846     1043.440     1401.330      667.994        0.870        0.156      119.534       22.868        0.037      335.593        6.331      865.921
04/06/2014  01:40:00      -91.856      -22.159       -8.262       36.554       25.518       13.015     1336.224      651.160      169.393        0.558        0.108       94.491       12.402        0.017      335.587        6.321      865.930
04/06/2014  01:41:00      -77.656      -21.409      -11.366       22.341       18.939       14.483      499.110      358.687      209.748        0.384        0.053       80.553       11.208        0.019      335.672        6.462      865.922
04/06/2014  01:42:00      -98.436       10.280       -9.298       31.359       43.986       22.480      983.416     1934.795      505.370        0.665        0.171       98.971       20.053        0.041      335.594        6.333      865.916
04/06/2014  01:43:00     -104.512       35.571      -13.095       31.791       28.070       20.101     1010.656      787.940      404.050        0.728        0.110      110.399       13.596        0.015      335.526        6.220      865.924
04/06/2014  01:44:00      -62.319        7.505        4.871       41.663       23.335       18.496     1735.796      544.522      342.101        0.329        0.131       62.769       20.947        0.111      335.575        6.301      865.922
04/06/2014  01:45:00      -45.159       19.559        7.038       40.072       24.325       20.321     1605.786      591.720      412.960        0.254        0.131       49.212       14.402        0.086      335.675        6.468      865.940
04/06/2014  01:46:00      -30.200       40.912       -6.825       17.315       17.498       14.859      299.823      306.193      220.786        0.173        0.041       50.851        8.371        0.027      335.866        6.785      865.943
04/06/2014  01:47:00      -20.595       45.879        2.011       14.039       18.329       14.783      197.090      335.966      218.550        0.164        0.038       50.289       11.087        0.049      336.260        7.443      865.946
04/06/2014  01:48:00      -10.080       88.052       -1.466       16.396       22.920       13.519      268.837      525.322      182.774        0.442        0.049       88.627        9.488        0.011      336.545        7.918      865.944
04/06/2014  01:49:00       17.269       89.821       -4.549       21.539       17.931        9.318      463.942      321.510       86.817        0.463        0.044       91.466        6.897        0.006      336.354        7.601      865.929
04/06/2014  01:50:00       40.086       39.241       -9.786       24.325       19.303       16.269      591.729      372.617      264.694        0.224        0.061       56.096       13.986        0.062      335.737        6.570      865.933
04/06/2014  01:51:00       54.435       37.393      -11.002       15.944       20.117       13.873      254.221      404.695      192.462        0.267        0.043       66.041        3.500        0.003      335.593        6.331      865.951
04/06/2014  01:52:00       46.245       36.831       -3.415       13.469       11.062       18.969      181.410      122.372      359.807        0.209        0.033       59.120        9.409        0.025      335.561        6.277      865.955
04/06/2014  01:53:00       77.287       62.163       17.427       25.329       20.481       26.192      641.565      419.453      686.013        0.594        0.087       99.184        8.565        0.007      335.468        6.122      865.968
04/06/2014  01:54:00       18.345       84.397       90.947       46.184       51.119       52.246     2132.933     2613.147     2729.601        1.160        0.374       86.368       49.130        0.324      335.305        5.849      865.997
04/06/2014  01:55:00       56.853       45.761       74.044       58.648       63.227       48.796     3439.639     3997.695     2381.020        1.031        0.491       72.982       43.259        0.351      335.275        5.799      866.028
04/06/2014  01:56:00       28.090      -47.975       15.449       47.214       42.377       30.981     2229.197     1795.840      959.836        0.416        0.249       55.593       21.973        0.156      335.409        6.023      866.058
04/06/2014  01:57:00       15.750        4.317       24.847       24.657       35.341       21.671      607.960     1248.986      469.616        0.160        0.116       16.331       11.738        0.517      335.340        5.907      866.075
04/06/2014  01:58:00       14.060       -0.212        8.387       21.533       22.829       15.203      463.660      521.167      231.140        0.074        0.061       14.062       13.242        0.887      335.498        6.172      866.066
04/06/2014  01:59:00       20.362      -17.284       -2.868       17.191       19.546       15.625      295.520      382.050      244.154        0.082        0.046       26.709       15.304        0.328      335.654        6.431      866.068
04/06/2014  02:00:00        3.252      -41.208       -0.065       12.228       23.676        9.413      149.533      560.571       88.599        0.125        0.040       41.336       10.001        0.059      335.839        6.739      866.064
04/06/2014  02:01:00      -40.320        7.485       -7.713       17.680       13.198        8.779      312.569      174.188       77.063        0.115        0.028       41.009        5.740        0.020      335.732        6.563      866.063
04/06/2014  02:02:00      -52.962       19.691       -8.973       18.800        9.180        8.179      353.441       84.275       66.897        0.189        0.025       56.504        9.194        0.026      335.734        6.565      866.077
04/06/2014  02:03:00      -78.986       35.873      -13.076       17.143       17.193       17.322      293.881      295.585      300.058        0.429        0.044       86.751        9.533        0.012      335.584        6.315      866.071
04/06/2014  02:04:00      -83.648       38.956      -16.559       16.843       14.360       10.797      283.677      206.207      116.565        0.470        0.030       92.274        6.824        0.005      335.605        6.351      866.063
04/06/2014  02:05:00      -90.373        6.287      -10.679       12.854       21.308        9.748      165.224      454.033       95.020        0.452        0.036       90.592        6.712        0.005      335.640        6.410      866.037
04/06/2014  02:06:00      -94.582      -28.133      -16.177       10.744       18.347        8.499      115.438      336.600       72.241        0.526        0.026       98.677        4.953        0.003      335.615        6.367      866.021
04/06/2014  02:07:00     -130.525      -46.031       -9.692       14.558       17.985       13.489      211.927      323.462      181.960        0.998        0.036      138.404        7.550        0.003      335.457        6.104      866.026
04/06/2014  02:08:00     -122.524      -35.577      -10.963       25.755       28.459       14.860      663.298      809.940      220.829        0.905        0.085      127.585       12.694        0.010      335.394        5.998      866.038
04/06/2014  02:09:00     -100.137      -73.880        3.351       54.712       35.426       28.056     2993.371     1255.013      787.134        1.027        0.252      124.441       27.900        0.050      335.444        6.082      866.047
04/06/2014  02:10:00     -133.807      -53.980        3.683       58.587       47.933       33.119     3432.483     2297.599     1096.884        1.383        0.341      144.285       34.658        0.058      335.436        6.068      866.061
04/06/2014  02:11:00     -122.113      -34.756       -4.413       41.882       26.404       26.146     1754.138      697.160      683.610        0.964        0.157      126.963       25.035        0.039      335.376        5.968      866.056
04/06/2014  02:12:00     -118.247      -21.530       -8.563       26.312       27.205       18.307      692.305      740.119      335.135        0.814        0.088      120.192       13.972        0.014      335.375        5.965      866.041
04/06/2014  02:13:00      -34.759      -11.664       11.648       40.446       19.652       16.660     1635.852      386.207      277.569        0.189        0.115       36.664       19.594        0.286      335.373        5.963      866.035
04/06/2014  02:14:00     -121.964      -60.988        1.606       55.828       42.787       28.089     3116.736     1830.763      789.020        1.217        0.287      136.363       25.711        0.036      335.387        5.985      866.026
04/06/2014  02:15:00     -185.480      -47.808       -2.310       68.178       51.481       35.695     4648.261     2650.303     1274.152        2.263        0.429      191.542       31.516        0.027      335.451        6.092      866.019
04/06/2014  02:16:00     -179.193       -9.922      -12.261       62.669       38.043       29.002     3927.388     1447.251      841.118        1.929        0.311      179.468       28.829        0.026      335.451        6.093      866.029
04/06/2014  02:17:00     -105.107      -45.285        8.900       71.653       50.992       31.906     5134.146     2600.155     1017.980        1.096        0.438      114.447       29.526        0.067      335.429        6.055      866.039
04/06/2014  02:18:00     -146.120      -71.442       -0.138       48.082       46.387       24.192     2311.890     2151.762      585.247        1.575        0.252      162.650       23.676        0.021      335.518        6.204      866.028
04/06/2014  02:19:00     -192.145      -55.186       -9.267       56.517       45.276       23.369     3194.225     2049.901      546.093        2.292        0.290      199.913       17.462        0.008      335.532        6.228      866.004
04/06/2014  02:20:00     -149.182      -67.789       -1.992       67.371       59.250       34.407     4538.911     3510.565     1183.839        1.804        0.462      163.862       30.861        0.035      335.477        6.136      866.004
04/06/2014  02:21:00     -168.634      -67.222        2.137       46.565       54.832       27.960     2168.299     3006.599      781.741        1.946        0.298      181.539       22.012        0.015      335.421        6.042      866.027
04/06/2014  02:22:00     -167.991      -51.343       -4.047       59.548       48.431       28.471     3545.969     2345.597      810.623        1.879        0.335      175.662       30.538        0.030      335.299        5.839      866.040
04/06/2014  02:23:00     -156.062      -52.361        4.794       48.073       42.896       29.265     2311.041     1840.093      856.456        1.606        0.250      164.612       24.334        0.022      335.292        5.828      866.031
04/06/2014  02:24:00     -133.866      -81.980       -2.360       53.281       41.259       32.794     2838.912     1702.267     1075.472        1.513        0.281      156.974       37.478        0.057      335.398        6.003      866.025
04/06/2014  02:25:00      -78.591     -107.715      -11.009       25.935       25.033       15.895      672.647      626.628      252.663        0.973        0.078      133.338       12.518        0.009      335.427        6.052      866.004
04/06/2014  02:26:00      -90.538      -69.000        0.893       47.247       37.362       26.427     2232.325     1395.955      698.363        0.864        0.216      113.834       26.708        0.055      335.469        6.122      865.988
04/06/2014  02:27:00     -129.748      -90.898       -9.991       37.472       30.569       20.511     1404.126      934.459      420.721        1.398        0.138      158.420       13.943        0.008      335.509        6.191      865.979
04/06/2014  02:28:00     -118.711      -93.488       -7.466       47.325       53.869       21.441     2239.631     2901.829      459.710        1.424        0.280      151.104       27.535        0.033      335.496        6.167      865.964
04/06/2014  02:29:00     -108.052      -60.418       -3.127       42.729       32.699       23.976     1825.788     1069.223      574.840        0.940        0.173      123.797       23.392        0.036      335.391        5.994      865.956
04/06/2014  02:30:00     -126.994      -36.919       -2.087       48.050       33.251       21.924     2308.763     1105.601      480.649        1.069        0.195      132.252       25.419        0.037      335.243        5.746      865.954
04/06/2014  02:31:00     -130.890      -32.887        7.198       50.865       32.856       26.605     2587.267     1079.492      707.803        1.132        0.219      134.958       22.959        0.029      335.220        5.708      865.942
04/06/2014  02:32:00     -120.304      -42.602        3.718       49.439       35.663       19.307     2444.170     1271.824      372.760        1.019        0.204      127.625       18.873        0.022      335.283        5.812      865.922
04/06/2014  02:33:00     -141.448      -60.568       -7.318       39.800       26.813       19.954     1584.064      718.914      398.150        1.321        0.135      153.870       17.405        0.013      335.226        5.719      865.918
04/06/2014  02:34:00     -106.496      -30.189       -0.427       33.487       33.651       19.396     1121.412     1132.377      376.212        0.744        0.132      110.693       16.797        0.023      335.223        5.713      865.914
04/06/2014  02:35:00     -121.028      -29.426       -6.214       35.141       43.045       20.483     1234.872     1852.863      419.544        0.953        0.175      124.553       17.324        0.019      335.197        5.671      865.903
04/06/2014  02:36:00     -125.776       14.759       -8.068       45.374       25.147       20.840     2058.792      632.366      434.293        0.961        0.156      126.639       20.892        0.027      334.983        5.316      865.912
04/06/2014  02:37:00     -145.256       18.464       -9.872       44.085       33.778       22.804     1943.514     1140.951      520.022        1.257        0.180      146.425       21.557        0.022      335.042        5.415      865.910
04/06/2014  02:38:00     -104.654      -24.754       -6.926       34.003       41.937       23.221     1156.208     1758.721      539.231        0.753        0.173      107.542       21.595        0.040      335.027        5.391      865.908
04/06/2014  02:39:00      -55.318      -41.785        2.378       38.727       29.574       20.609     1499.753      874.635      424.739        0.380        0.140       69.326       19.923        0.083      335.069        5.459      865.909
04/06/2014  02:40:00     -121.685      -49.845       -8.726       27.610       25.163       18.106      762.308      633.179      327.843        0.955        0.086      131.499       14.714        0.013      335.070        5.459      865.909
04/06/2014  02:41:00     -106.475      -29.034        2.488       31.888       25.681       20.497     1016.828      659.530      420.118        0.714        0.105      110.362       18.603        0.028      335.018        5.374      865.912
04/06/2014  02:42:00     -111.105      -29.800        0.779       38.371       28.969       20.581     1472.334      839.192      423.557        0.798        0.137      115.032       20.399        0.031      334.907        5.189      865.921
04/06/2014  02:43:00     -112.883      -38.720        1.872       37.119       28.725       18.850     1377.823      825.111      355.338        0.840        0.128      119.339       18.131        0.023      334.991        5.328      865.932
04/06/2014  02:44:00     -103.785      -14.964        0.329       32.854       29.835       20.621     1079.365      890.142      425.236        0.669        0.120      104.858       17.183        0.027      334.834        5.068      865.950
04/06/2014  02:45:00      -60.514      -11.401        3.336       42.155       25.722       18.940     1777.052      661.625      358.728        0.330        0.140       61.578       21.706        0.124      334.738        4.909      865.956
04/06/2014  02:46:00      -75.977      -32.127       -1.030       28.603       21.807       15.575      818.146      475.528      242.573        0.417        0.077       82.490       13.978        0.029      334.771        4.964      865.958
04/06/2014  02:47:00     -106.916      -34.981       -9.414       18.636       15.444       10.688      347.318      238.511      114.223        0.672        0.035      112.493        7.432        0.004      334.781        4.980      865.954
04/06/2014  02:48:00     -125.587      -26.502       -8.461       18.952       22.431       13.061      359.187      503.135      170.594        0.879        0.052      128.353        6.579        0.003      334.747        4.923      865.951
04/06/2014  02:49:00      -96.622      -19.462       -0.167       39.353       26.555       17.746     1548.633      705.192      314.916        0.614        0.128       98.563       17.313        0.031      334.710        4.861      865.946
04/06/2014  02:50:00      -85.228      -19.332        2.919       40.016       19.128       15.404     1601.260      365.892      237.279        0.492        0.110       87.393       17.927        0.042      334.744        4.919      865.953
04/06/2014  02:51:00      -69.553      -41.136        7.610       44.061       35.301       22.088     1941.365     1246.158      487.869        0.513        0.184       80.807       24.365        0.091      334.834        5.067      865.957
04/06/2014  02:52:00      -61.274      -43.239        4.095       35.597       18.854       16.683     1267.138      355.474      278.312        0.377        0.095       74.994       17.829        0.057      334.971        5.296      865.971
04/06/2014  02:53:00      -79.045      -38.160        2.767       28.634       23.816       14.637      819.885      567.178      214.245        0.466        0.080       87.774       12.905        0.022      334.925        5.218      865.981
04/06/2014  02:54:00      -96.122      -35.752        0.089       36.502       31.072       14.458     1332.363      965.449      209.020        0.651        0.125      102.555        9.764        0.009      334.769        4.959      865.991
04/06/2014  02:55:00      -79.213      -31.641        1.497       16.148       16.618       11.041      260.771      276.159      121.913        0.397        0.033       85.298        9.458        0.012      334.816        5.039      865.998
04/06/2014  02:56:00      -64.254      -40.781        0.844       30.022       20.081       14.154      901.302      403.266      200.334        0.365        0.075       76.103       14.727        0.037      334.900        5.177      866.005
04/06/2014  02:57:00      -70.561      -38.846        8.715       46.631       26.727       22.377     2174.420      714.309      500.734        0.498        0.169       80.547       23.056        0.082      334.896        5.170      866.019
04/06/2014  02:58:00     -116.069      -55.308       -0.134       20.296       19.765       14.935      411.929      390.649      223.060        0.878        0.051      128.573       11.388        0.008      334.874        5.135      866.017
04/06/2014  02:59:00     -109.782      -63.660        4.271       47.449       26.705       22.124     2251.409      713.137      489.479        0.979        0.173      126.904       24.604        0.038      334.925        5.219      866.005
04/06/2014  03:00:00      -83.410      -45.008        5.936       36.748       29.831       22.587     1350.381      889.910      510.189        0.588        0.138       94.779       22.338        0.056      334.900        5.178      865.993
04/06/2014  03:01:00     -118.487      -41.540        1.950       25.241       24.630       17.122      637.104      606.650      293.171        0.865        0.077      125.558       14.173        0.013      334.858        5.109      865.991
04/06/2014  03:02:00      -98.907      -43.046        1.041       38.546       31.739       19.065     1485.759     1007.363      363.463        0.725        0.143      107.868       20.225        0.035      334.900        5.177      865.992
04/06/2014  03:03:00      -73.258      -33.794        4.834       38.670       24.768       16.737     1495.360      613.445      280.131        0.446        0.119       80.677       18.282        0.051      334.929        5.225      865.977
04/06/2014  03:04:00      -65.838      -42.404        7.902       29.930       29.301       15.648      895.780      858.525      244.873        0.410        0.100       78.312       14.948        0.036      335.103        5.516      865.966
04/06/2014  03:05:00     -106.340      -43.706        1.843       48.771       23.945       16.667     2378.608      573.343      277.775        0.823        0.161      114.971       22.574        0.039      335.075        5.469      865.951
04/06/2014  03:06:00     -123.604      -57.857        0.072       42.781       29.575       22.451     1830.228      874.664      504.046        1.092        0.160      136.475       22.221        0.027      335.070        5.460      865.964
04/06/2014  03:07:00     -157.808      -48.456        3.023       42.760       38.667       23.032     1828.434     1495.103      530.485        1.556        0.193      165.080       21.872        0.018      335.020        5.376      865.986
04/06/2014  03:08:00     -149.165      -59.201        0.131       47.905       38.996       26.094     2294.877     1520.705      680.922        1.512        0.225      160.483       27.332        0.029      334.878        5.141      865.991
04/06/2014  03:09:00     -161.714      -70.002        3.880       56.210       37.701       32.890     3159.549     1421.403     1081.755        1.836        0.283      176.215       29.216        0.027      334.891        5.163      865.985
04/06/2014  03:10:00     -149.709      -55.284        1.307       50.516       35.558       23.088     2551.889     1264.352      533.042        1.491        0.217      159.591       23.636        0.022      334.948        5.257      865.984
04/06/2014  03:11:00     -137.104      -50.362       -4.798       46.156       35.156       27.554     2130.414     1235.960      759.227        1.274        0.206      146.061       24.596        0.028      335.000        5.345      865.982
04/06/2014  03:12:00      -91.203      -51.234       -5.311       31.598       35.351       18.551      998.434     1249.677      344.135        0.678        0.130      104.608       15.481        0.022      335.006        5.355      865.992
04/06/2014  03:13:00     -125.103      -53.653       -6.274       31.603       36.914       20.683      998.780     1362.617      427.805        1.068        0.139      136.122       19.237        0.020      335.009        5.358      865.995
04/06/2014  03:14:00     -116.533      -70.408        0.922       38.778       38.469       29.961     1503.753     1479.860      897.663        1.121        0.194      136.152       24.527        0.032      335.020        5.376      866.003
04/06/2014  03:15:00     -105.609      -78.220        3.364       49.608       30.525       25.271     2460.941      931.805      638.643        1.066        0.202      131.421       29.558        0.051      335.023        5.381      866.017
04/06/2014  03:16:00     -132.300      -55.471       -8.277       41.469       29.439       26.498     1719.638      866.664      702.162        1.197        0.164      143.459       27.361        0.036      335.052        5.431      866.035
04/06/2014  03:17:00      -82.866      -18.971       -5.123       29.019       30.715       16.478      842.107      943.434      271.522        0.465        0.103       85.010       10.667        0.016      335.055        5.438      866.045
04/06/2014  03:18:00      -75.738      -19.521       -2.862       46.666       24.061       20.274     2177.669      578.931      411.026        0.465        0.158       78.213       21.487        0.075      334.998        5.342      866.048
04/06/2014  03:19:00      -88.859      -16.597        1.641       45.055       34.731       24.888     2029.937     1206.273      619.401        0.601        0.193       90.396       23.128        0.065      334.861        5.113      866.050
04/06/2014  03:20:00     -110.311      -31.090       -2.629       50.955       33.952       21.793     2596.372     1152.768      474.922        0.868        0.211      114.609       20.926        0.033      334.739        4.910      866.055
04/06/2014  03:21:00      -75.544      -55.191        9.773       63.883       34.983       22.752     4081.077     1223.814      517.640        0.733        0.291       93.557       26.035        0.077      334.780        4.978      866.070
04/06/2014  03:22:00      -25.823      -23.848       12.255       42.718       25.263       24.366     1824.840      638.195      593.700        0.222        0.153       35.151       20.424        0.338      334.779        4.977      866.075
04/06/2014  03:23:00      -50.437      -42.711        5.124       31.463       24.045       16.043      989.946      578.178      257.379        0.311        0.091       66.092       13.921        0.044      334.899        5.176      866.075
04/06/2014  03:24:00        9.934      -25.330       -0.026       21.030       19.241       17.633      442.259      370.198      310.931        0.093        0.056       27.208        8.617        0.100      334.954        5.268      866.069
04/06/2014  03:25:00        5.208       57.283       35.719       31.975       33.353       52.312     1022.398     1112.400     2736.573        0.473        0.244       57.519       33.339        0.336      334.916        5.203      866.051
04/06/2014  03:26:00        5.006       39.773       76.172       29.726       63.650       40.379      883.637     4051.277     1630.477        0.699        0.328       40.087       39.399        0.966      334.834        5.068      866.038
04/06/2014  03:27:00       50.198      -96.323      -11.281       55.012       41.299       41.826     3026.296     1705.619     1749.406        0.920        0.324      108.618       35.006        0.104      334.963        5.281      866.039
04/06/2014  03:28:00        3.264      -82.996      -14.080       64.005       32.980       23.611     4096.672     1087.649      557.472        0.642        0.287       83.061       20.162        0.059      334.977        5.305      866.033
04/06/2014  03:29:00      -88.012      -94.764        2.356       56.777       65.206       26.086     3223.651     4251.865      680.463        1.244        0.408      129.330       26.594        0.042      334.945        5.253      866.024
04/06/2014  03:30:00     -132.303      -96.173        0.157       74.445       61.612       38.593     5542.129     3796.050     1489.432        1.879        0.541      163.564       41.617        0.065      334.982        5.313      866.013
04/06/2014  03:31:00     -145.581      -94.410       -4.420       63.243       44.989       31.379     3999.669     2023.990      984.648        1.857        0.350      173.514       30.940        0.032      334.929        5.224      866.029
04/06/2014  03:32:00     -105.391      -78.236      -10.127       34.503       32.895       21.659     1190.475     1082.066      469.102        1.004        0.137      131.256       19.468        0.022      334.863        5.117      866.057
04/06/2014  03:33:00      -68.776      -41.187        2.363       43.322       25.328       19.020     1876.767      641.491      361.766        0.466        0.144       80.166       18.720        0.055      334.906        5.187      866.085
04/06/2014  03:34:00      -29.998      -80.154        1.949       37.928       20.325       20.711     1438.510      413.089      428.931        0.480        0.114       85.584       17.205        0.040      334.953        5.266      866.104
04/06/2014  03:35:00      -57.311      -59.969        2.475       33.701       37.135       21.720     1135.729     1379.018      471.757        0.494        0.149       82.951       17.058        0.042      335.033        5.400      866.111
04/06/2014  03:36:00      -29.127       -8.802       21.237       23.562       14.707       20.302      555.180      216.306      412.161        0.128        0.059       30.428       11.150        0.134      335.026        5.388      866.111
04/06/2014  03:37:00       -8.623       13.962       11.517       20.917       25.458       15.659      437.535      648.087      245.196        0.087        0.067       16.410       15.188        0.857      335.008        5.358      866.111
04/06/2014  03:38:00      -13.925       46.211       10.506       20.468       22.764       16.184      418.941      518.195      261.910        0.182        0.060       48.263       11.933        0.061      334.961        5.280      866.112
04/06/2014  03:39:00        8.513       17.550       14.845       11.839       14.827       13.537      140.172      219.829      183.248        0.057        0.027       19.506       11.969        0.377      334.916        5.203      866.116
04/06/2014  03:40:00       -6.681        2.823        7.839       16.998       15.054       15.594      288.916      226.627      243.161        0.044        0.038        7.253       10.176        1.969      334.891        5.163      866.118
04/06/2014  03:41:00       21.586       26.021        4.773       20.035       14.949       13.840      401.394      223.470      191.538        0.099        0.041       33.809        9.056        0.072      334.929        5.225      866.114
04/06/2014  03:42:00       -7.832       23.928       13.852       15.678       14.042       10.906      245.801      197.173      118.946        0.069        0.028       25.178        7.873        0.098      334.802        5.015      866.095
04/06/2014  03:43:00      -11.956        2.151       -1.228       17.468       17.153       12.284      305.119      294.219      150.892        0.045        0.038       12.148       11.193        0.849      334.833        5.068      866.063
04/06/2014  03:44:00      -29.993       -5.951        1.889       39.797       23.878       17.774     1583.818      570.181      315.897        0.170        0.123       30.578       21.199        0.481      334.922        5.215      866.027
04/06/2014  03:45:00      -28.312      -34.204        7.423       24.755       23.949       17.374      612.788      573.541      301.868        0.176        0.074       44.402       16.339        0.135      334.967        5.289      865.995
04/06/2014  03:46:00      -16.063      -29.768        7.826       29.926       35.502       16.000      895.579     1260.408      255.986        0.181        0.121       33.825       18.701        0.306      334.966        5.288      865.978
04/06/2014  03:47:00      -55.891      -24.634       -2.185       49.877       28.373       19.212     2487.676      805.013      369.114        0.370        0.183       61.079       19.562        0.103      334.938        5.241      865.967
04/06/2014  03:48:00      -35.824      -17.081       13.706       34.519       25.846       17.597     1191.567      667.999      309.638        0.197        0.108       39.687       17.506        0.195      334.837        5.073      865.959
04/06/2014  03:49:00      -76.716      -69.049        0.197       38.125       27.831       20.341     1453.531      774.544      413.738        0.665        0.132      103.214       15.449        0.022      334.916        5.204      865.966
04/06/2014  03:50:00      -37.990      -40.587        8.511       24.739       13.899       15.379      612.015      193.193      236.520        0.210        0.052       55.593        5.442        0.010      334.980        5.311      865.964
04/06/2014  03:51:00      -67.638      -63.426       -4.576       32.725       29.089       15.264     1070.936      846.165      232.998        0.538        0.108       92.724        5.666        0.004      334.883        5.150      865.970
04/06/2014  03:52:00      -62.863      -48.885       -2.801       29.625       49.537       22.602      877.652     2453.881      510.858        0.510        0.192       79.633       23.900        0.090      334.853        5.100      865.982
04/06/2014  03:53:00      -12.231      -36.488       19.613       26.305       32.513       18.390      691.961     1057.097      338.187        0.198        0.104       38.483       15.571        0.164      334.911        5.196      865.986
04/06/2014  03:54:00      -30.286      -47.699        2.875       30.703       18.955       16.763      942.649      359.297      281.001        0.239        0.079       56.502       15.279        0.073      334.900        5.176      865.996
04/06/2014  03:55:00      -35.815      -42.978       10.244       38.291       24.827       25.160     1466.173      616.355      633.012        0.297        0.136       55.945       17.398        0.097      334.908        5.190      865.996
04/06/2014  03:56:00     -113.444      -64.110      -11.611       21.371       23.686       16.871      456.700      561.043      284.637        0.921        0.065      130.306       10.665        0.007      334.803        5.016      865.988
04/06/2014  03:57:00      -77.889      -40.950       -0.145       26.643       27.114       16.578      709.842      735.150      274.823        0.473        0.086       87.998       11.754        0.018      334.692        4.831      865.985
04/06/2014  03:58:00      -55.401       -6.709       -8.606       12.580       20.108        8.696      158.265      404.331       75.613        0.191        0.032       55.806        8.260        0.022      334.623        4.718      865.995
04/06/2014  03:59:00      -68.880      -12.432       -8.881       14.541       11.862       10.550      211.454      140.712      111.294        0.272        0.023       69.993        8.525        0.015      334.524        4.552      866.013
04/06/2014  04:00:00      -71.881       -3.475       -7.965       20.178       16.754       13.056      407.146      280.708      170.456        0.305        0.043       71.965       11.888        0.027      334.294        4.172      866.022
04/06/2014  04:01:00      -51.911       -4.917       -7.453       27.923       20.729       14.716      779.689      429.675      216.558        0.210        0.071       52.143       16.671        0.102      334.163        3.954      866.030
04/06/2014  04:02:00      -57.697      -17.424       -6.803       20.563       19.164       10.712      422.827      367.267      114.757        0.229        0.045       60.271        7.956        0.017      334.158        3.944      866.032
04/06/2014  04:03:00      -63.220      -17.914       -1.440       24.649       19.508       14.535      607.553      380.575      211.271        0.276        0.060       65.709       12.717        0.037      334.141        3.917      866.033
04/06/2014  04:04:00     -110.176      -19.284       -1.181       38.186       23.992       13.635     1458.203      575.603      185.913        0.737        0.111      111.851       11.970        0.011      334.035        3.742      866.033
04/06/2014  04:05:00     -122.012      -40.198       -5.472       28.207       26.773       16.211      795.637      716.810      262.802        0.915        0.089      128.463       12.808        0.010      333.976        3.645      866.034
04/06/2014  04:06:00     -125.906      -27.166       -8.000       24.701       16.904       13.317      610.143      285.743      177.340        0.886        0.054      128.803       10.628        0.007      333.934        3.574      866.039
04/06/2014  04:07:00     -117.186      -35.652       -6.311       30.330       20.380       17.157      919.887      415.362      294.365        0.834        0.081      122.490       16.037        0.017      333.984        3.657      866.040
04/06/2014  04:08:00      -96.166      -26.731       -6.370       28.492       20.730       13.635      811.803      429.747      185.923        0.571        0.071       99.812       11.853        0.014      333.949        3.599      866.039
04/06/2014  04:09:00      -57.061      -17.132       -0.767       41.747       20.684       17.997     1742.792      427.812      323.885        0.302        0.125       59.577       17.983        0.091      334.016        3.711      866.037
04/06/2014  04:10:00      -67.743      -10.071       -4.253       42.979       17.250       18.163     1847.164      297.563      329.885        0.359        0.124       68.488       21.853        0.102      333.956        3.613      866.037
04/06/2014  04:11:00      -94.953       -8.148      -11.023       48.736       22.503       16.755     2375.235      506.403      280.719        0.618        0.158       95.302       19.012        0.040      333.992        3.671      866.036
04/06/2014  04:12:00      -77.537      -11.522       -5.187       32.013       25.592       18.486     1024.842      654.973      341.749        0.410        0.101       78.389       13.648        0.030      333.981        3.653      866.051
04/06/2014  04:13:00      -84.867      -25.009       -4.189       25.430       22.022       17.281      646.692      484.972      298.644        0.464        0.072       88.475       14.036        0.025      333.960        3.619      866.064
04/06/2014  04:14:00      -67.232      -22.480        1.095       29.214       29.939       14.321      853.464      896.364      205.091        0.349        0.098       70.891       16.090        0.052      333.956        3.613      866.089
04/06/2014  04:15:00      -65.160      -16.848       -1.853       17.836       19.134       14.919      318.108      366.119      222.588        0.272        0.045       67.302        9.539        0.020      333.905        3.527      866.112
04/06/2014  04:16:00      -17.325       -5.369       -5.171       17.017       16.147        9.382      289.591      260.728       88.026        0.050        0.032       18.138        7.386        0.166      333.957        3.613      866.146
04/06/2014  04:17:00       36.699       55.788       57.689       37.638       46.876       37.423     1416.621     2197.401     1400.481        0.640        0.251       66.776       35.669        0.285      334.093        3.838      866.181
04/06/2014  04:18:00       91.724       66.949       40.283       37.433       31.649       29.754     1401.202     1001.645      885.294        0.890        0.164      113.558       21.776        0.037      334.045        3.758      866.203
04/06/2014  04:19:00       29.582       28.352       36.511       33.626       31.213       31.982     1130.721      974.262     1022.821        0.307        0.156       40.975       21.183        0.267      334.118        3.879      866.192
04/06/2014  04:20:00       20.252       19.630       24.631       23.739       19.711       21.902      563.533      388.525      479.705        0.142        0.072       28.205       11.040        0.153      334.237        4.079      866.173
04/06/2014  04:21:00       19.475       30.933       26.203       17.142       15.178       18.833      293.865      230.369      354.690        0.145        0.044       36.554       11.016        0.091      334.272        4.135      866.156
04/06/2014  04:22:00       18.990       27.450        0.549        9.670       14.191       12.934       93.514      201.383      167.291        0.079        0.023       33.379       10.521        0.099      334.195        4.008      866.148
04/06/2014  04:23:00       24.803       23.392       -2.981        5.493        6.495        5.250       30.176       42.180       27.564        0.064        0.005       34.093        2.996        0.008      334.358        4.279      866.156
04/06/2014  04:24:00       29.097       29.257       14.792       17.106       11.802       11.261      292.620      139.281      126.805        0.124        0.028       41.263        5.985        0.021      334.243        4.088      866.162
04/06/2014  04:25:00       28.247       20.694       15.201       15.771       13.551       12.424      248.735      183.627      154.365        0.102        0.029       35.016        6.869        0.038      334.220        4.049      866.168
04/06/2014  04:26:00       23.090       11.257       11.700       21.285       21.527        9.451      453.060      463.402       89.320        0.090        0.050       25.688       12.117        0.223      334.242        4.086      866.166
04/06/2014  04:27:00        0.568      -26.662       -0.015       12.312       16.260        9.152      151.596      264.381       83.766        0.061        0.025       26.668        7.874        0.087      334.203        4.021      866.168
04/06/2014  04:28:00      -15.173       -9.894        7.272       11.853        9.901       10.565      140.504       98.028      111.626        0.037        0.018       18.114        6.426        0.126      334.097        3.847      866.159
04/06/2014  04:29:00      -65.188      -16.343       -7.603       18.575        8.561        8.005      345.028       73.283       64.076        0.253        0.024       67.205        7.068        0.011      334.121        3.885      866.166
04/06/2014  04:30:00      -61.857       -6.469       -6.440       14.437       13.752        8.090      208.422      189.129       65.449        0.219        0.023       62.194        7.844        0.016      334.155        3.942      866.183
04/06/2014  04:31:00      -49.744       14.461       -2.120        8.219        7.570        7.094       67.554       57.311       50.330        0.143        0.009       51.803        5.168        0.010      334.237        4.077      866.202
04/06/2014  04:32:00      -27.862       14.264       -3.157        8.653        8.820        2.883       74.877       77.786        8.311        0.058        0.008       31.301        2.338        0.006      334.325        4.225      866.219
04/06/2014  04:33:00      -18.256       -6.468       -7.429        5.425        5.471        4.928       29.431       29.933       24.288        0.026        0.004       19.368        4.570        0.056      334.374        4.305      866.224
04/06/2014  04:34:00      -39.122      -17.076       -7.074        7.093        7.071        6.112       50.316       49.992       37.362        0.100        0.007       42.686        2.161        0.003      334.394        4.339      866.217
04/06/2014  04:35:00      -53.998      -20.659       -8.266        9.339       13.504        7.122       87.221      182.365       50.723        0.187        0.016       57.815        4.346        0.006      334.389        4.330      866.203
04/06/2014  04:36:00      -39.094      -16.025       -4.520        5.960       11.522        5.457       35.519      132.766       29.783        0.100        0.010       42.251        5.373        0.016      334.326        4.227      866.198
04/06/2014  04:37:00      -50.954       -2.800       -4.461        9.591       11.876        6.594       91.995      141.035       43.475        0.145        0.014       51.031        2.837        0.003      334.320        4.214      866.198
04/06/2014  04:38:00      -53.038       -3.278       -4.893       12.744       10.487        7.874      162.406      109.970       62.002        0.159        0.017       53.139        6.382        0.014      334.160        3.949      866.199
04/06/2014  04:39:00      -32.925        0.573       -7.385       17.989        6.033        6.665      323.587       36.399       44.426        0.077        0.020       32.930        8.992        0.075      334.146        3.928      866.193
04/06/2014  04:40:00      -22.177        0.205       -3.709        6.386        6.340        5.816       40.784       40.191       33.821        0.031        0.006       22.178        3.533        0.025      334.183        3.989      866.213
04/06/2014  04:41:00      -16.539        8.916       -2.916        8.695        5.107        4.508       75.597       26.085       20.326        0.024        0.006       18.789        3.046        0.026      334.234        4.074      866.243
04/06/2014  04:42:00      -18.193       15.941       -4.220        9.412        6.815        5.148       88.585       46.442       26.497        0.038        0.008       24.189        3.012        0.016      334.276        4.141      866.268
04/06/2014  04:43:00      -13.960        5.645        5.778        6.386        6.927        6.929       40.785       47.977       48.012        0.020        0.007       15.058        4.429        0.087      334.268        4.128      866.290
04/06/2014  04:44:00      -20.922       20.188       15.279        8.531       12.706        6.654       72.774      161.436       44.276        0.068        0.014       29.074        4.047        0.019      334.258        4.113      866.300
04/06/2014  04:45:00      -28.939       17.720        3.913       10.684        8.992        6.411      114.155       80.861       41.099        0.070        0.012       33.934        3.599        0.011      334.251        4.101      866.320
04/06/2014  04:46:00      -38.277       15.707       -1.784        5.736        8.390        2.896       32.900       70.394        8.385        0.091        0.006       41.374        2.584        0.004      334.220        4.049      866.336
04/06/2014  04:47:00      -36.445       -7.741       -5.547        8.541       11.284        4.976       72.948      127.330       24.757        0.082        0.011       37.258        3.151        0.007      334.229        4.063      866.357
04/06/2014  04:48:00      -80.640      -40.348       -6.654       14.070       15.674        9.239      197.969      245.664       85.355        0.435        0.026       90.171        5.162        0.003      334.005        3.692      866.375
04/06/2014  04:49:00     -104.749      -15.641       -2.403       32.854       19.261       17.228     1079.367      370.997      296.788        0.648        0.087      105.910       17.684        0.028      333.762        3.290      866.381
04/06/2014  04:50:00     -100.772        1.168       -4.878       25.560       21.269       22.476      653.305      452.387      505.171        0.590        0.081      100.779       20.140        0.040      333.695        3.178      866.362
04/06/2014  04:51:00      -68.232        1.969        0.907       30.886       17.013       15.450      953.944      289.438      238.689        0.307        0.074       68.261       16.172        0.056      333.688        3.165      866.331
04/06/2014  04:52:00       -7.175       -2.546        5.434       20.685        8.633        6.604      427.862       74.531       43.609        0.032        0.027        7.613        7.360        0.935      333.760        3.287      866.296
04/06/2014  04:53:00       -6.466        8.409       -1.647        7.595        7.135        6.573       57.687       50.915       43.209        0.013        0.008       10.607        6.395        0.364      334.095        3.842      866.281
04/06/2014  04:54:00       15.751       20.489        9.235       12.205        9.240        9.595      148.954       85.377       92.059        0.054        0.016       25.843        7.097        0.075      334.237        4.077      866.282
04/06/2014  04:55:00       48.834       23.291        3.991       12.769       10.480       11.926      163.036      109.837      142.222        0.168        0.021       54.104        4.658        0.007      334.055        3.775      866.290
04/06/2014  04:56:00       46.988       30.253        0.321       19.049       13.474       12.617      362.857      181.540      159.179        0.191        0.035       55.885        8.993        0.026      333.900        3.518      866.291
04/06/2014  04:57:00       57.982       31.452        0.871       18.558       17.460       17.685      344.390      304.835      312.747        0.266        0.048       65.963       10.654        0.026      333.887        3.498      866.306
04/06/2014  04:58:00       41.292       38.573       -1.802       17.266       12.398       12.400      298.113      153.715      153.758        0.190        0.030       56.506        7.745        0.019      333.919        3.551      866.315
04/06/2014  04:59:00       20.420       28.554        4.996       17.435       16.889       10.637      303.986      285.251      113.142        0.098        0.035       35.105        8.625        0.060      334.009        3.699      866.313
04/06/2014  05:00:00       -1.191       41.325        2.962       16.069       11.633        8.715      258.212      135.335       75.959        0.109        0.023       41.342        6.658        0.026      334.147        3.928      866.299
04/06/2014  05:01:00      -76.118       18.204       -8.697       22.783       17.233        9.245      519.071      296.990       85.471        0.355        0.045       78.264        5.755        0.005      333.859        3.450      866.281
04/06/2014  05:02:00      -93.164      -16.493      -13.917       19.192       17.117       12.557      368.318      292.988      157.667        0.498        0.041       94.613        8.646        0.008      333.669        3.136      866.270
04/06/2014  05:03:00      -97.837      -10.811      -13.235       23.029       22.914       16.169      530.351      525.073      261.425        0.559        0.066       98.433        9.482        0.009      333.585        2.996      866.260
04/06/2014  05:04:00      -94.775        0.318      -11.919       22.604       10.847       10.329      510.956      117.650      106.679        0.493        0.037       94.775        8.659        0.008      333.589        3.003      866.260
04/06/2014  05:05:00      -46.550       -5.171       -8.940       10.711       10.326        7.869      114.729      106.627       61.919        0.128        0.014       46.836        5.244        0.013      333.676        3.146      866.278
04/06/2014  05:06:00      -42.561       -2.497       -7.532       10.772       10.183        8.107      116.045      103.688       65.720        0.108        0.014       42.634        5.485        0.017      333.961        3.621      866.309
04/06/2014  05:07:00      -60.471      -25.236       -4.740       19.553       10.985        9.300      382.338      120.660       86.489        0.245        0.029       65.526        7.166        0.012      333.748        3.265      866.340
04/06/2014  05:08:00      -69.169       -9.450      -12.204       13.990       14.333       12.465      195.712      205.445      155.381        0.279        0.028       69.811        6.956        0.010      333.617        3.049      866.377
04/06/2014  05:09:00      -56.658        7.991       -3.641       25.004       15.504       13.481      625.193      240.360      181.749        0.217        0.052       57.218       13.347        0.054      333.625        3.063      866.409
04/06/2014  05:10:00      -66.064       -1.033      -10.162       18.233       10.709       11.166      332.454      114.678      124.675        0.252        0.029       66.072        7.270        0.012      333.699        3.186      866.424
04/06/2014  05:11:00      -50.796      -11.295      -11.561       10.975       14.207        7.896      120.447      201.836       62.341        0.161        0.019       52.037        7.620        0.021      333.735        3.245      866.437
04/06/2014  05:12:00      -65.796       -5.842      -10.623       28.824       11.244       10.371      830.795      126.429      107.566        0.277        0.053       66.054       11.685        0.031      333.653        3.109      866.456
04/06/2014  05:13:00      -70.656      -10.916       -9.663       18.242       20.602       11.588      332.784      424.428      134.293        0.305        0.045       71.494        7.898        0.012      333.600        3.021      866.477
04/06/2014  05:14:00      -81.165       -3.782       -4.308       44.969       28.025       21.478     2022.232      785.376      461.316        0.494        0.163       81.253       23.863        0.086      333.584        2.993      866.479
04/06/2014  05:15:00      -55.398      -23.327       -1.009       23.310       20.670       16.448      543.373      427.269      270.549        0.243        0.062       60.109       14.051        0.055      333.546        2.932      866.470
04/06/2014  05:16:00      -79.118      -25.227      -10.102       22.425       12.371       11.570      502.901      153.043      133.874        0.389        0.039       83.042       11.610        0.020      333.635        3.078      866.461
04/06/2014  05:17:00      -80.630      -12.432      -13.165       16.442       16.572       14.322      270.335      274.636      205.132        0.379        0.038       81.583       11.046        0.018      333.708        3.202      866.442
04/06/2014  05:18:00      -72.132      -25.233       -5.486       18.197       21.699       13.182      331.113      470.860      173.772        0.342        0.049       76.418       10.296        0.018      333.721        3.221      866.438
04/06/2014  05:19:00      -45.000      -18.878        0.127       20.483       18.857        9.960      419.573      355.584       99.197        0.163        0.044       48.800       10.209        0.044      333.797        3.347      866.446
04/06/2014  05:20:00      -40.946       -9.517       -3.611       16.478       10.709        8.639      271.536      114.676       74.632        0.112        0.023       42.038        4.809        0.013      333.868        3.466      866.443
04/06/2014  05:21:00      -28.674      -10.313       -4.386       16.121        7.922        7.896      259.883       62.761       62.351        0.067        0.019       30.472        8.583        0.079      333.950        3.604      866.438
04/06/2014  05:22:00      -57.738       -7.646       -7.102       17.962       15.828       10.343      322.645      250.526      106.981        0.206        0.034       58.242       10.220        0.031      333.964        3.624      866.451
04/06/2014  05:23:00      -78.276       -5.347      -14.122       19.592       15.945       10.776      383.829      254.248      116.113        0.355        0.038       78.458        8.285        0.011      333.879        3.483      866.489
04/06/2014  05:24:00      -52.259       -9.866      -10.202       11.946       10.662        7.289      142.705      113.673       53.133        0.162        0.015       53.182        7.435        0.020      333.936        3.580      866.513
04/06/2014  05:25:00      -78.874       -1.597       -8.887        9.873        9.573        6.389       97.476       91.651       40.821        0.327        0.011       78.891        4.154        0.003      333.982        3.656      866.514
04/06/2014  05:26:00      -98.468      -20.924       -9.876       16.754       15.480       12.435      280.681      239.643      154.618        0.545        0.034      100.667       10.127        0.010      333.871        3.470      866.520
04/06/2014  05:27:00      -69.043       -3.873       -5.873       37.672       26.220       18.617     1419.210      687.466      346.582        0.363        0.123       69.151       18.990        0.075      333.688        3.167      866.528
04/06/2014  05:28:00      -53.025        2.682      -10.975       24.992       19.774       14.298      624.598      391.006      204.431        0.208        0.061       53.093        9.688        0.033      333.700        3.187      866.524
04/06/2014  05:29:00      -41.363      -11.135       -8.968       14.325       16.731       12.943      205.202      279.937      167.509        0.128        0.033       42.836       11.154        0.068      333.811        3.371      866.521
04/06/2014  05:30:00      -46.416      -16.200      -14.819       15.418       11.961        8.406      237.719      143.054       70.667        0.154        0.023       49.162        3.859        0.006      333.824        3.393      866.539
04/06/2014  05:31:00      -82.111      -29.207      -13.561       15.284       20.898        8.836      233.610      436.741       78.077        0.426        0.037       87.151        7.684        0.008      333.605        3.029      866.573
04/06/2014  05:32:00     -110.547      -48.874       -9.424       27.830       22.731       19.009      774.485      516.710      361.360        0.818        0.083      120.869       15.663        0.017      333.576        2.980      866.594
04/06/2014  05:33:00     -123.377       -6.118      -14.929       21.481       23.826       15.148      461.438      567.682      229.476        0.837        0.063      123.529        9.138        0.005      333.550        2.938      866.603
04/06/2014  05:34:00     -138.244      -11.335      -11.941       39.456       38.531       27.214     1556.756     1484.621      740.578        1.158        0.189      138.708       21.496        0.024      333.413        2.710      866.594
04/06/2014  05:35:00      -48.481        2.341       11.780       49.979       32.835       26.409     2497.904     1078.152      697.430        0.338        0.214       48.537       28.578        0.347      333.491        2.840      866.577
04/06/2014  05:36:00      -35.619      -15.148        0.866       42.257       38.348       20.453     1785.691     1470.589      418.336        0.259        0.184       38.706       20.749        0.287      333.680        3.154      866.566
04/06/2014  05:37:00      -38.199        2.347       -6.492       31.717       22.401       12.186     1005.939      501.816      148.510        0.158        0.083       38.271       11.689        0.093      333.738        3.250      866.570
04/06/2014  05:38:00      -12.958       32.134       -3.132       19.644       17.182       14.320      385.905      295.205      205.059        0.105        0.044       34.648       13.363        0.149      333.941        3.584      866.570
04/06/2014  05:39:00      -19.794       -5.680       -3.094       24.673       22.892       12.124      608.746      524.030      146.990        0.086        0.064       20.593       10.297        0.250      334.051        3.769      866.566
04/06/2014  05:40:00      -33.221      -26.594        6.367       44.928       27.807       26.857     2018.547      773.205      721.307        0.268        0.176       42.554       24.786        0.339      333.841        3.421      866.583
04/06/2014  05:41:00      -36.791        4.859       -6.935       21.071       32.192       11.968      443.994     1036.333      143.234        0.152        0.081       37.110       11.734        0.100      333.738        3.250      866.620
04/06/2014  05:42:00        5.137       57.166       -1.977       17.644       31.707       11.727      311.322     1005.365      137.524        0.238        0.073       57.396        9.623        0.028      334.260        4.116      866.648
04/06/2014  05:43:00       37.511       60.655       -1.760       16.258       22.667       15.394      264.308      513.782      236.975        0.305        0.051       71.316       11.091        0.024      334.361        4.283      866.652
04/06/2014  05:44:00       14.123       57.489      -10.326       19.821       17.838        9.327      392.859      318.193       86.997        0.220        0.040       59.198        7.490        0.016      334.397        4.342      866.661
04/06/2014  05:45:00      -79.567      -21.297      -10.384       54.722       38.728       21.059     2994.509     1499.834      443.498        0.591        0.247       82.368       18.933        0.053      334.111        3.867      866.676
04/06/2014  05:46:00     -128.142      -79.571      -10.213       77.264       41.865       27.212     5969.670     1752.673      740.514        1.566        0.423      150.837       15.348        0.010      333.799        3.350      866.676
04/06/2014  05:47:00     -182.002      -64.320       -8.020       50.022       44.823       28.692     2502.207     2009.064      823.254        2.133        0.267      193.033       21.672        0.013      333.704        3.191      866.684
04/06/2014  05:48:00      -69.479        1.705        2.111       44.667       22.470       22.165     1995.168      504.901      491.306        0.391        0.150       69.500       21.770        0.098      333.711        3.204      866.673
04/06/2014  05:49:00      -30.373        2.297       -1.611       11.455       10.807       10.083      131.225      116.797      101.666        0.064        0.017       30.460        7.888        0.067      333.767        3.295      866.663
04/06/2014  05:50:00      -29.482       -5.213       -5.199       10.311        9.718        4.929      106.321       94.436       24.293        0.057        0.011       29.939        2.607        0.008      334.119        3.883      866.671
04/06/2014  05:51:00      -74.440      -21.516      -14.815       24.322       28.074       14.805      591.536      788.152      219.175        0.391        0.080       77.487        9.298        0.014      333.763        3.291      866.694
04/06/2014  05:52:00      -64.894      -54.905       -2.016       48.779       27.060       27.747     2379.353      732.238      769.921        0.555        0.194       85.005       29.301        0.119      333.679        3.151      866.717
04/06/2014  05:53:00      -99.048      -57.276       -4.888       37.500       33.961       22.291     1406.269     1153.359      496.892        0.809        0.153      114.416       18.341        0.026      333.753        3.274      866.728
04/06/2014  05:54:00      -71.388      -30.022       -4.221       25.309       17.284       12.946      640.524      298.735      167.601        0.356        0.055       77.444       14.047        0.033      333.792        3.341      866.721
04/06/2014  05:55:00      -35.494      -16.111       -1.027       14.943       13.911        9.868      223.285      193.527       97.386        0.102        0.026       38.979        5.736        0.022      333.838        3.416      866.708
04/06/2014  05:56:00       29.532        7.797        2.088       20.100        9.290        7.504      404.006       86.303       56.304        0.074        0.027       30.544        5.541        0.033      334.106        3.862      866.696
04/06/2014  05:57:00       57.768       35.709        6.359       10.669       13.126        8.821      113.818      172.297       77.815        0.251        0.018       67.914        7.127        0.011      334.042        3.754      866.689
04/06/2014  05:58:00       32.275       32.538       -0.306       18.857       10.541        8.246      355.587      111.110       67.998        0.132        0.027       45.830        7.266        0.025      334.139        3.915      866.690
04/06/2014  05:59:00      -10.395       12.653       -0.750       17.903       14.171        3.904      320.524      200.817       15.243        0.040        0.027       16.375        4.124        0.063      334.472        4.468      866.724
04/06/2014  06:00:00      -48.554      -14.524       -3.877       33.858       19.811        9.095     1146.351      392.481       82.721        0.210        0.081       50.680       12.005        0.056      333.883        3.493      866.766
04/06/2014  06:01:00       -1.596      -15.742       -8.398        7.626       14.808       13.300       58.152      219.274      176.877        0.039        0.023       15.822       11.436        0.522      334.003        3.689      866.792
04/06/2014  06:02:00       77.577       40.638       27.618       49.853       34.866       33.291     2485.366     1215.615     1108.270        0.662        0.240       87.576       23.453        0.072      333.967        3.629      866.779
04/06/2014  06:03:00       96.615       54.528        6.783       22.595       25.669       29.979      510.516      658.904      898.739        0.721        0.103      110.940       13.988        0.016      333.708        3.200      866.766
04/06/2014  06:04:00       77.210       37.641        5.664       21.611       21.072       16.668      467.028      444.038      277.807        0.430        0.059       85.896       10.009        0.014      333.791        3.337      866.767
04/06/2014  06:05:00       16.046       27.032       22.464       15.136       19.431       16.308      229.106      377.579      265.936        0.118        0.044       31.436       13.586        0.187      333.880        3.484      866.805
04/06/2014  06:06:00      -21.987       -6.355       -8.076       16.760       12.034       10.264      280.889      144.829      105.357        0.056        0.027       22.887        6.433        0.079      334.019        3.715      866.862
04/06/2014  06:07:00      -61.816        1.403       -9.050       17.976       11.543       13.359      323.154      133.234      178.461        0.227        0.032       61.832        9.941        0.026      333.804        3.359      866.910
04/06/2014  06:08:00      -51.035       -2.969       -9.956       10.338        9.821        8.039      106.864       96.444       64.631        0.149        0.013       51.121        3.128        0.004      333.827        3.398      866.919
04/06/2014  06:09:00      -39.545      -11.413       -6.376        8.563        7.574        5.802       73.321       57.369       33.659        0.095        0.008       41.159        3.433        0.007      333.923        3.559      866.897
04/06/2014  06:10:00      -45.193      -28.320       -0.634       16.956       10.472        8.867      287.497      109.654       78.632        0.166        0.024       53.333        6.772        0.016      334.012        3.705      866.871
04/06/2014  06:11:00      -48.089      -20.124        4.967       15.368       12.668       11.235      236.163      160.474      126.235        0.163        0.026       52.131        8.273        0.025      333.945        3.593      866.848
04/06/2014  06:12:00      -80.332      -54.109       -2.449       29.245       21.002       13.756      855.282      441.084      189.231        0.544        0.074       96.855        8.026        0.007      333.886        3.495      866.829
04/06/2014  06:13:00      -99.356      -52.686       -0.096       22.389       19.793       12.609      501.287      391.777      158.977        0.685        0.053      112.461        5.297        0.002      333.927        3.563      866.831
04/06/2014  06:14:00     -102.093       -3.523       -3.017       23.913       32.606       13.185      571.818     1063.177      173.844        0.613        0.090      102.154       10.981        0.012      333.903        3.523      866.863
04/06/2014  06:15:00      -78.331       10.705       -9.474       30.646       22.678       16.366      939.169      514.304      267.830        0.403        0.086       79.059       12.173        0.024      333.787        3.331      866.927
04/06/2014  06:16:00      -55.977       38.355      -10.465       32.740       26.708       17.043     1071.882      713.315      290.453        0.339        0.104       67.857       16.773        0.061      333.789        3.335      866.973
04/06/2014  06:17:00       12.172       33.884        5.423       30.702       21.801       15.872      942.641      475.273      251.907        0.150        0.083       36.004        8.561        0.057      333.902        3.521      867.005
04/06/2014  06:18:00       41.381       56.628       -5.795       14.831       22.156       15.519      219.944      490.880      240.846        0.295        0.048       70.136        7.942        0.013      333.799        3.349      867.039
04/06/2014  06:19:00       37.961       29.573        0.421       12.640       12.490       13.361      159.766      156.006      178.528        0.140        0.025       48.121        9.763        0.041      333.702        3.188      867.066
04/06/2014  06:20:00       16.161       22.984       -9.391       21.064        9.297        5.004      443.698       86.443       25.039        0.072        0.028       28.097        6.351        0.051      333.751        3.272      867.066
04/06/2014  06:21:00      -29.636        4.638       -9.022       12.139        7.854        6.776      147.361       61.688       45.921        0.062        0.013       29.996        4.769        0.025      333.868        3.462      867.058
04/06/2014  06:22:00      -85.873       18.599      -11.430       10.773       10.621        9.772      116.055      112.811       95.497        0.409        0.016       87.864        3.412        0.002      333.697        3.182      867.059
04/06/2014  06:23:00      -79.361        8.180      -10.755       24.632       16.173       10.994      606.712      261.570      120.878        0.373        0.049       79.781       11.627        0.021      333.669        3.134      867.072
04/06/2014  06:24:00      -18.523      -19.749       -2.971       13.419       16.321        8.154      180.080      266.382       66.480        0.063        0.026       27.077        4.224        0.024      333.766        3.298      867.068
04/06/2014  06:25:00       -6.789      -36.830       -6.570       15.789       18.385       14.183      249.291      338.018      201.158        0.112        0.039       37.451        6.940        0.034      333.857        3.447      867.046
04/06/2014  06:26:00      -75.745      -35.589       -7.040       40.840       17.823       17.025     1667.873      317.655      289.834        0.466        0.114       83.690       21.106        0.064      333.738        3.250      867.069
04/06/2014  06:27:00     -111.324      -23.571      -12.671       25.758       21.473       11.982      663.482      461.069      143.560        0.719        0.063      113.792       10.801        0.009      333.791        3.339      867.121
04/06/2014  06:28:00      -94.350       -4.574      -14.065       19.013       13.586       11.469      361.504      184.573      131.542        0.490        0.034       94.461       10.527        0.012      333.751        3.272      867.179
04/06/2014  06:29:00      -50.433      -11.235       -0.543       29.103       25.603       15.904      847.005      655.508      252.944        0.221        0.088       51.670       15.289        0.088      333.857        3.448      867.195
04/06/2014  06:30:00      -50.898      -13.290       -2.002       22.289       20.748       13.807      496.821      430.461      190.628        0.194        0.056       52.605        9.280        0.031      333.881        3.488      867.180
04/06/2014  06:31:00      -66.599      -24.825      -10.715       15.509       15.986        9.594      240.541      255.556       92.037        0.288        0.029       71.075        8.833        0.015      333.969        3.633      867.172
04/06/2014  06:32:00      -78.896      -29.726       -3.275       14.927       15.365       10.325      222.825      236.069      106.603        0.384        0.028       84.310        6.874        0.007      334.062        3.788      867.169
04/06/2014  06:33:00      -57.709      -46.028       -2.375       23.584       16.736       12.809      556.193      280.096      164.081        0.323        0.050       73.817        9.243        0.016      334.118        3.879      867.174
04/06/2014  06:34:00      -53.448      -42.417       -1.904       15.701       12.126        9.772      246.512      147.037       95.501        0.257        0.024       68.234        6.476        0.009      334.117        3.878      867.173
04/06/2014  06:35:00      -72.560      -25.791       -3.448       12.910       11.865        5.635      166.671      140.777       31.750        0.314        0.017       77.007        6.224        0.007      334.154        3.939      867.181
04/06/2014  06:36:00      -78.069       -1.114       -6.761       23.981       16.164       12.806      575.078      261.280      163.992        0.357        0.050       78.077       13.121        0.028      334.058        3.781      867.205
04/06/2014  06:37:00      -47.061       -8.018       -4.510       27.715       17.518       13.982      768.122      306.876      195.503        0.178        0.064       47.740       14.162        0.088      334.065        3.792      867.230
04/06/2014  06:38:00       -6.808       -1.435        0.758       12.388       13.531       10.577      153.453      183.086      111.878        0.025        0.022        6.957       10.632        2.335      334.149        3.931      867.247
04/06/2014  06:39:00       -1.814      -11.371        1.583        9.919        9.120        9.507       98.386       83.171       90.387        0.020        0.014       11.515        7.846        0.464      334.190        3.999      867.262
04/06/2014  06:40:00        3.419        1.891        8.030       10.562        4.057        6.414      111.564       16.460       41.141        0.012        0.008        3.907        5.438        1.937      334.277        4.144      867.291
04/06/2014  06:41:00      -19.610        6.714       -1.934       10.336        7.602        6.660      106.837       57.787       44.360        0.032        0.010       20.728        4.911        0.056      334.403        4.356      867.309
04/06/2014  06:42:00      -51.093       -6.386       -9.990       12.429        6.721        8.686      154.492       45.167       75.446        0.151        0.014       51.490        6.315        0.015      334.183        3.989      867.318
04/06/2014  06:43:00      -22.006       -9.426       -6.906       13.591        7.072        5.472      184.708       50.011       29.938        0.044        0.013       23.939        6.318        0.070      334.171        3.967      867.329
04/06/2014  06:44:00       14.735       11.793        5.258       15.902       17.878       10.962      252.888      319.630      120.160        0.054        0.035       18.873       11.202        0.352      334.250        4.100      867.338
04/06/2014  06:45:00       48.640       34.614       10.908       10.510        6.962        7.200      110.452       48.466       51.834        0.195        0.011       59.699        4.071        0.005      334.230        4.064      867.346
04/06/2014  06:46:00       33.704       20.691       -0.451       13.352        7.389        7.919      178.268       54.594       62.705        0.093        0.015       39.549        4.450        0.013      334.348        4.261      867.359
04/06/2014  06:47:00       10.916       10.521        2.377        6.287        7.066        8.907       39.522       49.934       79.331        0.020        0.008       15.161        6.214        0.168      334.313        4.205      867.381
04/06/2014  06:48:00       19.460       16.679        1.941        7.967        6.669        7.524       63.479       44.477       56.615        0.041        0.008       25.629        2.264        0.008      334.275        4.141      867.397
04/06/2014  06:49:00       35.715       24.984        4.603       15.050        6.463        6.682      226.492       41.773       44.654        0.112        0.016       43.586        5.025        0.013      334.391        4.336      867.413
04/06/2014  06:50:00       48.713       20.161        7.094        9.721        9.948        8.229       94.497       98.960       67.722        0.155        0.013       52.720        6.027        0.013      334.429        4.397      867.393
04/06/2014  06:51:00       23.395        1.698        8.653       26.381        8.485       11.208      695.972       71.999      125.615        0.076        0.045       23.456        9.266        0.156      334.450        4.432      867.369
04/06/2014  06:52:00      -26.800       -4.057       -4.096       22.817       11.594        9.071      520.616      134.413       82.277        0.074        0.037       27.105        8.803        0.105      334.416        4.376      867.353
04/06/2014  06:53:00      -45.745      -32.389        0.836       31.508       24.034       15.448      992.746      577.618      238.626        0.248        0.090       56.050       13.712        0.060      334.371        4.301      867.347
04/06/2014  06:54:00       -6.961      -11.440       12.116       20.698       15.611       17.956      428.394      243.713      322.426        0.066        0.050       13.392       16.331        1.487      334.521        4.549      867.345
04/06/2014  06:55:00      -66.182      -36.433        3.736       45.046       26.046       19.406     2029.176      678.369      376.605        0.440        0.154       75.547       18.537        0.060      334.401        4.351      867.363
04/06/2014  06:56:00      -18.341      -19.166       11.979       30.858       19.995       17.760      952.232      399.795      315.408        0.126        0.083       26.528       16.705        0.397      334.538        4.576      867.399
04/06/2014  06:57:00      -27.364      -22.190       10.154       29.770       21.612       16.138      886.259      467.091      260.446        0.148        0.081       35.231       16.683        0.224      334.569        4.629      867.420
04/06/2014  06:58:00      -80.242      -54.302       -6.404       21.724       19.023       12.649      471.914      361.881      160.009        0.521        0.050       96.890       11.995        0.015      334.539        4.578      867.436
04/06/2014  06:59:00      -95.037      -26.846        1.225       31.425       23.600       18.368      987.503      556.976      337.397        0.582        0.094       98.756       15.071        0.023      334.547        4.592      867.432
04/06/2014  07:00:00      -86.321      -39.020       -0.198       25.296       27.862       19.278      639.904      776.317      371.651        0.538        0.089       94.731       14.760        0.024      334.543        4.583      867.427
04/06/2014  07:01:00      -95.491      -46.781      -13.261       17.171       16.141       11.403      294.855      260.525      130.031        0.608        0.034      106.334        2.134        0.000      334.558        4.609      867.427
04/06/2014  07:02:00     -112.576      -41.529       -4.097       22.373       26.116       16.188      500.546      682.068      262.045        0.793        0.072      119.992        8.834        0.005      334.499        4.513      867.432
04/06/2014  07:03:00     -126.198      -70.654       -8.009       32.896       30.022       18.718     1082.124      901.310      350.374        1.166        0.117      144.630       13.192        0.008      334.544        4.586      867.421
04/06/2014  07:04:00     -141.543      -55.739       -0.874       38.213       28.367       19.350     1460.243      804.691      374.421        1.289        0.132      152.122       17.963        0.014      334.548        4.593      867.409
04/06/2014  07:05:00     -133.325      -47.622       -1.517       42.378       41.347       25.912     1795.879     1709.535      671.418        1.211        0.209      141.575       20.733        0.021      334.536        4.573      867.420
04/06/2014  07:06:00     -119.330      -21.231        5.208       59.772       40.611       29.063     3572.726     1649.214      844.667        1.039        0.303      121.204       34.036        0.079      334.510        4.531      867.433
04/06/2014  07:07:00     -151.838      -53.208       -1.167       60.372       52.765       33.554     3644.828     2784.185     1125.903        1.672        0.378      160.891       31.123        0.037      334.527        4.556      867.444
04/06/2014  07:08:00     -130.182      -48.732        3.810       61.915       56.141       30.418     3833.453     3151.839      925.237        1.362        0.396      139.004       28.224        0.041      334.558        4.610      867.453
04/06/2014  07:09:00     -130.074      -40.577        8.777       65.768       56.176       35.199     4325.389     3155.729     1238.941        1.368        0.436      136.256       39.785        0.085      334.524        4.553      867.468
04/06/2014  07:10:00     -199.312      -67.016       -2.780       68.150       47.497       31.055     4644.436     2255.953      964.419        2.604        0.393      210.277       35.104        0.028      334.518        4.540      867.481
04/06/2014  07:11:00     -186.471      -85.308       -9.563       43.735       44.722       25.210     1912.748     2000.052      635.565        2.334        0.227      205.058       19.872        0.009      334.508        4.523      867.497
04/06/2014  07:12:00     -116.060      -85.889       -2.172       51.508       26.715       24.847     2653.051      713.667      617.359        1.242        0.199      144.385       17.768        0.015      334.543        4.583      867.484
04/06/2014  07:13:00      -98.012      -85.581       -4.717       38.578       38.385       32.377     1488.262     1473.440     1048.262        1.048        0.200      130.117       24.812        0.036      334.581        4.648      867.478
04/06/2014  07:14:00      -87.311      -51.892        2.238       46.745       38.349       20.445     2185.101     1470.632      417.982        0.720        0.204      101.568       21.975        0.047      334.610        4.697      867.495
04/06/2014  07:15:00      -42.476      -40.084        6.600       38.651       44.286       23.052     1493.871     1961.290      531.392        0.372        0.199       58.403       20.362        0.122      334.701        4.846      867.507
04/06/2014  07:16:00      -91.610      -49.576       -3.179       23.646       38.087       22.386      559.156     1450.619      501.117        0.669        0.126      104.164       12.927        0.015      334.718        4.876      867.518
04/06/2014  07:17:00      -76.759      -38.719        4.712       49.758       29.791       24.520     2475.853      887.475      601.228        0.569        0.198       85.971       22.960        0.071      334.751        4.931      867.547
04/06/2014  07:18:00      -95.164      -62.176      -10.024       44.190       43.615       21.321     1952.736     1902.266      454.605        0.867        0.215      113.675       19.904        0.031      334.759        4.943      867.562
04/06/2014  07:19:00      -12.218      -93.420       11.220       15.135       56.120       13.006      229.066     3149.505      169.148        0.627        0.177       94.215       14.125        0.022      334.802        5.013      867.577
04/06/2014  07:20:00      -48.993      -51.761       -8.535       28.200       38.502       11.643      795.212     1482.424      135.571        0.378        0.121       71.270        8.842        0.015      334.846        5.087      867.585
04/06/2014  07:21:00        1.572       13.445        7.914       47.810       22.454       17.318     2285.750      504.160      299.896        0.167        0.154       13.536       16.200        1.432      335.031        5.397      867.587
04/06/2014  07:22:00      -47.393       -9.938       -2.325       22.852       22.103       19.115      522.200      488.536      365.384        0.186        0.069       48.424        9.402        0.038      335.005        5.352      867.607
04/06/2014  07:23:00      -21.476        9.463        0.645       15.087       12.491       18.678      227.625      156.035      348.878        0.064        0.037       23.469       10.275        0.192      335.293        5.830      867.647
04/06/2014  07:24:00      -40.361      -29.556       -0.811       18.906       19.533       13.258      357.445      381.542      175.778        0.171        0.046       50.025        3.490        0.005      335.063        5.450      867.674
04/06/2014  07:25:00      -43.033      -22.257       -2.343       29.828       29.434       19.186      889.733      866.342      368.094        0.224        0.106       48.448       15.448        0.102      334.975        5.303      867.709
04/06/2014  07:26:00      -58.498      -48.414        1.150       37.855       25.884       16.081     1433.022      670.002      258.600        0.406        0.118       75.934        9.585        0.016      334.960        5.279      867.721
04/06/2014  07:27:00      -79.461      -81.862       -1.092       26.534       24.984       19.996      704.047      624.179      399.857        0.737        0.086      114.085       15.056        0.017      334.843        5.083      867.745
04/06/2014  07:28:00      -74.627      -70.903       -3.306       25.198       28.447       17.114      634.939      809.253      292.879        0.617        0.087      102.939       13.700        0.018      334.906        5.187      867.761
04/06/2014  07:29:00      -74.627      -81.909       -2.248       14.529       18.347       12.910      211.093      336.626      166.670        0.650        0.036      110.807        6.664        0.004      334.900        5.177      867.778
04/06/2014  07:30:00      -47.510      -54.880       -5.466       18.939       19.339       12.673      358.702      373.997      160.597        0.310        0.045       72.588        9.499        0.017      334.974        5.302      867.782
04/06/2014  07:31:00      -12.041      -52.216        4.046       17.938       12.162       10.967      321.788      147.921      120.275        0.174        0.029       53.586        8.366        0.024      335.019        5.375      867.802
04/06/2014  07:32:00      -12.786      -44.427        1.425       22.163       11.680       11.011      491.186      136.433      121.237        0.144        0.037       46.230       10.501        0.052      335.090        5.493      867.804
04/06/2014  07:33:00      -42.044      -44.418       -5.349       16.066       17.992        7.740      258.121      323.704       59.913        0.221        0.032       61.161        6.647        0.012      335.098        5.508      867.822
04/06/2014  07:34:00      -59.055      -37.680       -9.393       18.156       13.880       11.619      329.651      192.647      135.011        0.283        0.033       70.052        9.834        0.020      335.141        5.579      867.839
04/06/2014  07:35:00      -15.067      -18.010      -12.182       16.163       24.602       11.444      261.246      605.266      130.973        0.085        0.050       23.481       12.556        0.286      335.199        5.673      867.863
04/06/2014  07:36:00      -16.554       13.454       -2.048       21.969       24.223       13.533      482.656      586.765      183.133        0.086        0.063       21.332       12.413        0.339      335.326        5.884      867.888
04/06/2014  07:37:00       -4.433       13.069        4.194       21.612       15.801       17.869      467.076      249.678      319.291        0.062        0.052       13.801       17.531        1.614      335.460        6.110      867.900
04/06/2014  07:38:00       18.034       23.891        7.514       27.763       17.472       21.594      770.808      305.286      466.299        0.125        0.077       29.934       18.210        0.370      335.541        6.243      867.912
04/06/2014  07:39:00       73.234       44.271        5.456       21.069       20.991       20.235      443.894      440.633      409.453        0.432        0.065       85.575       15.389        0.032      335.427        6.051      867.930
04/06/2014  07:40:00       77.508       47.734        8.792       23.335       20.358       23.752      544.519      414.464      564.153        0.494        0.076       91.027       13.409        0.022      335.449        6.090      867.959
04/06/2014  07:41:00       82.656       66.790       13.053       26.920       34.124       26.868      724.697     1164.467      721.866        0.704        0.131      106.268       15.128        0.020      335.451        6.093      867.979
04/06/2014  07:42:00       70.148       69.538       70.388       57.025       37.258       45.893     3251.885     1388.135     2106.182        1.073        0.337       98.774       41.092        0.173      335.629        6.391      867.993
04/06/2014  07:43:00       84.250       95.886       81.896       64.864       57.248       58.321     4207.353     3277.327     3401.386        1.694        0.544      127.641       53.686        0.177      335.414        6.031      868.007
04/06/2014  07:44:00       94.583       59.553       80.034       76.550       54.551       43.674     5859.949     2975.779     1907.383        1.482        0.537      111.770       40.580        0.132      335.483        6.145      868.025
04/06/2014  07:45:00      102.301       81.965       60.993       62.426       43.677       48.117     3896.970     1907.695     2315.207        1.451        0.406      131.087       41.189        0.099      335.394        5.998      868.033
04/06/2014  07:46:00       82.898       42.755       17.557       63.437       43.896       41.071     4024.210     1926.855     1686.805        0.832        0.382       93.274       22.195        0.057      335.419        6.040      868.048
04/06/2014  07:47:00       95.429       69.739       43.847       53.482       42.035       36.743     2860.358     1766.911     1350.070        1.093        0.299      118.196       32.280        0.075      335.493        6.163      868.057
04/06/2014  07:48:00       94.623       67.151        8.687       33.676       29.375       26.242     1134.050      862.895      688.617        0.811        0.134      116.029       18.997        0.027      335.284        5.814      868.079
04/06/2014  07:49:00       81.986       71.166       19.858       37.057       23.468       25.308     1373.186      550.766      640.510        0.737        0.128      108.565       12.087        0.012      335.419        6.039      868.096
04/06/2014  07:50:00       66.975       40.450       15.395       33.676       28.611       31.259     1134.096      818.586      977.130        0.464        0.146       78.242       15.840        0.041      335.590        6.325      868.125
04/06/2014  07:51:00       71.647       52.782       29.450       63.686       27.625       29.142     4055.902      763.144      849.237        0.723        0.283       88.990       28.090        0.100      335.654        6.432      868.167
04/06/2014  07:52:00       86.116       68.244       29.721       50.483       36.498       34.835     2548.557     1332.135     1213.461        0.902        0.255      109.878       28.651        0.068      335.706        6.518      868.193
04/06/2014  07:53:00       27.614       85.249      105.158       53.105       73.464       52.237     2820.101     5397.009     2728.747        1.501        0.547       89.610       56.909        0.403      335.796        6.668      868.207
04/06/2014  07:54:00       62.323      111.308       85.640       70.810       53.674       46.536     5014.124     2880.917     2165.621        1.683        0.503      127.568       40.025        0.098      335.516        6.201      868.223
04/06/2014  07:55:00       50.759       92.546      100.127       80.953       58.325       57.679     6553.446     3401.829     3326.912        1.722        0.664      105.552       53.086        0.253      335.564        6.282      868.247
04/06/2014  07:56:00      146.395      100.648       49.749       61.569       59.125       47.588     3790.720     3495.726     2264.659        2.179        0.478      177.656       34.224        0.037      335.423        6.045      868.266
04/06/2014  07:57:00       41.255      121.833      138.711       67.294       63.485       44.871     4528.494     4030.334     2013.403        2.318        0.529      128.629       42.310        0.108      335.511        6.191      868.273
04/06/2014  07:58:00       39.045      131.653      127.257       56.346       59.233       30.802     3174.908     3508.504      948.752        2.134        0.382      137.320       33.118        0.058      335.325        5.882      868.287
04/06/2014  07:59:00      123.763      112.536       69.074       62.099       40.092       51.329     3856.265     1607.336     2634.675        2.042        0.405      167.277       35.759        0.046      335.273        5.795      868.313
04/06/2014  08:00:00       62.629       94.325       79.531       37.079       31.737       27.623     1374.827     1007.252      763.027        1.114        0.157      113.224       19.426        0.029      335.249        5.756      868.337
04/06/2014  08:01:00       47.771       70.603       70.536       50.440       36.794       26.464     2544.170     1353.833      700.318        0.842        0.230       85.245       22.006        0.067      335.345        5.915      868.329
04/06/2014  08:02:00       70.969       50.057       44.545       37.639       31.106       31.179     1416.727      967.574      972.105        0.644        0.168       86.847       26.335        0.092      335.391        5.992      868.325
04/06/2014  08:03:00       79.971       60.948       22.167       37.752       29.146       26.372     1425.185      849.478      695.505        0.679        0.149      100.548       19.991        0.040      335.379        5.974      868.314
04/06/2014  08:04:00       70.348       72.814       56.459       46.573       31.539       35.613     2169.079      994.693     1268.301        0.893        0.222      101.246       26.591        0.069      335.536        6.235      868.321
04/06/2014  08:05:00       40.898       63.888       65.320       35.627       31.434       26.766     1269.287      988.102      716.419        0.650        0.149       75.857       15.827        0.044      335.567        6.285      868.328
04/06/2014  08:06:00      116.110       73.266       30.792       30.260       23.689       33.249      915.669      561.164     1105.516        1.119        0.129      137.293       13.783        0.010      335.393        5.996      868.344
04/06/2014  08:07:00       79.940       82.400       54.323       45.553       29.120       27.279     2075.043      847.977      744.141        0.990        0.183      114.805       20.518        0.032      335.470        6.125      868.354
04/06/2014  08:08:00       80.788       40.053       48.282       32.580       35.180       30.067     1061.457     1237.652      904.045        0.683        0.160       90.171       16.064        0.032      335.461        6.109      868.379
04/06/2014  08:09:00       23.594       80.846       82.789       44.589       43.988       33.916     1988.140     1934.977     1150.261        0.951        0.254       84.218       33.667        0.160      335.701        6.512      868.371
04/06/2014  08:10:00       39.660       41.860       67.303       46.207       47.532       20.815     2135.079     2259.292      433.248        0.634        0.241       57.664       19.255        0.111      335.732        6.563      868.376
04/06/2014  08:11:00       33.577      -33.092       28.765       35.203       46.224       37.895     1239.269     2136.643     1436.043        0.393        0.241       47.143       28.561        0.367      335.877        6.802      868.380
04/06/2014  08:12:00       41.241       65.370       82.889       55.103       61.674       38.030     3036.359     3803.708     1446.280        1.056        0.414       77.292       39.694        0.264      335.809        6.691      868.406
04/06/2014  08:13:00       76.166      100.846       98.086       73.226       50.863       46.104     5361.985     2587.080     2125.620        1.783        0.504      126.377       43.321        0.118      335.688        6.487      868.430
04/06/2014  08:14:00       92.570       51.689       55.562       66.599       76.235       66.073     4435.439     5811.760     4365.616        1.447        0.731      106.023       51.806        0.239      335.597        6.337      868.475
04/06/2014  08:15:00       57.558       42.116       42.719       63.989       42.956       42.548     4094.619     1845.180     1810.295        0.733        0.388       71.321       29.427        0.170      335.812        6.695      868.512
04/06/2014  08:16:00       31.475       45.062       54.285       48.222       42.696       47.313     2325.395     1822.962     2238.478        0.618        0.319       54.966       12.828        0.054      335.947        6.919      868.520
04/06/2014  08:17:00       74.383       84.363       75.479       76.281       68.036       58.434     5818.833     4628.929     3414.492        1.610        0.693      112.472       54.577        0.235      335.744        6.581      868.536
04/06/2014  08:18:00       98.492       77.887       44.389       66.940       59.010       65.407     4480.976     3482.215     4278.110        1.499        0.612      125.567       55.483        0.195      335.522        6.211      868.544
04/06/2014  08:19:00       97.245       41.060       15.791       66.800       45.342       37.492     4462.244     2055.895     1405.645        0.966        0.396      105.558       25.206        0.057      335.506        6.186      868.536
04/06/2014  08:20:00       48.457       45.288       31.714       37.055       31.606       33.878     1373.058      998.938     1147.686        0.446        0.176       66.326       26.984        0.166      335.650        6.425      868.518
04/06/2014  08:21:00       26.846       -0.476        3.733       29.881       34.233       24.611      892.858     1171.869      605.696        0.170        0.134       26.851        6.830        0.065      335.812        6.694      868.516
04/06/2014  08:22:00      106.129       85.079       52.647       47.196       35.038       40.828     2227.497     1227.685     1666.933        1.320        0.256      136.021       25.402        0.035      335.500        6.175      868.523
04/06/2014  08:23:00       10.057       14.316       59.764       29.661       51.077       21.192      879.755     2608.873      449.104        0.391        0.197       17.496       18.865        1.163      335.850        6.757      868.530
04/06/2014  08:24:00       67.832       46.897       45.664       87.201       39.855       38.011     7604.006     1588.391     1444.828        0.976        0.532       82.465       42.301        0.263      335.858        6.772      868.554
04/06/2014  08:25:00      133.974       72.665        7.665       60.706       54.546       35.449     3685.237     2975.232     1256.615        1.560        0.396      152.412       29.151        0.037      335.522        6.212      868.578
04/06/2014  08:26:00      106.894       88.574       43.366       59.687       42.702       36.924     3562.480     1823.433     1363.414        1.395        0.337      138.823       33.243        0.057      335.503        6.181      868.594
04/06/2014  08:27:00       61.534       88.747       76.864       65.155       44.326       38.755     4245.144     1964.799     1501.953        1.264        0.386      107.993       38.097        0.124      335.672        6.462      868.572
04/06/2014  08:28:00       29.760       66.533       84.558       45.948       46.677       33.173     2111.202     2178.728     1100.428        0.893        0.270       72.886       33.591        0.212      335.706        6.519      868.572
04/06/2014  08:29:00       72.999       71.800       54.471       61.082       64.266       41.765     3731.062     4130.134     1744.337        1.153        0.480      102.392       32.047        0.098      335.537        6.236      868.568
04/06/2014  08:30:00       99.550       71.436       60.011       68.108       61.132       48.009     4638.703     3737.083     2304.870        1.465        0.534      122.528       42.676        0.121      335.651        6.428      868.587
04/06/2014  08:31:00      100.330       77.868       58.386       59.902       43.373       45.785     3588.217     1881.220     2096.257        1.355        0.378      127.002       33.173        0.068      335.714        6.532      868.596
04/06/2014  08:32:00      104.290       55.797       53.109       68.348       43.376       44.228     4671.432     1881.452     1956.139        1.266        0.425      118.278       36.064        0.093      335.739        6.574      868.604
04/06/2014  08:33:00      152.463       91.846       11.620       62.585       51.587       42.109     3916.822     2661.248     1773.206        2.008        0.418      177.991       32.256        0.033      335.580        6.307      868.594
04/06/2014  08:34:00       78.510       31.434       22.198       67.678       35.389       35.028     4580.303     1252.384     1226.937        0.735        0.353       84.569       23.059        0.074      335.794        6.667      868.566
04/06/2014  08:35:00       91.388       54.256       16.955       45.612       41.758       38.150     2080.425     1743.763     1455.393        0.843        0.264      106.280       17.844        0.028      335.709        6.524      868.551
04/06/2014  08:36:00      126.711       72.955        9.275       57.415       58.366       31.119     3296.470     3406.556      968.372        1.457        0.384      146.212       24.867        0.029      335.704        6.515      868.541
04/06/2014  08:37:00       80.581       31.047        6.744       48.658       35.520       32.862     2367.556     1261.686     1079.883        0.610        0.235       86.355       28.351        0.108      335.754        6.597      868.531
04/06/2014  08:38:00       44.096       43.889       37.400       59.323       35.723       34.189     3519.261     1276.117     1168.918        0.562        0.298       62.215       30.225        0.236      335.908        6.854      868.510
04/06/2014  08:39:00       12.261       11.348       53.918       29.162       40.689       18.983      850.394     1655.617      360.346        0.303        0.143       16.706       10.099        0.365      336.087        7.153      868.507
04/06/2014  08:40:00       31.836       42.640       37.422       40.673       39.844       29.505     1654.267     1587.532      870.552        0.417        0.206       53.213       21.402        0.162      335.967        6.953      868.508
04/06/2014  08:41:00        4.803       19.133       32.190       21.013       30.036       23.133      441.561      902.162      535.151        0.165        0.094       19.727       18.725        0.901      336.178        7.305      868.500
04/06/2014  08:42:00       14.708       21.870       44.314       29.718       26.654       15.431      883.170      710.441      238.111        0.224        0.092       26.356       12.994        0.243      336.198        7.339      868.505
04/06/2014  08:43:00       38.589       68.562        4.575       35.480       26.333       29.332     1258.810      693.421      860.366        0.451        0.141       78.676       25.752        0.107      335.875        6.799      868.518
04/06/2014  08:44:00       50.290       42.044       33.612       39.711       23.964       31.593     1576.942      574.255      998.117        0.429        0.157       65.550       16.481        0.063      336.019        7.040      868.532
04/06/2014  08:45:00       48.178       26.355        4.104       31.128       28.290       16.480      968.983      800.333      271.604        0.254        0.102       54.915       12.681        0.053      335.827        6.719      868.542
04/06/2014  08:46:00       38.203       22.191        4.500       31.014       27.813       17.321      961.873      773.540      300.019        0.200        0.102       44.180       13.432        0.092      335.964        6.947      868.564
04/06/2014  08:47:00       87.534       67.785        3.618       39.837       39.622       35.952     1586.983     1569.900     1292.516        0.836        0.222      110.711       10.002        0.008      336.131        7.227      868.551
04/06/2014  08:48:00       31.731       44.840       23.665       34.269       53.157       35.970     1174.374     2825.654     1293.841        0.443        0.265       54.932       18.582        0.114      336.465        7.785      868.541
04/06/2014  08:49:00       94.162       64.130       15.600       46.986       50.177       42.575     2207.701     2517.779     1812.657        0.988        0.327      113.926       26.579        0.054      336.243        7.413      868.530
04/06/2014  08:50:00       61.907       25.633       12.314       54.700       39.929       33.079     2992.077     1594.301     1094.196        0.516        0.284       67.003       21.683        0.105      336.243        7.414      868.538
04/06/2014  08:51:00      107.013       49.561       16.260       53.714       33.572       34.425     2885.222     1127.070     1185.082        0.968        0.260      117.933       28.671        0.059      336.133        7.230      868.558
04/06/2014  08:52:00       36.129       64.630       56.654       37.520       37.074       25.299     1407.742     1374.477      640.061        0.606        0.171       74.043       15.422        0.043      336.404        7.682      868.581
04/06/2014  08:53:00       63.834       71.486       62.864       48.987       38.924       42.939     2399.744     1515.072     1843.731        0.945        0.288       95.839       15.712        0.027      336.353        7.597      868.588
04/06/2014  08:54:00       62.407       46.374       76.878       37.472       42.901       26.232     1404.116     1840.503      688.144        0.794        0.197       77.750       20.101        0.067      336.248        7.422      868.596
04/06/2014  08:55:00       62.550       61.578       56.335       39.871       21.698       35.228     1589.724      470.801     1241.023        0.709        0.165       87.774       23.902        0.074      336.053        7.097      868.595
04/06/2014  08:56:00       60.467       50.124       36.402       17.241       13.915       18.741      297.259      193.630      351.214        0.417        0.042       78.541       10.424        0.018      335.987        6.986      868.578
04/06/2014  08:57:00       17.646       33.913       23.647       30.714       27.760       18.154      943.361      770.610      329.577        0.203        0.102       38.229       19.910        0.271      336.251        7.426      868.554
04/06/2014  08:58:00       41.159      -29.959       17.287       35.334       42.049       29.718     1248.464     1768.140      883.145        0.339        0.195       50.908       30.716        0.364      336.339        7.574      868.531
04/06/2014  08:59:00       17.917       22.939       30.021       43.020       21.962       22.386     1850.757      482.324      501.153        0.229        0.142       29.106       14.148        0.236      336.572        7.962      868.523
04/06/2014  09:00:00       41.283       20.857       19.686       29.521       41.931       36.247      871.513     1758.173     1313.823        0.323        0.197       46.252       34.715        0.563      336.112        7.193      868.511
04/06/2014  09:01:00       42.452       25.616       20.673       27.821       30.215       23.696      773.991      912.959      561.486        0.257        0.112       49.582       17.298        0.122      336.384        7.648      868.510
04/06/2014  09:02:00       60.919       71.566       44.419       45.809       38.243       43.473     2098.507     1462.538     1889.901        0.813        0.273       93.983       31.913        0.115      336.473        7.800      868.513
04/06/2014  09:03:00       58.657       53.836       46.869       56.348       39.122       36.788     3175.062     1530.501     1353.338        0.730        0.303       79.618       33.741        0.180      336.416        7.704      868.526
04/06/2014  09:04:00       81.669       57.802       30.081       41.295       25.700       29.752     1705.284      660.473      885.189        0.708        0.163      100.055       15.753        0.025      336.363        7.614      868.530
04/06/2014  09:05:00        5.988        9.569       37.768       26.023       39.328       21.975      677.171     1546.713      482.890        0.213        0.135       11.289       19.480        2.978      336.803        8.349      868.490
04/06/2014  09:06:00       11.093       31.553       59.454       26.905       30.568       17.670      723.879      934.416      312.215        0.331        0.099       33.446       20.242        0.366      336.621        8.046      868.465
04/06/2014  09:07:00       17.704       19.741       47.530       42.153       23.590       18.151     1776.877      556.471      329.453        0.281        0.133       26.517       14.826        0.313      336.812        8.365      868.448
04/06/2014  09:08:00       36.045       14.656       25.300       34.168       27.454       39.173     1167.484      753.697     1534.507        0.280        0.173       38.911       23.618        0.368      336.531        7.897      868.468
04/06/2014  09:09:00       -3.566       28.727        0.470       15.774       14.652       12.661      248.804      214.674      160.311        0.073        0.031       28.947        5.728        0.039      336.580        7.978      868.474
04/06/2014  09:10:00      -41.285        9.352       -1.187       12.294       24.049       14.194      151.148      578.331      201.480        0.136        0.047       42.331       14.217        0.113      336.512        7.864      868.481
04/06/2014  09:11:00      -32.502      -25.103        2.776       23.106       18.659       14.593      533.876      348.159      212.960        0.139        0.055       41.068       12.012        0.086      336.631        8.063      868.454
04/06/2014  09:12:00        1.310      -52.654      -13.302       24.281       22.568       18.443      589.555      509.323      340.146        0.219        0.072       52.670       16.615        0.100      336.694        8.170      868.430
04/06/2014  09:13:00      -31.532        2.816        7.573       28.197       20.723       15.187      795.049      429.452      230.644        0.126        0.073       31.657       18.492        0.341      336.913        8.535      868.417
04/06/2014  09:14:00      -60.961      -29.120       -7.088       20.808       25.779       15.559      432.982      664.534      242.074        0.298        0.067       67.559        9.137        0.018      336.507        7.855      868.430
04/06/2014  09:15:00      -51.525       10.003       -1.792       15.157       12.634       12.700      229.731      159.606      161.287        0.165        0.028       52.487       10.689        0.041      336.525        7.886      868.450
04/06/2014  09:16:00      -30.571        4.900        3.300       23.500       24.209       24.562      552.256      586.071      603.310        0.136        0.087       30.961       21.705        0.491      336.816        8.373      868.464
04/06/2014  09:17:00      -51.969       -1.941       14.507       21.323       39.404       32.042      454.672     1552.699     1026.706        0.297        0.152       52.005       29.308        0.318      336.809        8.361      868.466
04/06/2014  09:18:00      -36.302       -4.963       20.957       40.660       19.406       17.184     1653.206      376.574      295.292        0.205        0.116       36.640       22.082        0.363      337.137        8.910      868.452
04/06/2014  09:19:00      -33.104       -6.001       11.222       34.373       31.075       20.426     1181.503      965.660      417.229        0.191        0.128       33.644       19.538        0.337      337.061        8.780      868.440
04/06/2014  09:20:00      -50.082      -77.241        0.921       34.767       37.517       18.987     1208.734     1407.529      360.524        0.573        0.149       92.056       18.660        0.041      336.743        8.250      868.424
04/06/2014  09:21:00      -78.727      -59.434      -11.109       25.043       24.778       17.341      627.174      613.970      300.710        0.570        0.077       98.642        9.589        0.009      336.616        8.039      868.397
04/06/2014  09:22:00      -69.115      -56.881       -2.089       34.956       44.868       21.130     1221.902     2013.140      446.457        0.585        0.184       89.511       13.567        0.023      336.726        8.223      868.388
04/06/2014  09:23:00      -66.303      -83.316      -12.522       58.074       51.290       21.540     3372.647     2630.709      463.951        0.898        0.323      106.478       18.001        0.029      336.786        8.322      868.397
04/06/2014  09:24:00      -57.481      -40.328       -4.649       22.040       32.001       18.776      485.782     1024.063      352.552        0.341        0.093       70.217       15.331        0.048      336.761        8.279      868.424
04/06/2014  09:25:00      -21.796        3.374       19.251       34.335       25.400       24.525     1178.859      645.176      601.478        0.164        0.121       22.056       23.820        1.166      337.313        9.203      868.440
04/06/2014  09:26:00       -2.827      -11.161       34.757       24.209       39.799       34.208      586.083     1583.953     1170.178        0.234        0.167       11.513       28.962        6.328      337.381        9.317      868.458
04/06/2014  09:27:00       -3.972       -6.783       47.374       27.744       63.866       46.022      769.736     4078.831     2118.039        0.463        0.348        7.861       49.373       39.452      337.387        9.326      868.447
04/06/2014  09:28:00      -15.335        3.800       28.615       16.141       26.770       23.784      260.521      716.621      565.660        0.131        0.077       15.799       22.080        1.953      337.598        9.680      868.447
04/06/2014  09:29:00      -31.312       31.786       14.002       24.915       16.881       27.540      620.735      284.979      758.427        0.193        0.083       44.618       21.077        0.223      337.420        9.381      868.444
04/06/2014  09:30:00        1.618        5.304       10.901       22.616       21.672       20.529      511.505      469.690      421.430        0.078        0.070        5.545        6.300        1.291      337.619        9.717      868.437
04/06/2014  09:31:00      -28.309      -16.686        5.901       19.654       23.953       13.369      386.288      573.731      178.730        0.113        0.057       32.861       10.402        0.100      337.344        9.256      868.437
04/06/2014  09:32:00      -17.266       -7.020        6.586       17.706       10.309       16.439      313.508      106.276      270.248        0.054        0.035       18.639       14.140        0.576      337.516        9.544      868.426
04/06/2014  09:33:00      -36.979      -12.220       -2.966       11.531       12.355       10.198      132.961      152.636      104.001        0.096        0.019       38.946        5.899        0.023      337.134        8.903      868.429
04/06/2014  09:34:00      -32.734      -68.217       -4.654       35.098       44.572       24.627     1231.864     1986.688      606.494        0.479        0.191       75.665       12.435        0.027      337.145        8.921      868.426
04/06/2014  09:35:00       40.097     -128.735       -6.996       50.726       58.079       34.929     2573.090     3373.205     1220.012        1.270        0.358      134.835       27.331        0.041      337.358        9.278      868.414
04/06/2014  09:36:00       42.603      -66.109      -12.172       44.944       58.660       39.936     2019.991     3441.024     1594.846        0.669        0.353       78.648       42.480        0.292      337.384        9.322      868.423
04/06/2014  09:37:00       27.477      -36.021        4.397       37.600       55.536       37.687     1413.742     3084.202     1420.301        0.399        0.296       45.304       38.079        0.706      337.740        9.919      868.425
04/06/2014  09:38:00       36.913       -7.926       24.321       48.115       52.674       44.401     2315.063     2774.542     1971.426        0.454        0.353       37.755       28.886        0.585      337.689        9.832      868.436
04/06/2014  09:39:00       97.697      -88.592       23.487       66.979       75.638       45.239     4486.171     5721.121     2046.553        1.510        0.613      131.883       48.561        0.136      337.416        9.375      868.436
04/06/2014  09:40:00       68.630       80.644       81.333       42.512       58.077       33.435     1807.260     3372.900     1117.891        1.206        0.315      105.894       11.369        0.012      337.455        9.441      868.432
04/06/2014  09:41:00       66.027       67.856       61.083       42.509       36.060       33.449     1807.056     1300.310     1118.820        0.846        0.211       94.679       16.540        0.031      337.286        9.158      868.431
04/06/2014  09:42:00       26.697       17.233       21.290       41.285       40.267       19.783     1704.446     1621.405      391.372        0.259        0.186       31.776       13.500        0.181      337.586        9.661      868.427
04/06/2014  09:43:00       37.389      -87.776       -1.967       64.534       53.564       41.972     4164.634     2869.124     1761.687        0.895        0.440       95.407       37.906        0.158      337.624        9.725      868.418
04/06/2014  09:44:00      110.510     -113.803      -16.636       58.858       52.032       38.270     3464.255     2707.364     1464.626        1.654        0.382      158.630       37.210        0.055      337.275        9.139      868.415
04/06/2014  09:45:00       90.488      -64.606       14.383       63.871       87.717       56.192     4079.461     7694.252     3157.515        1.375        0.747      111.185       61.739        0.308      337.703        9.854      868.393
04/06/2014  09:46:00       41.350      -22.132       31.760       31.888       49.787       33.132     1016.870     2478.789     1097.703        0.390        0.230       46.900       14.789        0.099      337.615        9.709      868.382
04/06/2014  09:47:00       27.390        8.020       34.134       21.403       43.786       23.109      458.075     1917.240      534.031        0.244        0.145       28.540       20.529        0.517      337.570        9.632      868.372
04/06/2014  09:48:00       47.446      -33.098       16.769       40.645       48.144       29.447     1651.985     2317.828      867.109        0.423        0.242       57.850       30.628        0.280      337.610        9.701      868.384
04/06/2014  09:49:00       21.551       32.309       27.161       23.777       31.012       28.090      565.330      961.767      789.045        0.228        0.116       38.837       17.580        0.205      337.614        9.709      868.386
04/06/2014  09:50:00       19.775       29.906       12.598       33.622       30.842       23.518     1130.421      951.255      553.116        0.204        0.132       35.852       19.280        0.289      337.844       10.092      868.411
04/06/2014  09:51:00       -9.850       -1.978       41.623       23.955       52.094       31.691      573.854     2713.836     1004.333        0.306        0.215       10.046       16.899        2.829      338.061       10.456      868.419
04/06/2014  09:52:00       89.374      -94.025      -24.252       41.448       69.962       42.236     1717.932     4894.669     1783.889        1.290        0.420      129.724       34.891        0.072      337.676        9.811      868.429
04/06/2014  09:53:00        8.434      -13.654       29.182       28.106       37.735       29.561      789.958     1423.896      873.863        0.210        0.154       16.049       20.043        1.560      338.036       10.415      868.415
04/06/2014  09:54:00       32.490       -4.434       43.118       43.571       89.603       45.702     1898.439     8028.773     2088.668        0.747        0.601       32.791       50.910        2.410      337.861       10.123      868.402
04/06/2014  09:55:00       82.376      114.237       92.347       72.849       59.378       54.909     5306.983     3525.691     3015.031        2.010        0.592      140.841       49.109        0.122      337.536        9.574      868.398
04/06/2014  09:56:00       50.240      -52.374       33.161       45.563      111.978       66.650     2076.011    12539.130     4442.239        1.271        0.953       72.575       79.046        1.186      337.682        9.821      868.400
04/06/2014  09:57:00       66.814     -111.064      -28.901       56.981       56.586       41.979     3246.838     3201.987     1762.273        1.292        0.411      129.612       36.525        0.079      337.738        9.916      868.419
04/06/2014  09:58:00       47.618      -42.287       -1.974       26.217       50.143       43.991      687.349     2514.334     1935.229        0.460        0.257       63.684       33.184        0.272      337.544        9.590      868.431
04/06/2014  09:59:00       56.321       47.485        2.954       21.515       16.540       21.354      462.910      273.573      455.996        0.331        0.060       73.667        8.874        0.015      337.284        9.155      868.429
04/06/2014  10:00:00       19.757       34.850       35.295       22.797       37.910       16.216      519.697     1437.195      262.947        0.253        0.111       40.060       14.146        0.125      337.683        9.823      868.425
04/06/2014  10:01:00       -2.442       39.735       82.979       20.449       42.953       27.918      418.155     1844.998      779.392        0.576        0.152       39.810       30.212        0.576      338.339       10.924      868.427
04/06/2014  10:02:00       44.680       86.413       97.507       53.459       36.199       18.876     2857.881     1310.343      356.301        1.175        0.226       97.280       16.769        0.030      337.817       10.047      868.429
04/06/2014  10:03:00       66.244      110.509       99.853       62.915       62.301       47.567     3958.319     3881.467     2262.599        1.833        0.505      128.843       38.819        0.091      337.904       10.193      868.416
04/06/2014  10:04:00      122.141       -7.191       67.436       84.763      110.997       75.336     7184.835    12320.316     5675.552        2.234        1.259      122.352       83.604        0.467      337.851       10.103      868.413
04/06/2014  10:05:00       75.501       82.464       93.715       67.661       70.532       63.057     4578.036     4974.712     3976.125        1.740        0.676      111.806       48.377        0.187      337.838       10.082      868.421
04/06/2014  10:06:00      129.379      116.796       96.172      104.918       80.496       65.264    11007.832     6479.537     4259.425        3.068        1.087      174.299       59.687        0.117      337.681        9.817      868.406
04/06/2014  10:07:00       92.102      104.862      117.594       77.716       62.848       54.333     6039.719     3949.853     2952.125        2.312        0.647      139.566       50.076        0.129      337.576        9.641      868.412
04/06/2014  10:08:00      100.902       85.373       63.765       60.364       48.897       58.988     3643.791     2390.876     3479.615        1.552        0.476      132.173       46.124        0.122      337.459        9.447      868.428
04/06/2014  10:09:00       63.891       42.420       34.411       46.264       39.240       41.447     2140.401     1539.749     1717.878        0.623        0.270       76.691       23.758        0.096      337.788        9.999      868.438
04/06/2014  10:10:00       37.361       58.456       31.085       36.032       31.467       35.971     1298.285      990.197     1293.932        0.468        0.179       69.375       14.209        0.042      337.559        9.614      868.448
04/06/2014  10:11:00       60.617       48.337       26.113       36.377       40.700       32.209     1323.256     1656.522     1037.446        0.535        0.201       77.530       28.405        0.134      337.673        9.806      868.464
04/06/2014  10:12:00       84.766       54.295       12.764       40.472       44.363       53.714     1637.953     1968.110     2885.195        0.839        0.325      100.664       35.238        0.123      337.565        9.625      868.472
04/06/2014  10:13:00       21.131       18.546        6.978       33.394       25.530       31.496     1115.165      651.772      991.969        0.180        0.138       28.116       24.741        0.774      337.867       10.130      868.488
04/06/2014  10:14:00        5.651       20.264       64.860       43.002       58.028       32.399     1849.140     3367.258     1049.670        0.546        0.313       21.038       21.886        1.082      338.667       11.473      868.494
04/06/2014  10:15:00       39.993       38.728       63.669       66.423       79.060       55.025     4412.065     6250.498     3027.696        1.042        0.685       55.672       48.826        0.769      338.368       10.971      868.503
04/06/2014  10:16:00       33.803       69.504       89.041       45.217       64.237       39.560     2044.594     4126.371     1565.004        1.082        0.387       77.288       39.252        0.258      338.390       11.009      868.512
04/06/2014  10:17:00       23.479       58.608       75.993       51.441       41.564       43.898     2646.214     1727.604     1927.048        0.803        0.315       63.136       39.799        0.397      338.479       11.158      868.508
04/06/2014  10:18:00       67.552       42.964       38.653       61.334       55.078       59.658     3761.800     3033.584     3559.118        0.913        0.518       80.058       46.654        0.340      338.154       10.612      868.501
04/06/2014  10:19:00      103.380       78.553       69.992       71.721       61.303       58.131     5143.912     3758.083     3379.168        1.702        0.614      129.838       43.950        0.115      337.998       10.351      868.500
04/06/2014  10:20:00      147.187       58.086       35.812       76.797       56.008       57.320     5897.752     3136.893     3285.607        1.932        0.616      158.234       50.958        0.104      338.110       10.539      868.506
04/06/2014  10:21:00       66.359       11.706       62.201       46.337       53.418       33.680     2147.126     2853.494     1134.327        0.727        0.307       67.384       20.938        0.097      338.408       11.040      868.529
04/06/2014  10:22:00       42.720       24.979       50.133       53.292       41.460       37.772     2839.991     1718.893     1426.718        0.547        0.299       49.487       32.026        0.419      338.235       10.750      868.534
04/06/2014  10:23:00       51.134      -73.264        8.542       56.896       59.572       41.307     3237.210     3548.883     1706.233        0.827        0.425       89.344       41.432        0.215      338.167       10.636      868.549
04/06/2014  10:24:00       55.771       20.850       50.897       72.120       58.391       37.877     5201.323     3409.478     1434.671        0.809        0.502       59.541       34.795        0.342      338.506       11.203      868.544
04/06/2014  10:25:00       57.615       10.502       28.670       62.422       51.481       39.777     3896.504     2650.244     1582.194        0.619        0.406       58.564       33.221        0.322      338.748       11.611      868.534
04/06/2014  10:26:00       38.809       16.621       44.687       62.213       48.041       45.664     3870.506     2307.944     2085.240        0.602        0.413       42.218       42.078        0.993      338.823       11.738      868.520
04/06/2014  10:27:00       69.284      -63.028       13.074       54.674       71.598       47.645     2989.295     5126.243     2270.053        0.966        0.519       93.663       38.679        0.171      338.379       10.989      868.512
04/06/2014  10:28:00       70.662      -45.780       -5.036       32.552       64.829       28.255     1059.649     4202.785      798.322        0.659        0.303       84.196       23.705        0.079      337.917       10.217      868.513
04/06/2014  10:29:00       20.076      -11.563       -2.669       44.861       42.154       22.090     2012.521     1776.949      487.968        0.241        0.214       23.168        9.768        0.178      338.227       10.733      868.493
04/06/2014  10:30:00       65.314       19.572      -15.639       42.124       50.760       29.186     1774.396     2576.556      851.845        0.505        0.260       68.184       16.649        0.060      338.296       10.850      868.487
04/06/2014  10:31:00       57.024       28.950       20.915       61.376       65.496       49.183     3767.044     4289.680     2418.964        0.750        0.524       63.951       20.783        0.106      338.634       11.419      868.485
04/06/2014  10:32:00       79.241       95.027       -1.909       79.907       42.862       39.971     6385.203     1837.122     1597.705        1.256        0.491      123.731       25.699        0.043      338.220       10.723      868.501
04/06/2014  10:33:00       91.099       72.506        6.990       35.615       30.255       30.878     1268.452      915.384      953.446        0.837        0.157      116.430       20.107        0.030      338.240       10.757      868.519
04/06/2014  10:34:00      115.044       73.554       15.027       31.286       20.144       23.030      978.817      405.800      530.394        1.039        0.096      136.548        6.727        0.002      338.002       10.358      868.539
04/06/2014  10:35:00       87.246       76.153       21.507       28.372       28.002       24.847      804.989      784.134      617.355        0.804        0.110      115.806       16.021        0.019      338.154       10.614      868.544
04/06/2014  10:36:00       93.419       52.015        2.702       46.094       50.746       31.730     2124.688     2575.199     1006.766        0.857        0.285      106.924       22.601        0.045      338.375       10.985      868.543
04/06/2014  10:37:00       59.254       83.752       21.996       52.023       31.678       33.169     2706.358     1003.504     1100.209        0.791        0.241      102.593       18.825        0.034      338.591       11.348      868.526
04/06/2014  10:38:00       51.652       61.734       60.843       45.821       40.273       42.613     2099.584     1621.936     1815.828        0.786        0.277       80.492       19.072        0.056      338.692       11.517      868.517
04/06/2014  10:39:00       27.874        7.112       39.631       64.380       52.957       32.336     4144.791     2804.469     1045.597        0.519        0.400       28.767       20.025        0.485      339.207       12.383      868.504
04/06/2014  10:40:00        6.278       18.309       48.311       53.742       82.651       42.054     2888.194     6831.214     1768.509        0.710        0.574       19.355       33.891        3.066      339.162       12.306      868.494
04/06/2014  10:41:00      138.771       99.737       51.368       71.567       47.037       52.156     5121.902     2212.506     2720.233        2.095        0.503      170.894       46.443        0.074      338.570       11.310      868.497
04/06/2014  10:42:00       52.210      108.825       92.434       52.195       72.931       69.525     2724.338     5318.863     4833.753        1.799        0.644      120.702       56.988        0.223      339.021       12.069      868.497
04/06/2014  10:43:00       43.461       82.883      105.400       62.699       74.560       46.845     3931.224     5559.134     2194.435        1.577        0.584       93.587       58.251        0.387      338.679       11.494      868.511
04/06/2014  10:44:00       53.659      -29.990       22.559       26.560       50.285       47.817      705.410     2528.542     2286.462        0.490        0.276       61.471       44.695        0.529      338.586       11.337      868.536
04/06/2014  10:45:00       17.283        4.869        3.501       41.925       31.470       38.526     1757.724      990.357     1484.222        0.228        0.212       17.956       31.504        3.078      338.677       11.492      868.527
04/06/2014  10:46:00        7.170       -1.339       25.543       25.635       30.801       34.812      657.167      948.729     1211.884        0.176        0.141        7.294       19.399        7.074      339.031       12.086      868.519
04/06/2014  10:47:00        2.817       26.035       46.563       22.091       38.454       25.301      488.017     1478.718      640.162        0.273        0.130       26.187       27.312        1.088      339.412       12.729      868.520
04/06/2014  10:48:00       28.370       46.623       40.182       43.407       42.847       39.995     1884.130     1835.872     1599.597        0.496        0.266       54.576       24.047        0.194      339.548       12.956      868.524
04/06/2014  10:49:00       63.061       79.856       72.291       92.329       72.915       55.972     8524.653     5316.526     3132.882        1.627        0.849      101.753       54.939        0.292      339.360       12.638      868.537
04/06/2014  10:50:00      141.554       49.961       27.809       67.143       53.181       44.448     4508.195     2828.270     1975.586        1.631        0.466      150.112       36.543        0.059      338.790       11.681      868.563
04/06/2014  10:51:00       44.140      103.254       83.461       60.006       56.537       49.833     3600.706     3196.440     2483.306        1.443        0.464      112.293       35.316        0.099      339.018       12.065      868.569
04/06/2014  10:52:00       53.093       42.806       48.171       49.293       50.740       44.635     2429.819     2574.534     1992.244        0.698        0.350       68.200       40.178        0.347      339.036       12.094      868.588
04/06/2014  10:53:00       18.508       22.142       34.895       34.064       45.838       34.470     1160.330     2101.125     1188.209        0.325        0.222       28.859       17.572        0.371      339.450       12.793      868.588
04/06/2014  10:54:00      111.029       52.635       19.896       60.291       51.528       39.855     3634.954     2655.163     1588.404        1.168        0.394      122.873       30.442        0.061      339.233       12.426      868.588
04/06/2014  10:55:00      101.628       32.803       29.897       53.115       54.443       31.222     2821.167     2964.093      974.802        0.953        0.338      106.791       33.037        0.096      338.859       11.797      868.587
04/06/2014  10:56:00       53.650       28.144       17.697       25.981       26.065       21.056      675.001      679.364      443.347        0.289        0.090       60.584        9.969        0.027      338.814       11.721      868.585
04/06/2014  10:57:00       85.686       -0.927       33.623       46.348       59.021       45.662     2148.131     3483.482     2084.988        0.809        0.386       85.691       31.267        0.133      339.031       12.086      868.584
04/06/2014  10:58:00       34.359       35.177       49.014       27.920       49.867       25.473      779.522     2486.709      648.884        0.437        0.196       49.172       21.096        0.184      339.231       12.422      868.582
04/06/2014  10:59:00       85.229      103.380      107.563       87.276       67.635       59.605     7617.030     4574.497     3552.757        2.263        0.787      133.983       63.912        0.228      339.226       12.413      868.586
04/06/2014  11:00:00       41.090       38.967       72.872       62.265       88.140       52.206     3876.970     7768.575     2725.474        1.144        0.719       56.629       55.945        0.976      339.463       12.813      868.594
04/06/2014  11:01:00      143.084      100.008       91.101       88.612       62.503       62.621     7852.020     3906.608     3921.375        2.722        0.784      174.570       50.330        0.083      339.029       12.081      868.597
04/06/2014  11:02:00      138.494       74.830       45.202       67.309       61.172       44.144     4530.451     3741.960     1948.736        1.852        0.511      157.417       36.306        0.053      338.884       11.840      868.628
04/06/2014  11:03:00       67.324       57.369       35.594       51.967       40.359       43.794     2700.560     1628.858     1917.874        0.767        0.312       88.452       35.208        0.158      338.988       12.014      868.620
04/06/2014  11:04:00       -2.344      -34.090       14.528       28.603       33.813       20.787      818.127     1143.296      432.103        0.189        0.120       34.170       18.072        0.280      339.390       12.691      868.611
04/06/2014  11:05:00       73.835       55.095       18.806       74.913       54.963       41.373     5612.032     3020.910     1711.698        0.959        0.517       92.125       16.681        0.033      339.469       12.823      868.594
04/06/2014  11:06:00       21.921       39.002       -3.017       44.179       28.723       22.021     1951.789      825.018      484.925        0.264        0.163       44.740       16.997        0.144      339.141       12.272      868.586
04/06/2014  11:07:00      154.573       67.934       27.299       76.758       63.885       48.918     5891.755     4081.295     2392.968        2.081        0.618      168.843       25.354        0.023      339.367       12.650      868.549
04/06/2014  11:08:00       75.705       30.778       10.072       76.097       67.809       36.548     5790.757     4598.092     1335.728        0.925        0.586       81.723       28.399        0.121      339.427       12.752      868.534
04/06/2014  11:09:00       11.675       -4.066       55.901       35.368       71.434       36.360     1250.866     5102.811     1322.018        0.548        0.384       12.363       29.751        5.791      339.873       13.505      868.526
04/06/2014  11:10:00       12.633      -13.585       79.062       46.457       91.376       42.300     2158.209     8349.596     1789.316        0.944        0.615       18.551       50.171        7.314      339.939       13.617      868.508
04/06/2014  11:11:00       46.025      -69.810        3.549       38.132       81.127       45.233     1454.084     6581.513     2046.042        0.854        0.504       83.617       24.904        0.089      339.404       12.715      868.529
04/06/2014  11:12:00      -22.239       36.524      -21.887       38.904       60.967       22.312     1513.483     3716.915      497.807        0.402        0.286       42.762        7.236        0.029      339.367       12.651      868.540
04/06/2014  11:13:00      -74.777       19.819        7.212       27.479       21.047       22.165      755.107      442.962      491.295        0.386        0.084       77.359       15.697        0.041      339.343       12.610      868.529
04/06/2014  11:14:00       10.035      -12.183       28.739       57.569       72.214       48.462     3314.200     5214.854     2348.565        0.597        0.544       15.783       45.264        8.224      339.861       13.484      868.538
04/06/2014  11:15:00       45.832       34.212       92.560       73.430      118.945       56.748     5391.927    14147.851     3220.385        1.729        1.138       57.193       66.566        1.355      339.877       13.511      868.553
04/06/2014  11:16:00       68.326       33.657       36.991       49.205       42.518       47.384     2421.105     1807.775     2245.284        0.682        0.324       76.166       33.463        0.193      339.487       12.854      868.568
04/06/2014  11:17:00      160.125      127.232       92.736      103.043      124.914       90.463    10617.926    15603.606     8183.501        4.241        1.720      204.519       87.839        0.184      339.544       12.948      868.535
04/06/2014  11:18:00       23.813     -120.347        6.382       71.688       64.816       43.104     5139.175     4201.160     1857.933        1.314        0.560      122.681       32.369        0.070      339.867       13.495      868.547
04/06/2014  11:19:00       38.390       54.190       99.510       59.575       82.883       55.889     3549.201     6869.638     3123.619        1.392        0.677       66.410       56.571        0.726      340.171       14.008      868.551
04/06/2014  11:20:00       98.775       54.155       78.236      101.093      120.836       66.420    10219.768    14601.401     4411.657        2.402        1.462      112.646       59.805        0.282      340.140       13.953      868.535
04/06/2014  11:21:00      289.083      161.608       47.842       80.073       73.431       70.965     6411.761     5392.108     5035.985        6.440        0.842      331.189       28.465        0.007      339.582       13.012      868.554
04/06/2014  11:22:00      125.290      105.341       49.782       48.808       36.594       40.143     2382.249     1339.151     1611.498        1.730        0.267      163.690       28.473        0.030      339.188       12.349      868.566
04/06/2014  11:23:00       30.472       57.328       87.807       50.544       66.602       45.590     2554.702     4435.785     2078.408        1.050        0.453       64.924       41.506        0.409      339.954       13.641      868.556
04/06/2014  11:24:00       34.260        2.648       26.343       45.152       45.145       32.600     2038.711     2038.097     1062.754        0.351        0.257       34.362       24.360        0.503      340.178       14.020      868.538
04/06/2014  11:25:00       -4.977        8.705       56.705       53.156      110.146       66.066     2825.528    12132.123     4364.656        1.132        0.966       10.028       70.708       49.721      340.425       14.437      868.537
04/06/2014  11:26:00       96.513      -37.719       78.911      103.505      155.633       95.926    10713.382    24221.640     9201.709        3.054        2.207      103.622       71.878        0.481      340.061       13.819      868.513
04/06/2014  11:27:00       35.323       94.265       93.636       72.503       77.784       62.434     5256.658     6050.311     3897.997        1.705        0.760      100.666       42.567        0.179      340.475       14.520      868.538
04/06/2014  11:28:00        4.924      -57.446       35.855       63.161       92.492       47.045     3989.357     8554.835     2213.209        0.968        0.738       57.656       52.570        0.831      340.483       14.535      868.556
04/06/2014  11:29:00       74.089      -80.987       -2.198       62.761       99.375       51.441     3938.987     9875.345     2646.169        1.425        0.823      109.763       50.882        0.215      340.275       14.180      868.557
04/06/2014  11:30:00       77.642       63.371       33.322       57.346       55.122       53.178     3288.532     3038.401     2827.905        1.015        0.458      100.220       36.493        0.133      340.182       14.026      868.566
04/06/2014  11:31:00       57.935      104.460       15.380       75.115       46.110       44.159     5642.202     2126.177     1950.052        1.211        0.486      119.451       32.293        0.073      339.916       13.577      868.559
04/06/2014  11:32:00      -24.245      -74.825      -11.513       40.777       83.903       38.250     1662.786     7039.763     1463.041        0.824        0.508       78.655       40.494        0.265      340.340       14.293      868.536
04/06/2014  11:33:00       70.587     -124.349      -23.867       84.573       74.323       52.456     7152.560     5523.978     2751.665        1.822        0.771      142.987       52.344        0.134      340.150       13.972      868.502
04/06/2014  11:34:00       53.713      -80.946       30.590       60.205      101.031       50.379     3624.700    10207.215     2537.996        1.337        0.818       97.146       56.322        0.336      340.205       14.065      868.498
04/06/2014  11:35:00       32.155      -29.648       53.621       81.351      124.348       68.035     6617.979    15462.404     4628.743        1.574        1.335       43.737       72.460        2.745      340.638       14.797      868.490
04/06/2014  11:36:00      205.436      103.667       78.905      125.153       95.061       98.526    15663.276     9036.516     9707.427        4.679        1.720      230.110       72.057        0.098      339.817       13.407      868.484
04/06/2014  11:37:00      121.623       -6.517       59.955      110.083      166.645       87.259    12118.289    27770.401     7614.078        3.296        2.375      121.798       92.257        0.574      340.117       13.917      868.481
04/06/2014  11:38:00      114.970      135.529      153.450      131.907      125.293       86.051    17399.532    15698.288     7404.751        4.781        2.025      177.725       76.910        0.187      340.190       14.037      868.455
04/06/2014  11:39:00      269.175      138.604       56.869      153.991      122.309      103.694    23713.339    14959.569    10752.540        7.215        2.471      302.765       57.385        0.036      340.084       13.857      868.480
04/06/2014  11:40:00      139.018      155.324        9.834      162.191       95.054       81.958    26305.925     9035.254     6717.080        4.279        2.103      208.450       53.164        0.065      339.675       13.168      868.514
04/06/2014  11:41:00      132.160      141.103       21.189      132.934       73.311       62.759    17671.495     5374.516     3938.665        3.240        1.349      193.330       46.261        0.057      339.860       13.481      868.514
04/06/2014  11:42:00      186.386      134.267       46.241      153.600       89.087       68.958    23593.034     7936.540     4755.208        4.559        1.814      229.711       71.078        0.096      339.739       13.279      868.534
04/06/2014  11:43:00      240.419      138.793       66.444      147.396       97.972       81.316    21725.548     9598.463     6612.352        5.970        1.897      277.605       65.505        0.056      339.920       13.580      868.550
04/06/2014  11:44:00      123.626       74.577       72.888      139.372      120.801       74.501    19424.446    14592.979     5550.412        3.285        1.978      144.379       62.327        0.186      340.296       14.216      868.492
04/06/2014  11:45:00      115.155      147.460      143.214      145.287      133.419      110.684    21108.182    17800.580    12250.900        5.333        2.558      187.097       81.058        0.188      340.649       14.812      868.468
04/06/2014  11:46:00      368.995      195.960       87.805      174.465      134.758       98.934    30438.078    18159.821     9787.953       12.031        2.919      417.801       62.668        0.022      340.304       14.229      868.497
04/06/2014  11:47:00      137.989      152.195      108.123      152.130      111.425       90.164    23143.616    12415.457     8129.556        4.878        2.184      205.437       94.028        0.209      340.473       14.514      868.478
04/06/2014  11:48:00      129.956      134.783      115.464      131.260      101.836       71.187    17229.192    10370.498     5067.577        4.052        1.633      187.230       63.612        0.115      340.389       14.373      868.481
04/06/2014  11:49:00      137.300      204.937      189.042      151.579      143.274      132.461    22976.162    20527.384    17545.816        7.881        3.052      246.678      118.420        0.230      340.482       14.531      868.455
04/06/2014  11:50:00      407.567      198.174       78.454      150.886      129.288      113.604    22766.694    16715.501    12905.953       13.195        2.619      453.193       71.041        0.025      339.777       13.339      868.421
04/06/2014  11:51:00      126.000      137.239       92.490      151.563       89.722       77.008    22971.414     8050.041     5930.178        4.010        1.848      186.307       86.813        0.217      340.295       14.215      868.442
04/06/2014  11:52:00      194.297      161.453       63.328      174.346      110.207       88.423    30396.468    12145.620     7818.612        5.908        2.518      252.623       81.800        0.105      340.440       14.460      868.461
04/06/2014  11:53:00      176.027       97.485       55.423      126.664       87.948       77.055    16043.864     7734.928     5937.413        3.663        1.486      201.219       53.821        0.072      340.641       14.798      868.453
04/06/2014  11:54:00      389.000      248.406       53.311      177.641      120.722      106.951    31556.378    14573.912    11438.551       13.671        2.878      461.548       94.207        0.042      340.102       13.887      868.432
04/06/2014  11:55:00      398.152      232.123       87.342      158.708      124.363      110.942    25188.309    15466.226    12308.203       13.649        2.648      460.875       41.615        0.008      340.232       14.107      868.409
04/06/2014  11:56:00      362.395      161.076       86.804      166.134      123.170      118.376    27600.621    15170.755    14012.940       11.079        2.839      396.580       98.175        0.061      340.157       13.981      868.420
04/06/2014  11:57:00      283.429      170.287      111.559      135.388      124.508      126.991    18330.029    15502.365    16126.817        8.586        2.498      330.650       76.700        0.054      340.081       13.852      868.385
04/06/2014  11:58:00      110.527      141.837      177.210      116.395      115.774       85.550    13547.885    13403.667     7318.874        4.900        1.714      179.817       80.438        0.200      340.490       14.545      868.347
04/06/2014  11:59:00      245.525      130.817      112.293      155.132      149.288      110.643    24066.056    22286.940    12241.767        7.429        2.930      278.201       97.245        0.122      340.225       14.096      868.345
04/06/2014  12:00:00      241.660      146.672       13.173      150.435      134.576      104.748    22630.830    18110.645    10972.114        6.589        2.586      282.688       82.675        0.086      340.611       14.748      868.422
04/06/2014  12:01:00       33.271      103.054        9.448       93.024      111.092       59.307     8653.490    12341.518     3517.279        1.816        1.226      108.291       59.546        0.302      340.646       14.810      868.419
04/06/2014  12:02:00      -51.064      208.327      -16.141       64.719      127.163       52.829     4188.607    16170.421     2790.892        3.470        1.157      214.494       54.341        0.064      340.532       14.614      868.397
04/06/2014  12:03:00      -29.789      127.406        1.647       61.333       86.532       43.546     3761.689     7487.847     1896.217        1.513        0.657      130.842       46.412        0.126      340.566       14.675      868.409
04/06/2014  12:04:00       18.869       84.055        8.957       38.192       62.358       42.097     1458.614     3888.472     1772.173        0.731        0.356       86.147       39.148        0.207      340.616       14.760      868.444
04/06/2014  12:05:00       49.656       23.954       20.762       59.571       70.508       35.054     3548.758     4971.357     1228.768        0.661        0.487       55.131        6.931        0.016      340.720       14.935      868.422
04/06/2014  12:06:00       44.246       35.753       29.306       68.160       56.231       39.428     4645.801     3161.882     1554.586        0.673        0.468       56.886       15.200        0.071      341.059       15.508      868.404
04/06/2014  12:07:00      139.474      213.749      202.691      167.390      132.947      122.566    28019.490    17674.996    15022.504        8.346        3.036      255.228      117.235        0.211      340.232       14.108      868.397
04/06/2014  12:08:00      129.359       79.182       75.621      131.201       91.172       66.276    17213.625     8312.417     4392.534        2.931        1.496      151.669       68.221        0.202      340.106       13.895      868.404
04/06/2014  12:09:00      147.884      115.179       -2.754      101.845       54.990       47.648    10372.390     3023.954     2270.369        2.540        0.783      187.446       39.813        0.045      339.827       13.425      868.386
04/06/2014  12:10:00      133.620      108.316      124.602      101.741      127.117      106.731    10351.286    16158.649    11391.584        4.150        1.895      172.008       80.754        0.220      340.292       14.210      868.337
04/06/2014  12:11:00      192.126      171.709       84.542      165.195      103.905      107.614    27289.397    10796.298    11580.877        6.160        2.483      257.675      100.235        0.151      340.535       14.619      868.319
04/06/2014  12:12:00      303.681      169.877       29.086      128.687      109.935       82.145    16560.329    12085.690     6747.823        7.865        1.770      347.966       33.023        0.009      340.436       14.452      868.338
04/06/2014  12:13:00      159.468      146.493       10.779      136.183       88.407       68.743    18545.916     7815.803     4725.606        3.904        1.554      216.542       47.285        0.048      340.349       14.307      868.353
04/06/2014  12:14:00      -75.608      266.740      -25.795       73.455      113.409       61.114     5395.688    12861.703     3734.965        4.976        1.100      277.249       62.587        0.051      340.119       13.916      868.384
04/06/2014  12:15:00     -109.285      242.572      -29.125       82.348      122.761       58.752     6781.229    15070.343     3451.836        4.846        1.265      266.053       60.283        0.051      339.937       13.611      868.372
04/06/2014  12:16:00      -27.953      151.229       -5.530       67.882       73.523       36.341     4608.001     5405.568     1320.655        1.751        0.567      153.791       34.287        0.050      340.232       14.110      868.352
04/06/2014  12:17:00      -61.173      164.175       -0.601       77.032       84.337       54.115     5933.963     7112.725     2928.448        2.333        0.799      175.202       58.228        0.110      340.488       14.542      868.339
04/06/2014  12:18:00        0.817      233.570      -27.943       54.154      104.681       43.531     2932.699    10958.207     1894.936        3.556        0.789      233.571       49.095        0.044      340.354       14.314      868.345
04/06/2014  12:19:00       51.559      139.061      -15.028       71.644       96.348       47.819     5132.845     9282.997     2286.667        1.946        0.835      148.312       37.190        0.063      340.456       14.488      868.319
04/06/2014  12:20:00       51.443       90.309       12.817       58.722       83.751       48.893     3448.325     7014.282     2390.481        1.191        0.643      103.933       51.199        0.243      340.273       14.180      868.302
04/06/2014  12:21:00       28.542      204.097      -11.952       89.950      110.014       54.552     8090.971    12103.171     2975.882        3.289        1.159      206.083       61.584        0.089      340.219       14.087      868.275
04/06/2014  12:22:00       79.780       65.181       32.807       84.061       80.777       61.195     7066.319     6524.931     3744.831        1.451        0.867      103.021       45.412        0.194      340.469       14.509      868.259
04/06/2014  12:23:00      200.934      136.809       29.853       93.457       84.994       72.367     8734.250     7223.902     5236.972        4.058        1.060      243.087       35.768        0.022      340.243       14.127      868.241
04/06/2014  12:24:00      209.673      144.037       61.740      105.143       68.355       52.078    11055.140     4672.370     2712.152        4.348        0.922      254.381       40.886        0.026      340.270       14.173      868.222
04/06/2014  12:25:00       72.790       87.708       74.034       84.748       70.357       58.300     7182.250     4950.090     3398.872        1.700        0.777      113.978       47.866        0.176      340.485       14.536      868.225
04/06/2014  12:26:00       92.683       49.790        5.198       65.061       68.924       45.257     4232.996     4750.495     2048.194        1.106        0.552      105.211       25.711        0.060      340.285       14.200      868.240
04/06/2014  12:27:00       29.649        7.665       12.218       60.980       36.138       25.765     3718.617     1305.968      663.858        0.339        0.284       30.624       14.435        0.222      340.456       14.489      868.209
04/06/2014  12:28:00      131.618       60.652       48.994       58.661       52.818       57.963     3441.151     2789.709     3359.736        1.649        0.480      144.921       26.282        0.033      340.156       13.983      868.206
04/06/2014  12:29:00      157.493       92.463       42.668       71.677       57.194       51.131     5137.626     3271.208     2614.394        2.310        0.551      182.629       36.696        0.040      340.306       14.232      868.199
04/06/2014  12:30:00      110.042      206.101       19.984      165.066      174.598       83.436    27246.803    30484.512     6961.571        5.983        3.235      233.638       79.765        0.117      340.389       14.373      868.181
04/06/2014  12:31:00       -2.478      518.220      -70.741       77.573      121.966       45.963     6017.634    14875.823     2112.555       14.828        1.150      518.225       55.095        0.011      339.890       13.530      868.193
04/06/2014  12:32:00     -103.688      223.865      -18.752       64.799       81.874       60.114     4198.918     6703.379     3613.739        3.786        0.726      246.712       52.802        0.046      340.559       14.660      868.197
04/06/2014  12:33:00     -206.460      230.153      -48.395       75.311       98.228       46.589     5671.814     9648.712     2170.558        5.771        0.875      309.186       51.518        0.028      340.160       13.985      868.210
04/06/2014  12:34:00     -143.605      128.976      -23.208      117.764       76.737       47.436    13868.404     5888.534     2250.157        2.990        1.100      193.022       53.472        0.077      340.321       14.257      868.203
04/06/2014  12:35:00     -123.686      192.430      -16.137      114.913      112.566       60.298    13204.905    12671.200     3635.873        4.104        1.476      228.752       76.720        0.112      340.478       14.524      868.192
04/06/2014  12:36:00      -77.132      109.726       -0.897       70.779       58.801       44.152     5009.709     3457.541     1949.371        1.420        0.521      134.124       43.376        0.105      340.702       14.905      868.187
04/06/2014  12:37:00      -80.177       55.438       31.411       89.653       54.704       46.661     8037.677     2992.567     2177.268        1.185        0.660       97.477       45.376        0.217      340.906       15.251      868.156
04/06/2014  12:38:00     -115.886      -25.864      -12.742       49.070       38.430       20.730     2407.827     1476.900      429.728        0.929        0.216      118.737       15.676        0.017      340.380       14.361      868.158
04/06/2014  12:39:00        7.583      -70.755       -7.606       24.757       60.539       29.795      612.910     3664.958      887.762        0.514        0.258       71.160       15.234        0.046      340.293       14.215      868.139
04/06/2014  12:40:00      -47.134      -67.131       -3.178       24.574       25.361       16.363      603.861      643.196      267.759        0.413        0.076       82.026       12.437        0.023      340.119       13.920      868.124
04/06/2014  12:41:00      -52.785      -10.262       -7.880       23.393       30.758       23.377      547.249      946.058      546.465        0.250        0.102       53.773       13.923        0.067      340.244       14.130      868.129
04/06/2014  12:42:00      -12.012      -18.019      -29.106       52.577       18.482       16.476     2764.299      341.586      271.472        0.235        0.169       21.656       18.085        0.697      340.197       14.051      868.127
04/06/2014  12:43:00       52.704       97.744       12.480       88.349       83.060       59.369     7805.501     6898.905     3524.681        1.535        0.911      111.048       46.511        0.175      340.776       15.029      868.129
04/06/2014  12:44:00       38.711      260.225      -31.784       59.516      122.735       58.854     3542.136    15063.863     3463.743        4.614        1.103      263.089       68.131        0.067      340.675       14.857      868.144
04/06/2014  12:45:00       45.386       41.123       -8.680       47.671       56.317       29.817     2272.484     3171.643      889.066        0.508        0.317       61.245       22.862        0.139      340.966       15.353      868.120
04/06/2014  12:46:00      -39.761       77.514       -7.894       52.905       67.759       36.184     2798.967     4591.218     1309.314        0.817        0.435       87.117       46.042        0.279      340.820       15.104      868.097
04/06/2014  12:47:00     -133.951      159.690      -31.938       82.139       79.425       46.178     6746.754     6308.393     2132.418        2.982        0.759      208.432       38.601        0.034      340.587       14.708      868.121
04/06/2014  12:48:00      -36.069      138.813      -22.099       86.373       66.488       38.218     7460.261     4420.611     1460.652        1.720        0.667      143.423       25.591        0.032      340.507       14.575      868.126
04/06/2014  12:49:00      -16.860      136.888      -14.543       90.689       50.205       34.854     8224.533     2520.556     1214.832        1.559        0.598      137.922       37.006        0.072      340.283       14.197      868.116
04/06/2014  12:50:00      -38.189       70.023        8.025       40.854       49.355       40.149     1669.067     2435.954     1611.903        0.607        0.286       79.760       35.873        0.202      340.851       15.158      868.105
04/06/2014  12:51:00     -108.792       11.296       -5.344       60.898       55.772       36.747     3708.512     3110.540     1350.341        1.008        0.408      109.377       32.318        0.087      340.926       15.283      868.090
04/06/2014  12:52:00     -111.087      -25.345        7.111      103.689       48.054       38.207    10751.492     2309.196     1459.737        1.377        0.726      113.942       51.559        0.205      340.953       15.329      868.087
04/06/2014  12:53:00      -95.811      -45.114       18.588       79.860       73.720       46.531     6377.556     5434.657     2165.095        1.277        0.699      105.901       44.788        0.179      340.959       15.339      868.064
04/06/2014  12:54:00      -57.138      -71.140       15.413       95.851       81.575       55.648     9187.334     6654.453     3096.702        1.375        0.947       91.245       63.180        0.479      340.785       15.045      868.059
04/06/2014  12:55:00      -88.508      -60.497        5.100       67.316       49.614       40.510     4531.461     2461.539     1641.038        1.008        0.432      107.208       34.496        0.104      340.424       14.435      868.083
04/06/2014  12:56:00       70.217      111.846        1.369       61.125       81.116       55.569     3736.249     6579.741     3087.907        1.542        0.670      132.060       43.019        0.106      340.859       15.169      868.135
04/06/2014  12:57:00       -1.510      205.429      -19.629       67.480      106.703       47.688     4553.556    11385.552     2274.178        3.040        0.911      205.434       53.893        0.069      340.658       14.830      868.102
04/06/2014  12:58:00        5.178      296.769      -41.567       87.044      134.585       47.269     7576.649    18113.149     2234.369        5.887        1.396      296.815       57.506        0.038      340.666       14.840      868.096
04/06/2014  12:59:00      -88.029      352.789      -33.104       81.434      127.064       49.941     6631.564    16145.189     2494.072        7.928        1.264      363.606       51.943        0.020      340.573       14.684      868.077
04/06/2014  13:00:00      -25.606      304.926      -26.875       41.584      128.316       40.122     1729.209    16465.095     1609.763        5.708        0.990      306.000       50.877        0.028      340.319       14.255      868.059
04/06/2014  13:01:00      -82.513      208.292      -25.289      134.486      100.179       55.873    18086.433    10035.854     3121.790        4.103        1.562      224.040       60.302        0.072      340.909       15.253      868.051
04/06/2014  13:02:00       49.287       46.972       24.408       52.266       52.650       46.309     2731.683     2772.071     2144.493        0.644        0.382       68.085       25.706        0.143      340.823       15.109      868.039
04/06/2014  13:03:00      -86.523       79.382      -27.010       65.842       60.655       32.621     4335.211     3679.076     1064.113        1.180        0.454      117.421       37.005        0.099      340.403       14.399      868.018
04/06/2014  13:04:00     -175.722       83.695      -33.334      103.834       99.200       49.757    10781.434     9840.582     2475.720        3.104        1.155      194.635       58.743        0.091      340.677       14.860      868.001
04/06/2014  13:05:00     -156.039        0.373        5.228       74.764       60.708       33.654     5589.685     3685.427     1132.604        1.739        0.520      156.039       40.111        0.066      340.770       15.018      867.956
04/06/2014  13:06:00      -52.817       51.898        6.974       51.346       53.116       36.431     2636.368     2821.318     1327.184        0.616        0.339       74.048       37.559        0.257      341.145       15.655      867.960
04/06/2014  13:07:00       -4.740       75.043       12.692       54.980       66.754       43.785     3022.838     4456.033     1917.142        0.760        0.470       75.193       36.674        0.238      341.403       16.092      867.966
04/06/2014  13:08:00       33.823       89.148        4.225       43.571       64.767       39.373     1898.433     4194.762     1550.256        0.837        0.382       95.349       40.274        0.178      341.138       15.643      867.960
04/06/2014  13:09:00       65.930      104.227       62.510       51.872       53.915       65.890     2690.700     2906.775     4341.428        1.453        0.497      123.329       37.957        0.095      340.916       15.268      867.916
04/06/2014  13:10:00      -13.312        8.946       43.866       37.475       66.124       52.994     1404.382     4372.390     2808.415        0.538        0.429       16.039       51.090       10.147      341.201       15.750      867.909
04/06/2014  13:11:00      -11.178      -78.862       13.752       25.405       49.832       41.398      645.394     2483.264     1713.769        0.569        0.242       79.650       32.370        0.165      340.638       14.798      867.889
04/06/2014  13:12:00       -7.731      -26.845       22.331       53.611       50.700       35.854     2874.130     2570.456     1285.518        0.400        0.337       27.936       25.382        0.825      341.193       15.737      867.887
04/06/2014  13:13:00      -35.364      -28.584        5.267       57.891       42.282       30.647     3351.380     1787.769      939.231        0.409        0.304       45.472       23.955        0.278      341.016       15.437      867.880
04/06/2014  13:14:00      -51.558      -17.505       -1.097       33.994       25.442       16.587     1155.568      647.291      275.134        0.252        0.104       54.448       14.415        0.070      340.640       14.800      867.859
04/06/2014  13:15:00      -18.099      -15.208       11.969       35.914       37.562       31.592     1289.813     1410.868      998.075        0.220        0.185       23.640       25.392        1.154      340.960       15.343      867.829
04/06/2014  13:16:00      -24.821       -4.881       11.723       66.452       62.902       29.243     4415.887     3956.602      855.177        0.500        0.461       25.296       24.078        0.906      340.962       15.346      867.802
04/06/2014  13:17:00       10.979      -23.532        5.311       61.828       72.885       37.581     3822.643     5312.157     1412.349        0.562        0.527       25.967       25.114        0.935      341.232       15.802      867.766
04/06/2014  13:18:00      119.217     -193.271      -53.402       49.498       54.492       31.481     2450.016     2969.405      991.080        3.041        0.321      227.082       26.013        0.013      340.667       14.841      867.750
04/06/2014  13:19:00      -37.047     -111.105      -19.354       67.164       56.773       49.408     4510.991     3223.155     2441.129        1.213        0.509      117.119       34.975        0.089      341.126       15.621      867.734
04/06/2014  13:20:00      -44.513       18.014       33.549       48.807       42.415       33.233     2382.155     1799.003     1104.433        0.436        0.264       48.020       28.799        0.360      341.382       16.057      867.742
04/06/2014  13:21:00     -101.685       16.618       -7.240       50.804       36.866       27.752     2581.084     1359.068      770.163        0.769        0.236      103.033       19.125        0.034      340.849       15.154      867.746
04/06/2014  13:22:00      -87.773       -5.751      -12.909       47.380       20.545       24.173     2244.835      422.105      584.334        0.558        0.163       87.961       24.765        0.079      340.890       15.223      867.731
04/06/2014  13:23:00      -93.167       42.236       14.681       76.970       36.608       43.739     5924.366     1340.126     1913.090        0.993        0.459      102.294       42.113        0.169      341.404       16.095      867.689
04/06/2014  13:24:00       33.398       79.932       33.006      101.483       68.017       51.662    10298.830     4626.276     2668.913        1.309        0.880       86.629       34.875        0.162      341.602       16.428      867.713
04/06/2014  13:25:00       93.358      168.981      -11.373      131.176       77.019       56.431    17207.191     5931.908     3184.435        3.186        1.316      193.056       35.452        0.034      340.771       15.021      867.703
04/06/2014  13:26:00      226.666      157.979       35.815      156.678       81.229       65.156    24548.034     6598.171     4245.368        5.650        1.770      276.287       30.642        0.012      340.880       15.204      867.680
04/06/2014  13:27:00      146.327       84.224       59.546      101.751      113.264       69.393    10353.363    12828.792     4815.390        3.002        1.400      168.835       59.435        0.124      340.822       15.107      867.660
04/06/2014  13:28:00      185.971       76.892       73.495      142.298      111.760       78.742    20248.653    12490.304     6200.289        4.241        1.947      201.240       57.431        0.081      341.313       15.935      867.629
04/06/2014  13:29:00       86.249      -56.773       53.952      124.779      170.411       97.286    15569.703    29039.986     9464.513        3.381        2.704      103.258      107.795        1.090      341.346       15.993      867.619
04/06/2014  13:30:00      130.952     -152.372       -5.172       98.310       80.461       49.934     9664.946     6473.937     2493.423        2.951        0.932      200.912       46.635        0.054      340.999       15.404      867.613
04/06/2014  13:31:00      176.682     -217.267      -20.339       92.310      113.586       68.410     8521.223    12901.879     4679.888        5.246        1.305      280.039       74.350        0.070      340.860       15.169      867.594
04/06/2014  13:32:00      140.038     -148.469       -1.313      120.483      132.725       74.332    14516.155    17615.977     5525.176        3.965        1.883      204.092       92.432        0.205      341.176       15.704      867.580
04/06/2014  13:33:00      107.067     -184.677       32.529      128.863      184.627      116.449    16605.716    34086.981    13560.331        5.543        3.213      213.469      132.900        0.388      341.308       15.928      867.523
04/06/2014  13:34:00      167.957     -172.438       26.618      123.839      142.689       88.589    15336.048    20360.090     7848.073        5.109        2.177      240.716       97.750        0.165      341.230       15.795      867.503
04/06/2014  13:35:00      132.886     -207.869       13.423      117.672      132.083       81.782    13846.698    17445.794     6688.244        4.951        1.899      246.715       71.744        0.085      341.258       15.843      867.455
04/06/2014  13:36:00     -143.311     -110.223       -9.738      214.790      119.334       73.448    46134.908    14240.524     5394.555        4.926        3.288      180.796       77.946        0.186      341.369       16.031      867.426
04/06/2014  13:37:00     -463.414      -49.455      -34.164      164.149      152.298       74.495    26944.815    23194.678     5549.540       13.702        2.784      466.045       83.293        0.032      341.284       15.887      867.319
04/06/2014  13:38:00     -257.631      156.235      -49.506       80.790      110.949       53.999     6527.095    12309.694     2915.843        5.749        1.088      301.303       57.017        0.036      341.106       15.585      867.467
04/06/2014  13:39:00     -253.392      -21.970      -21.615       82.157       92.629       44.610     6749.776     8580.181     1990.086        4.124        0.866      254.342       31.468        0.015      341.167       15.688      867.520
04/06/2014  13:40:00     -133.613       11.733       -1.019       65.823       70.538       34.470     4332.697     4975.557     1188.161        1.424        0.525      134.127       23.829        0.032      341.201       15.750      867.554
04/06/2014  13:41:00     -130.416       37.458       -9.791       72.383       37.958       38.561     5239.286     1440.801     1486.938        1.334        0.408      135.689       41.844        0.095      341.406       16.096      867.547
04/06/2014  13:42:00     -103.159       33.990        0.607       57.169       31.151       30.361     3268.337      970.394      921.775        0.848        0.258      108.615       34.170        0.099      341.024       15.451      867.543
04/06/2014  13:43:00      -24.478      191.652       -6.976       65.708      113.464       51.771     4317.549    12874.045     2680.253        2.862        0.994      193.209       57.980        0.090      341.490       16.238      867.543
04/06/2014  13:44:00       40.875      230.885      -28.561       67.879      120.588       62.261     4607.592    14541.365     3876.376        3.941        1.151      234.475       69.430        0.088      341.232       15.800      867.531
04/06/2014  13:45:00      130.872      160.619       14.197      112.454       88.385       69.045    12645.997     7811.870     4767.177        3.417        1.261      207.186       54.366        0.069      341.105       15.584      867.513
04/06/2014  13:46:00       25.065      153.847       -7.755       62.355       91.671       56.180     3888.124     8403.557     3156.176        1.990        0.772      155.876       54.870        0.124      341.258       15.845      867.516
04/06/2014  13:47:00      -46.389      199.497      -36.307       53.271       54.166       33.967     2837.833     2933.939     1153.780        2.510        0.346      204.819       27.770        0.018      341.219       15.777      867.542
04/06/2014  13:48:00     -107.978       65.914       10.738      100.277      122.023       52.243    10055.390    14889.667     2729.352        2.189        1.384      126.506       48.324        0.146      341.899       16.932      867.531
04/06/2014  13:49:00     -166.651      -40.282      -19.232       84.140       89.826       35.892     7079.464     8068.687     1288.267        2.310        0.822      171.450       29.899        0.030      341.170       15.697      867.521
04/06/2014  13:50:00     -174.426      -31.073       -3.456       94.007       55.239       45.287     8837.231     3051.377     2050.882        2.267        0.697      177.172       42.970        0.059      341.464       16.194      867.516
04/06/2014  13:51:00     -187.373      -42.089        6.392       88.667       91.183       55.359     7861.900     8314.395     3064.664        2.808        0.962      192.042       47.025        0.060      341.674       16.549      867.499
04/06/2014  13:52:00     -205.950      -33.412        4.988      144.752      123.533       67.182    20953.137    15260.386     4513.402        4.213        2.036      208.643       67.288        0.104      341.741       16.663      867.508
04/06/2014  13:53:00     -202.076      -85.953      -11.217      138.824      113.699       61.245    19272.197    12927.380     3750.904        4.214        1.798      219.597       78.826        0.129      341.147       15.656      867.530
04/06/2014  13:54:00     -133.795       13.882        1.710      114.774       85.362       57.749    13173.076     7286.638     3334.951        2.094        1.190      134.513       69.206        0.265      341.337       15.978      867.515
04/06/2014  13:55:00     -163.302      -71.472      -11.946       72.936       72.442       41.095     5319.653     5247.778     1688.760        2.208        0.613      178.258       40.622        0.052      341.047       15.487      867.507
04/06/2014  13:56:00        8.476      -74.300        7.521       64.747       62.857       32.012     4192.212     3950.960     1024.762        0.741        0.458       74.782       22.750        0.093      340.967       15.352      867.489
04/06/2014  13:57:00      -27.672        6.571       18.366       50.545       27.737       40.498     2554.813      769.352     1640.057        0.305        0.248       28.441       28.897        1.032      341.476       16.216      867.479
04/06/2014  13:58:00      -65.374      -60.898       -9.122       37.448       64.418       32.878     1402.386     4149.737     1080.969        0.735        0.332       89.344       23.181        0.067      341.373       16.039      867.459
04/06/2014  13:59:00       -1.470     -111.025      -16.741       45.130       44.118       37.048     2036.751     1946.381     1372.527        0.898        0.268      111.035       27.201        0.060      340.992       15.396      867.452
04/06/2014  14:00:00       15.980     -156.484      -16.510       73.211       91.313       34.161     5359.811     8337.986     1166.997        1.994        0.743      157.298       23.577        0.022      341.102       15.581      867.440
04/06/2014  14:01:00      -21.278      -22.458      -11.849       64.050       41.049       18.573     4102.353     1684.981      344.944        0.361        0.307       30.937       13.773        0.198      341.158       15.676      867.436
04/06/2014  14:02:00      -11.389       31.961       30.623       52.824       38.090       33.344     2790.408     1450.878     1111.854        0.372        0.268       33.929       35.838        1.116      342.099       17.271      867.428
04/06/2014  14:03:00      -70.927       35.710       10.236       49.114       66.223       35.963     2412.174     4385.537     1293.351        0.725        0.405       79.409       30.508        0.148      341.969       17.053      867.421
04/06/2014  14:04:00      -30.998      -23.926       22.913       56.003       41.918       27.320     3136.361     1757.104      746.384        0.385        0.282       39.158       16.824        0.185      341.691       16.579      867.397
04/06/2014  14:05:00       14.389      -32.197        9.145       44.278       70.620       28.757     1960.526     4987.165      826.954        0.455        0.389       35.266       30.295        0.738      341.753       16.686      867.378
04/06/2014  14:06:00      -86.251       82.778      -18.290       71.288       60.644       37.540     5082.017     3677.715     1409.271        1.240        0.508      119.547       26.697        0.050      341.647       16.505      867.391
04/06/2014  14:07:00      -42.144      117.612       21.060      103.830      103.469       66.304    10780.656    10705.880     4396.220        2.096        1.294      124.935       63.277        0.257      341.828       16.811      867.390
04/06/2014  14:08:00     -107.643      225.972      -20.542       83.317       91.105       48.631     6941.800     8300.159     2365.018        4.034        0.880      250.300       39.883        0.025      341.584       16.396      867.388
04/06/2014  14:09:00      -71.717      222.718      -10.463       61.091      107.640       47.202     3732.103    11586.333     2228.004        3.620        0.877      233.980       53.668        0.053      341.533       16.311      867.395
04/06/2014  14:10:00       -0.103      143.251       18.172       48.347      108.843       59.518     2337.418    11846.712     3542.380        1.929        0.886      143.251       70.775        0.244      341.865       16.874      867.378
04/06/2014  14:11:00     -125.397      229.233      -15.830       65.124       94.716       55.131     4241.087     8971.119     3039.451        4.238        0.813      261.289       51.710        0.039      341.424       16.124      867.386
04/06/2014  14:12:00      -64.952      185.890      -17.990       38.200       46.802       31.981     1459.258     2190.419     1022.760        2.188        0.234      196.911       25.309        0.017      341.035       15.467      867.399
04/06/2014  14:13:00       21.522       59.088      -17.034       27.156       35.074       36.578      737.434     1230.208     1337.922        0.377        0.165       62.886       21.710        0.119      341.207       15.759      867.386
04/06/2014  14:14:00      -52.212       35.674      -12.712       79.237       47.927       33.517     6278.488     2297.026     1123.399        0.693        0.485       63.236       26.846        0.180      341.390       16.067      867.349
04/06/2014  14:15:00      -78.541      165.083      -35.225       56.273       91.624       45.555     3166.630     8394.935     2075.246        2.415        0.682      182.814       36.337        0.040      341.025       15.449      867.355
04/06/2014  14:16:00      -38.971       48.758      -24.802       24.059       35.045       22.839      578.845     1228.186      521.600        0.342        0.116       62.419        8.034        0.017      341.123       15.616      867.334
04/06/2014  14:17:00        3.066      -45.107       12.565       67.692       73.520       25.583     4582.230     5405.188      654.502        0.642        0.532       45.211       25.914        0.329      341.548       16.338      867.298
04/06/2014  14:18:00      -88.778       85.504      -24.307       32.378       69.028       30.052     1048.315     4764.890      903.110        1.125        0.336      123.258       21.751        0.031      341.148       15.659      867.301
04/06/2014  14:19:00      -52.150      -37.879      -15.241       57.840       42.278       22.951     3345.474     1787.430      526.761        0.502        0.283       64.455       24.854        0.149      340.886       15.215      867.282
04/06/2014  14:20:00      -57.498       21.415       -6.608       71.662      105.878       34.589     5135.445    11210.225     1196.433        1.067        0.877       61.357       43.764        0.509      341.373       16.042      867.275
04/06/2014  14:21:00       45.837      243.309      -23.408       81.351      108.538       65.894     6618.046    11780.511     4341.987        4.229        1.137      247.589       61.620        0.062      341.443       16.155      867.267
04/06/2014  14:22:00       28.822      192.419      -14.986       72.675       89.505       53.696     5281.669     8011.121     2883.241        2.712        0.809      194.565       53.302        0.075      341.495       16.244      867.279
04/06/2014  14:23:00       67.675      190.443       -9.165       89.951       89.730       64.951     8091.105     8051.418     4218.667        3.064        1.018      202.110       56.581        0.078      341.400       16.083      867.294
04/06/2014  14:24:00       47.879      102.714      -25.963       71.501      128.769       36.751     5112.369    16581.445     1350.662        1.828        1.152      113.325       55.802        0.242      341.135       15.636      867.304
04/06/2014  14:25:00      -49.920      103.252      -19.550       51.848       81.158       34.937     2688.199     6586.630     1220.564        1.201        0.525      114.687       28.940        0.064      341.513       16.276      867.279
04/06/2014  14:26:00       82.523      169.228      -16.357       67.068       78.598       55.274     4498.092     6177.645     3055.218        2.472        0.687      188.277       44.899        0.057      341.459       16.184      867.268
04/06/2014  14:27:00       50.718       99.215        1.846       43.716       94.976       36.292     1911.073     9020.401     1317.126        1.233        0.612      111.427       30.340        0.074      341.242       15.818      867.260
04/06/2014  14:28:00       61.282       64.863        1.264       74.975       57.610       51.469     5621.241     3318.901     2649.046        0.977        0.579       89.234       32.332        0.131      341.580       16.391      867.242
04/06/2014  14:29:00      182.122      131.851        0.198       74.018       60.606       42.174     5478.599     3673.053     1778.616        3.074        0.547      224.841       27.314        0.015      341.106       15.587      867.236
04/06/2014  14:30:00      125.775      102.720       43.341       81.078       67.151       56.528     6573.579     4509.216     3195.410        2.126        0.714      162.391       29.142        0.032      341.338       15.979      867.199
04/06/2014  14:31:00       57.375       57.686       10.439       65.888       64.310       44.084     4341.193     4135.754     1943.419        0.857        0.521       81.360       31.530        0.150      341.589       16.405      867.195
04/06/2014  14:32:00       63.940       87.604       -9.922       68.445       58.582       36.632     4684.683     3431.867     1341.894        1.066        0.473      108.456       30.296        0.078      341.414       16.110      867.181
04/06/2014  14:33:00        2.580       93.181       -6.765       42.280       68.343       24.620     1787.607     4670.716      606.139        0.790        0.353       93.217       28.981        0.097      341.458       16.186      867.157
04/06/2014  14:34:00      -50.491      101.991       -9.305       37.334       75.594       33.994     1393.790     5714.399     1155.613        1.065        0.413      113.805       32.649        0.082      341.556       16.350      867.145
04/06/2014  14:35:00       15.190      115.708        0.925       76.856       65.336       39.064     5906.818     4268.749     1525.970        1.266        0.585      116.700       35.392        0.092      341.621       16.462      867.179
04/06/2014  14:36:00      -87.830      155.940      -19.774       69.636       87.598       47.422     4849.120     7673.371     2248.892        2.359        0.739      178.973       51.943        0.084      341.529       16.304      867.206
04/06/2014  14:37:00     -226.990      145.968      -54.404       46.708       94.405       38.899     2181.671     8912.216     1513.125        4.420        0.630      269.872       36.733        0.019      341.211       15.762      867.189
04/06/2014  14:38:00      -63.556       24.730       14.702       91.366       53.172       45.195     8347.665     2827.215     2042.550        0.904        0.661       68.198       54.532        0.639      341.596       16.418      867.149
04/06/2014  14:39:00       26.559       62.881       16.386       54.251       65.055       42.567     2943.185     4232.100     1811.934        0.696        0.449       68.260       31.863        0.218      341.641       16.493      867.137
04/06/2014  14:40:00      -78.810       42.369      -11.755       45.834       47.386       23.176     2100.720     2245.425      537.109        0.651        0.244       89.477       17.754        0.039      341.991       17.087      867.145
04/06/2014  14:41:00       -4.681      107.223       -7.732       95.060       63.286       43.239     9036.474     4005.163     1869.645        1.324        0.746      107.325       40.020        0.139      341.742       16.666      867.175
04/06/2014  14:42:00       67.878      151.419      -15.657       76.023       84.421       52.372     5779.441     7126.862     2742.843        2.171        0.782      165.937       51.558        0.097      341.618       16.453      867.131
04/06/2014  14:43:00      -81.178       61.619      -20.936       93.985       68.022       39.503     8833.190     4627.029     1560.508        1.292        0.751      101.915       17.027        0.028      341.901       16.936      867.126
04/06/2014  14:44:00      -70.296      -18.231        0.253       90.640       61.188       43.098     8215.609     3743.919     1857.464        0.954        0.691       72.621       35.275        0.236      341.898       16.931      867.103
04/06/2014  14:45:00      -68.623      182.059      -11.290      109.654      144.563       60.044    12024.072    20898.380     3605.251        3.725        1.826      194.562       64.830        0.111      341.840       16.829      867.097
04/06/2014  14:46:00      -86.166      208.613      -22.329       88.722       95.533       56.779     7871.681     9126.527     3223.860        3.583        1.011      225.708       61.457        0.074      341.826       16.807      867.107
04/06/2014  14:47:00      -55.076      198.575       -9.159       79.272       99.028       49.083     6284.051     9806.611     2409.180        3.052        0.925      206.071       58.598        0.081      341.545       16.329      867.112
04/06/2014  14:48:00     -106.153       20.543        0.834       96.361      137.865       43.630     9285.496    19006.814     1903.605        2.094        1.510      108.123       27.598        0.065      341.795       16.753      867.077
04/06/2014  14:49:00     -152.255      -23.400       -5.029       53.066       57.863       32.310     2815.971     3348.093     1043.950        1.548        0.360      154.042       22.673        0.022      341.838       16.828      867.054
04/06/2014  14:50:00      -24.571       -4.299       27.883       53.433       31.523       29.664     2855.061      993.670      879.942        0.306        0.236       24.944       33.218        1.773      342.562       18.059      867.052
04/06/2014  14:51:00        1.681       14.477       37.929       32.649       34.346       18.195     1065.956     1179.662      331.045        0.211        0.129       14.574       12.535        0.740      342.561       18.056      867.063
04/06/2014  14:52:00      -32.841      268.991      -39.258       55.235      169.059       44.805     3050.920    28580.906     2007.485        5.430        1.682      270.988       67.452        0.062      341.780       16.728      867.073
04/06/2014  14:53:00      -57.372      255.000      -37.435      128.697      100.571       54.463    16562.817    10114.574     2966.189        4.967        1.482      261.374       50.037        0.037      341.581       16.390      867.063
04/06/2014  14:54:00     -129.260      125.618      -15.446      111.782       87.005       57.154    12495.131     7569.940     3266.577        2.802        1.167      180.244       67.454        0.140      341.961       17.035      867.062
04/06/2014  14:55:00      -26.434      202.720       -8.622       71.539      128.978       58.862     5117.836    16635.343     3464.754        3.354        1.261      204.436       52.544        0.066      341.858       16.861      867.063
04/06/2014  14:56:00     -145.663      138.288      -39.992       73.420       83.015       42.833     5390.545     6891.495     1834.648        2.803        0.706      200.851       38.343        0.036      341.708       16.607      867.039
04/06/2014  14:57:00      -11.121      187.779      -21.669       52.392       96.467       44.619     2744.876     9305.822     1990.844        2.495        0.702      188.108       52.518        0.078      341.911       16.950      867.027
04/06/2014  14:58:00      -60.346      129.653       -5.815       68.692       64.108       40.021     4718.606     4109.893     1601.688        1.546        0.522      143.009       30.158        0.044      341.879       16.900      867.015
04/06/2014  14:59:00      -54.175      142.873      -15.275       46.599       89.942       31.472     2171.486     8089.602      990.489        1.741        0.563      152.799       36.783        0.058      341.671       16.545      866.982
04/06/2014  15:00:00      -68.760      320.608      -46.509       69.452      117.103       38.954     4823.545    13713.230     1517.419        6.486        1.003      327.899       47.215        0.021      341.294       15.904      866.982
04/06/2014  15:01:00      -79.549      141.166      -20.087       88.953       82.355       56.122     7912.691     6782.384     3149.702        2.225        0.892      162.037       63.190        0.152      341.665       16.535      866.956
04/06/2014  15:02:00       -6.456      217.847      -44.190       64.298      105.015       31.968     4134.217    11028.230     1021.959        3.281        0.809      217.943       31.089        0.020      341.611       16.441      866.955
04/06/2014  15:03:00       29.083      126.738      -12.415       56.178       85.409       50.499     3155.934     7294.725     2550.198        1.503        0.650      130.032       47.272        0.132      341.824       16.804      866.939
04/06/2014  15:04:00      125.538      118.341       -4.920       70.828       84.088       56.521     5016.591     7070.827     3194.679        2.253        0.764      172.524       39.121        0.051      341.522       16.291      866.906
04/06/2014  15:05:00        9.983       59.148       78.609       63.631       52.868       40.922     4048.933     2795.057     1674.570        0.915        0.426       59.984       32.077        0.286      341.893       16.923      866.884
04/06/2014  15:06:00      -70.552      129.840      -20.697       61.963       81.789       44.228     3839.425     6689.366     1956.137        1.737        0.624      147.771       37.144        0.063      341.878       16.896      866.917
04/06/2014  15:07:00     -170.103      295.692      -42.494      109.690      118.942       54.017    12031.939    14147.266     2917.822        7.363        1.455      341.129       49.724        0.021      341.695       16.584      866.945
04/06/2014  15:08:00     -102.437      164.484      -15.756       86.045      100.113       50.333     7403.820    10022.567     2533.383        2.887        0.998      193.774       54.795        0.080      341.914       16.957      866.951
04/06/2014  15:09:00     -173.273      196.153      -51.848       70.469       63.150       43.084     4965.947     3987.965     1856.212        4.100        0.541      261.724       41.483        0.025      341.468       16.200      866.954
04/06/2014  15:10:00      -33.915      111.505       -2.761       56.262       83.741       49.836     3165.398     7012.563     2483.591        1.312        0.633      116.548       40.133        0.119      341.622       16.462      866.945
04/06/2014  15:11:00       -5.792      100.897       -7.089       70.038       77.061       31.754     4905.308     5938.357     1008.294        1.106        0.593      101.063       35.031        0.120      341.724       16.635      866.903
04/06/2014  15:12:00      -27.566       67.264       17.445       75.377       63.831       39.525     5681.630     4074.347     1562.256        0.845        0.566       72.693       36.251        0.249      342.098       17.269      866.869
04/06/2014  15:13:00      -99.652      125.753      -12.914       50.164       75.292       36.321     2516.406     5668.905     1319.183        1.771        0.475      160.451       22.984        0.021      341.933       16.990      866.855
04/06/2014  15:14:00       -6.062      -68.504       24.312       49.505       51.161       34.824     2450.755     2617.439     1212.712        0.580        0.314       68.772       24.245        0.124      341.808       16.779      866.826
04/06/2014  15:15:00      -26.086      -81.922        9.990      101.604       47.155       34.220    10323.288     2223.610     1171.020        1.060        0.686       85.975       35.839        0.174      342.056       17.200      866.794
04/06/2014  15:16:00        3.808      -68.677        5.125       29.855       54.483       22.527      891.331     2968.359      507.447        0.456        0.218       68.783       16.636        0.058      341.741       16.665      866.772
04/06/2014  15:17:00       14.591       10.746       29.424       18.470       24.518       19.494      341.136      601.129      380.008        0.126        0.066       18.121       12.903        0.507      342.261       17.548      866.755
04/06/2014  15:18:00        0.449       79.577        9.187       62.094       58.018       35.141     3855.704     3366.126     1234.882        0.744        0.423       79.579        7.715        0.009      342.276       17.572      866.746
04/06/2014  15:19:00     -140.255      102.105      -20.081      100.937       78.191       46.613    10188.340     6113.879     2172.747        2.448        0.924      173.485       42.810        0.061      342.282       17.582      866.744
04/06/2014  15:20:00     -108.734      -39.161        8.724      111.141       89.098       51.722    12352.411     7938.526     2675.157        1.819        1.148      115.571       47.611        0.170      342.419       17.815      866.738
04/06/2014  15:21:00      -18.595       70.694       18.906       56.991       78.129       41.512     3248.020     6104.204     1723.234        0.839        0.554       73.099       33.384        0.209      342.434       17.841      866.742
04/06/2014  15:22:00       54.360       78.577        9.865       83.289       84.175       53.704     6937.110     7085.510     2884.104        1.306        0.845       95.548       45.805        0.230      342.126       17.318      866.771
04/06/2014  15:23:00       87.192       82.947        9.708       64.385       54.956       38.343     4145.478     3020.112     1470.172        1.160        0.432      120.343       22.974        0.036      341.746       16.673      866.743
04/06/2014  15:24:00       -9.110       95.216      -12.099       36.869       39.597       25.188     1359.301     1567.888      634.437        0.643        0.178       95.651       21.499        0.051      341.683       16.565      866.736
04/06/2014  15:25:00      -26.085       48.141      -13.110       22.889       35.674       21.829      523.898     1272.602      476.525        0.272        0.114       54.754       15.446        0.080      341.998       17.100      866.715
04/06/2014  15:26:00      -58.528        9.924      -21.327       53.340       51.028       34.952     2845.114     2603.861     1221.612        0.532        0.334       59.364       12.679        0.046      342.203       17.449      866.686
04/06/2014  15:27:00       60.937       66.197       27.254      101.995       62.187       61.624    10403.052     3867.201     3797.522        1.345        0.903       89.975       34.332        0.146      342.297       17.608      866.679
04/06/2014  15:28:00      128.792      169.237       -2.135      126.599       59.475       54.604    16027.412     3537.268     2981.639        3.389        1.127      212.670       38.106        0.032      341.855       16.854      866.655
04/06/2014  15:29:00       30.640       48.335       21.944       64.172       74.768       52.831     4118.092     5590.255     2791.144        0.813        0.625       57.229       46.187        0.651      342.249       17.526      866.644
04/06/2014  15:30:00     -106.260       79.910      -14.663       79.240       62.965       40.848     6278.954     3964.619     1668.519        1.490        0.596      132.954       20.789        0.024      342.381       17.750      866.652
04/06/2014  15:31:00     -180.245       48.501      -15.251       76.671       68.389       44.320     5878.405     4676.992     1964.280        2.379        0.626      186.657       28.040        0.023      342.215       17.467      866.651
04/06/2014  15:32:00     -192.342      119.078      -43.903       64.060       80.475       44.373     4103.623     6476.303     1968.994        3.282        0.627      226.218       47.687        0.044      341.864       16.869      866.662
04/06/2014  15:33:00      -78.178       23.168        3.444       57.527       72.452       37.402     3309.387     5249.329     1398.926        0.831        0.498       81.539       24.116        0.087      342.227       17.489      866.643
04/06/2014  15:34:00     -101.719        1.296        5.256       76.609      135.687       41.793     5868.946    18410.866     1746.650        1.820        1.301      101.727       42.553        0.175      342.222       17.480      866.643
04/06/2014  15:35:00      -68.913      176.170       -9.064       51.114       64.850       50.700     2612.603     4205.473     2570.439        2.263        0.469      189.169       37.601        0.040      341.984       17.075      866.651
04/06/2014  15:36:00       12.502      163.092       -2.536       86.543      121.020       65.213     7489.669    14645.802     4252.788        2.657        1.319      163.571       64.299        0.155      341.941       17.001      866.633
04/06/2014  15:37:00      -48.390      342.713      -22.600       87.426      180.867       68.651     7643.292    32712.897     4712.922        8.268        2.253      346.112       83.490        0.058      341.906       16.942      866.612
04/06/2014  15:38:00     -182.446       29.171      -25.064      108.620       86.792       47.170    11798.342     7532.845     2224.979        2.816        1.078      184.764       43.024        0.054      342.304       17.617      866.614
04/06/2014  15:39:00     -154.319      -54.672      -22.663      145.618       86.944       40.800    21204.588     7559.319     1664.613        2.887        1.521      163.718       16.696        0.010      342.172       17.396      866.579
04/06/2014  15:40:00     -125.856      -83.263      -11.788      119.428       73.575       59.630    14262.937     5413.293     3555.765        2.307        1.162      150.905       53.422        0.125      342.207       17.452      866.577
04/06/2014  15:41:00     -160.172       -0.526      -10.490       78.725       71.250       46.968     6197.574     5076.543     2205.974        1.962        0.674      160.173       36.206        0.051      342.466       17.893      866.571
04/06/2014  15:42:00      -54.311       13.865        2.176       87.619       76.088       45.263     7677.176     5789.378     2048.697        0.933        0.776       56.053       24.329        0.188      342.382       17.751      866.565
04/06/2014  15:43:00      -68.651       28.831        9.295       70.576       99.924       50.723     4980.999     9984.809     2572.827        1.158        0.877       74.459       28.053        0.142      342.582       18.091      866.566
04/06/2014  15:44:00      -38.158      259.219      -13.182      119.870      146.460       64.001    14368.889    21450.675     4096.079        5.436        1.996      262.013       71.402        0.074      342.368       17.726      866.571
04/06/2014  15:45:00      -86.740      170.755      -23.484       75.115       96.428       38.967     5642.216     9298.322     1518.423        2.684        0.823      191.523       43.737        0.052      342.092       17.258      866.579
04/06/2014  15:46:00     -107.021      118.190      -17.789       68.141       70.913       49.762     4643.141     5028.636     2476.268        1.894        0.607      159.444       39.760        0.062      342.608       18.137      866.565
04/06/2014  15:47:00     -160.916      147.277      -41.343      115.517       77.824       49.931    13344.078     6056.536     2493.072        3.559        1.095      218.138       55.867        0.066      342.507       17.962      866.581
04/06/2014  15:48:00     -148.462       72.359      -15.864       88.987       70.972       48.373     7918.698     5036.995     2339.913        2.141        0.765      165.156       35.619        0.047      341.996       17.096      866.599
04/06/2014  15:49:00     -210.136       33.355      -33.453      109.097      127.243       49.239    11902.242    16190.813     2424.436        3.845        1.526      212.767       44.720        0.044      342.290       17.593      866.592
04/06/2014  15:50:00     -216.587      -93.067       -3.184      137.559      100.301       49.542    18922.567    10060.199     2454.415        4.350        1.572      235.736       65.092        0.076      342.008       17.116      866.584
04/06/2014  15:51:00     -212.611      -77.212      -10.214       81.590       61.190       40.245     6656.945     3744.199     1619.687        3.164        0.601      226.197       34.685        0.024      342.002       17.106      866.567
04/06/2014  15:52:00     -188.541       -6.439      -19.805       68.397       83.709       48.737     4678.201     7007.226     2375.265        2.502        0.703      188.651       46.257        0.060      342.225       17.481      866.570
04/06/2014  15:53:00     -203.202       17.860      -31.730       74.115       55.276       29.331     5492.985     3055.418      860.304        2.601        0.470      203.985       30.775        0.023      341.917       16.960      866.578
04/06/2014  15:54:00      -63.867       56.691       -8.045       65.273       93.064       32.538     4260.558     8660.829     1058.733        1.067        0.699       85.398       29.490        0.119      342.160       17.375      866.583
04/06/2014  15:55:00       79.555      -51.108      -13.314       52.007      120.175       43.709     2704.754    14441.930     1910.518        1.408        0.953       94.557       38.650        0.167      341.812       16.782      866.594
04/06/2014  15:56:00      -25.428      -79.246      -14.949       59.888       82.387       47.777     3586.537     6787.575     2282.623        0.990        0.633       83.226       16.225        0.038      342.164       17.382      866.515
04/06/2014  15:57:00      -20.972       13.060       30.731       45.078       51.638       31.750     2032.048     2666.462     1008.043        0.363        0.285       24.706       20.985        0.722      342.664       18.231      866.498
04/06/2014  15:58:00      -11.227       81.797        0.665       53.283      114.317       35.230     2839.116    13068.482     1241.122        1.198        0.857       82.563       50.949        0.381      342.583       18.094      866.502
04/06/2014  15:59:00       89.453      213.533       -4.630       97.827      104.080       63.181     9570.093    10832.641     3991.871        3.900        1.220      231.513       75.891        0.107      341.856       16.856      866.490
04/06/2014  16:00:00       80.523      231.715      -29.556       81.154      137.122       50.148     6585.997    18802.473     2514.834        4.447        1.395      245.308       67.476        0.076      342.040       17.169      866.467
04/06/2014  16:01:00      132.449      142.807       -4.303       69.193       77.342       58.623     4787.605     5981.786     3436.624        2.608        0.710      194.773       53.179        0.075      341.899       16.931      866.475
04/06/2014  16:02:00       44.960      170.211      -16.252       58.155       61.910       46.390     3382.009     3832.825     2151.988        2.031        0.468      176.049       39.297        0.050      341.868       16.880      866.459
04/06/2014  16:03:00      107.298       63.330       -4.163       35.931       80.081       35.639     1291.056     6412.940     1270.122        1.226        0.449      124.594       39.409        0.100      341.690       16.576      866.441
04/06/2014  16:04:00       20.864      -30.123       25.734       73.932       47.653       34.926     5465.894     2270.775     1219.830        0.548        0.448       36.643       26.060        0.506      341.800       16.764      866.383
04/06/2014  16:05:00       29.984      -60.105        8.555       42.235       48.174       27.341     1783.829     2320.722      747.530        0.472        0.243       67.168       19.308        0.083      341.838       16.830      866.338
04/06/2014  16:06:00       36.065      -35.195       -9.180       62.309       73.425       50.064     3882.472     5391.234     2506.360        0.720        0.589       50.392       44.362        0.775      342.117       17.302      866.305
04/06/2014  16:07:00       34.562      -56.738       18.376       51.725       88.444       65.258     2675.454     7822.368     4258.650        0.975        0.738       66.436       60.669        0.834      342.134       17.330      866.306
04/06/2014  16:08:00       49.282      -50.242        9.495       56.777       95.254       58.299     3223.595     9073.236     3398.764        1.037        0.785       70.378       67.582        0.922      342.142       17.345      866.322
04/06/2014  16:09:00        8.653      -46.919        0.746       23.773       29.528       30.597      565.173      871.915      936.147        0.232        0.119       47.710       15.964        0.112      342.224       17.484      866.343
04/06/2014  16:10:00      -57.382       47.517      -15.430       59.404       43.070       27.730     3528.861     1854.992      768.937        0.597        0.308       74.502       21.966        0.087      342.474       17.908      866.362
04/06/2014  16:11:00      -49.639      227.786      -13.031      109.137      146.395       64.995    11910.823    21431.575     4224.330        4.604        1.878      233.132       54.390        0.054      342.359       17.709      866.362
04/06/2014  16:12:00      -85.391      191.561      -37.775       59.458       60.573       32.712     3535.220     3669.139     1070.069        2.684        0.414      209.731       21.052        0.010      342.286       17.586      866.377
04/06/2014  16:13:00     -132.961      183.592      -40.820       87.113       69.506       37.743     7588.617     4831.036     1424.507        3.344        0.692      226.682       34.362        0.023      342.207       17.451      866.372
04/06/2014  16:14:00      -88.549       75.660      -12.933      101.606       49.544       34.488    10323.796     2454.613     1189.413        1.385        0.698      116.470       45.267        0.151      342.296       17.607      866.362
04/06/2014  16:15:00      -27.820       90.458       -7.902       35.499       56.077       30.592     1260.154     3144.576      935.887        0.718        0.267       94.639       26.665        0.079      342.089       17.255      866.339
04/06/2014  16:16:00     -109.261      111.219      -24.894       54.557       53.984       34.841     2976.436     2914.232     1213.882        1.601        0.355      155.909       34.442        0.049      342.285       17.586      866.329
04/06/2014  16:17:00     -109.890      112.829      -23.719       47.292       48.144       27.933     2236.491     2317.876      780.227        1.535        0.267      157.500       23.754        0.023      342.430       17.834      866.325
04/06/2014  16:18:00     -189.671      143.380      -41.502      118.868      125.014       55.376    14129.533    15628.433     3066.533        4.553        1.641      237.766       67.103        0.080      342.522       17.987      866.325
04/06/2014  16:19:00     -187.509      282.559      -41.567       85.120      119.648       64.292     7245.447    14315.721     4133.501        7.121        1.285      339.116       55.172        0.026      342.163       17.378      866.341
04/06/2014  16:20:00     -171.948      104.059      -35.354       64.221       78.799       47.027     4124.362     6209.290     2211.568        2.709        0.627      200.984       50.789        0.064      342.107       17.283      866.333
04/06/2014  16:21:00     -106.854      150.520      -11.280       65.359       65.011       51.577     4271.737     4226.444     2660.157        2.268        0.558      184.591       43.089        0.054      342.410       17.799      866.325
04/06/2014  16:22:00     -151.468      134.448      -44.636       55.810       83.410       43.800     3114.769     6957.294     1918.474        2.750        0.600      202.531       28.287        0.020      342.495       17.943      866.328
04/06/2014  16:23:00     -140.634      136.879      -10.910       88.584      103.519       54.930     7847.144    10716.123     3017.349        3.010        1.079      196.249       50.108        0.065      342.411       17.798      866.331
04/06/2014  16:24:00     -132.530      125.830      -11.322      103.757       75.994       57.663    10765.466     5775.144     3325.006        2.669        0.993      182.749       51.071        0.078      342.389       17.763      866.330
04/06/2014  16:25:00     -129.704      226.485      -26.075       68.344       77.529       51.346     4670.965     6010.744     2636.462        4.106        0.666      260.996       46.712        0.032      342.321       17.644      866.323
04/06/2014  16:26:00     -168.613      145.789      -39.460       61.352       61.385       49.201     3764.007     3768.098     2420.715        3.060        0.498      222.900       46.336        0.043      342.185       17.413      866.324
04/06/2014  16:27:00      -49.635      118.709      -27.624       68.648       45.337       29.032     4712.533     2055.402      842.843        1.246        0.381      128.668       24.869        0.037      342.001       17.105      866.317
04/06/2014  16:28:00        7.843      221.724      -24.836       66.472       87.237       40.864     4418.483     7610.263     1669.866        3.177        0.685      221.862       44.662        0.041      342.028       17.147      866.308
04/06/2014  16:29:00       -0.074      263.857      -33.029       37.856       74.199       31.639     1433.077     5505.440     1000.995        3.932        0.397      263.857       40.947        0.024      341.912       16.950      866.300
04/06/2014  16:30:00       52.466       82.643        7.000       80.110       53.665       36.190     6417.582     2879.912     1309.703        1.012        0.530       97.890       26.480        0.073      342.132       17.328      866.282
04/06/2014  16:31:00        2.613      -57.123        4.178       31.701       58.280       34.012     1004.941     3396.516     1156.825        0.442        0.278       57.182       32.525        0.324      342.308       17.628      866.262
04/06/2014  16:32:00       52.549       59.468       19.365       39.537       48.291       29.637     1563.210     2331.981      878.349        0.572        0.239       79.359       16.865        0.045      342.341       17.682      866.253
04/06/2014  16:33:00        1.160        0.072       -1.177       36.432       37.396       20.219     1327.306     1398.430      408.803        0.157        0.157        1.162        9.911       72.724      342.474       17.909      866.236
04/06/2014  16:34:00       20.856        2.263        2.645       27.203       28.286       27.624      740.010      800.083      763.102        0.137        0.115       20.979       14.151        0.455      342.199       17.442      866.224
04/06/2014  16:35:00       25.613       23.538       20.795       23.279       17.158       16.734      541.902      294.386      280.034        0.138        0.056       34.786        9.435        0.074      342.463       17.888      866.219
04/06/2014  16:36:00       35.470      110.697      -10.116       54.169       77.431       38.632     2934.262     5995.562     1492.445        1.202        0.521      116.241       38.052        0.107      342.435       17.843      866.223
04/06/2014  16:37:00       50.571      111.565        4.930       63.375       70.506       51.689     4016.361     4971.166     2671.804        1.334        0.583      122.492       43.021        0.123      342.205       17.450      866.219
04/06/2014  16:38:00       21.829      103.249       -4.256       76.361       87.262       56.426     5830.958     7614.660     3183.887        1.389        0.831      105.531       49.094        0.216      342.347       17.693      866.207
04/06/2014  16:39:00     -103.325      141.069      -22.989       82.039       97.932       40.466     6730.344     9590.584     1637.457        2.453        0.898      174.861       31.862        0.033      342.596       18.113      866.229
04/06/2014  16:40:00      -55.060      202.420      -18.630       62.989      107.745       48.363     3967.579    11609.063     2339.000        3.113        0.896      209.775       44.722        0.045      342.433       17.837      866.233
04/06/2014  16:41:00     -148.979       68.834      -13.784      100.297       72.266       48.239    10059.388     5222.362     2327.021        2.236        0.880      164.113       51.701        0.099      342.500       17.952      866.242
04/06/2014  16:42:00      -63.558       76.912       -4.004      103.884       91.782       41.490    10791.832     8423.911     1721.442        1.545        1.047       99.775       64.061        0.412      342.541       18.021      866.238
04/06/2014  16:43:00      -37.624      128.180       -9.827       69.319       57.663       49.162     4805.085     3325.029     2416.899        1.424        0.527      133.588       45.046        0.114      342.430       17.834      866.246
04/06/2014  16:44:00      -59.480      154.482      -25.079       71.453       74.347       34.790     5105.593     5527.439     1210.369        1.994        0.592      165.537       28.962        0.031      342.301       17.612      866.241
04/06/2014  16:45:00      -86.645        8.292        9.590       91.563       73.893       47.273     8383.848     5460.182     2234.751        1.187        0.804       87.040       54.804        0.396      342.803       18.467      866.224
04/06/2014  16:46:00      -70.117      134.742       -5.729       74.996      114.028       48.911     5624.413    13002.442     2392.274        2.206        1.051      151.894       67.589        0.198      342.523       17.991      866.243
04/06/2014  16:47:00     -111.147      165.906      -32.879       50.244       89.484       37.381     2524.428     8007.413     1397.309        2.644        0.596      199.696       45.474        0.052      342.173       17.396      866.257
04/06/2014  16:48:00     -127.383       17.171      -21.531       70.026       65.760       54.530     4903.692     4324.344     2973.565        1.459        0.610      128.535       44.378        0.119      342.618       18.151      866.249
04/06/2014  16:49:00      -45.410       31.268       34.048       60.584       47.451       38.513     3670.394     2251.590     1483.271        0.580        0.370       55.134       35.588        0.417      342.904       18.640      866.224
04/06/2014  16:50:00     -152.181      -51.942        2.199       73.601       60.448       39.292     5417.092     3653.943     1543.833        1.824        0.531      160.801       36.107        0.050      342.600       18.123      866.216
04/06/2014  16:51:00     -153.136       28.573      -16.719       63.304       69.587       30.267     4007.428     4842.419      916.082        1.715        0.488      155.779       21.577        0.019      342.482       17.922      866.210
04/06/2014  16:52:00      -86.664      117.452      -25.310       61.637      117.784       37.672     3799.087    13873.000     1419.206        2.051        0.955      145.964       26.791        0.034      342.375       17.738      866.212
04/06/2014  16:53:00     -271.978       -6.114      -24.371      126.145      118.240       46.387    15912.639    13980.587     2151.710        5.332        1.602      272.047       50.989        0.035      342.414       17.805      866.194
04/06/2014  16:54:00     -199.161      -72.543       -1.760      160.904       82.801       68.387    25889.945     6856.009     4676.770        4.117        1.871      211.961       88.135        0.173      342.508       17.964      866.174
04/06/2014  16:55:00     -149.888        2.655       -6.315      124.984       67.007       43.361    15620.998     4489.998     1880.189        2.225        1.100      149.912       54.950        0.134      342.616       18.148      866.181
04/06/2014  16:56:00     -200.566      -35.886       -1.278       89.916      117.125       51.824     8084.841    13718.185     2685.778        3.300        1.224      203.751       45.199        0.049      342.522       17.987      866.164
04/06/2014  16:57:00     -239.361      -32.864      -13.800       89.395       86.204       47.259     7991.466     7431.115     2233.367        3.811        0.883      241.607       43.930        0.033      342.483       17.921      866.159
04/06/2014  16:58:00     -219.495      -37.875      -24.452       81.182       60.568       32.528     6590.523     3668.484     1058.077        3.076        0.566      222.739       31.224        0.020      342.354       17.701      866.165
04/06/2014  16:59:00      -94.157      -14.749       -4.002       65.319       61.939       34.558     4266.616     3836.436     1194.271        0.920        0.465       95.305       31.775        0.111      342.715       18.319      866.167
04/06/2014  17:00:00     -171.287      -50.427      -16.052      100.717       59.627       56.882    10143.814     3555.328     3235.615        2.453        0.847      178.556       44.041        0.061      342.669       18.239      866.157
04/06/2014  17:01:00      -38.768       81.069       23.363       84.206       69.515       60.585     7090.584     4832.353     3670.512        1.210        0.780       89.862       52.245        0.338      342.667       18.237      866.163
04/06/2014  17:02:00      -65.691      133.276       -9.409       50.109       73.239       38.652     2510.866     5363.882     1494.011        1.577        0.468      148.586       36.782        0.061      342.402       17.786      866.161
04/06/2014  17:03:00     -110.185      -24.648        7.608       78.507       47.698       35.585     6163.372     2275.087     1266.285        1.125        0.485      112.908       34.597        0.094      342.878       18.597      866.153
04/06/2014  17:04:00      -74.599       57.904       -4.753       54.214       86.146       31.729     2939.135     7421.097     1006.706        1.015        0.568       94.435       27.058        0.082      342.585       18.098      866.154
04/06/2014  17:05:00       -9.924      139.923      -11.779       47.005       51.704       35.657     2209.465     2673.257     1271.395        1.298        0.308      140.275       29.718        0.045      342.463       17.889      866.149
04/06/2014  17:06:00      100.535      102.655       -6.817       56.624       51.781       43.544     3206.239     2681.323     1896.085        1.424        0.389      143.685       32.720        0.052      342.084       17.245      866.144
04/06/2014  17:07:00       44.563       82.600      -17.132       54.783       67.878       36.877     3001.195     4607.396     1359.879        0.903        0.448       93.855       37.016        0.156      342.093       17.262      866.152
04/06/2014  17:08:00       29.575      102.366      -14.687       28.822       41.001       33.494      830.691     1681.110     1121.822        0.760        0.182      106.552       30.920        0.084      342.067       17.218      866.158
04/06/2014  17:09:00       76.286       80.857        2.282       41.531       45.444       40.131     1724.809     2065.200     1610.500        0.888        0.270      111.164       29.724        0.071      342.090       17.258      866.156
04/06/2014  17:10:00      104.750       73.633       16.407       69.334       55.846       44.841     4807.266     3118.808     2010.758        1.330        0.497      128.041       21.099        0.027      342.148       17.354      866.144
04/06/2014  17:11:00        3.401      144.056      -21.303       96.735       61.543       40.382     9357.629     3787.508     1630.734        1.799        0.739      144.096       32.678        0.051      342.414       17.805      866.154
04/06/2014  17:12:00      -31.432      121.559       -9.826       42.581       71.876       28.891     1813.120     5166.211      834.686        1.184        0.391      125.557       33.027        0.069      342.581       18.090      866.166
04/06/2014  17:13:00      -97.274       81.396      -17.531       43.852       65.441       32.055     1923.025     4282.553     1027.543        1.181        0.362      126.836       30.700        0.059      342.797       18.458      866.177
04/06/2014  17:14:00      -17.753      115.424        2.541       39.461       87.564       43.085     1557.168     7667.471     1856.275        1.236        0.554      116.781       36.293        0.097      342.640       18.190      866.167
04/06/2014  17:15:00     -131.978       94.618      -12.733       90.601      164.614       54.964     8208.452    27097.661     3021.002        3.242        1.916      162.391       58.808        0.131      342.593       18.108      866.164
04/06/2014  17:16:00      -58.838      130.350      -16.496       69.910       75.489       44.572     4887.432     5698.516     1986.662        1.665        0.629      143.014       50.574        0.125      342.633       18.178      866.193
04/06/2014  17:17:00      -58.199      149.074      -10.670       59.978       76.390       37.685     3597.399     5835.407     1420.162        1.829        0.543      160.032       33.472        0.044      342.664       18.230      866.193
04/06/2014  17:18:00     -118.643      225.637      -31.856       63.821      104.739       43.646     4073.097    10970.237     1904.946        4.147        0.847      254.927       32.442        0.016      342.425       17.824      866.188
04/06/2014  17:19:00      -78.799      170.314      -12.012       73.624       94.446       47.812     5420.548     8920.066     2285.945        2.599        0.831      187.660       57.426        0.094      342.556       18.046      866.207
04/06/2014  17:20:00      -50.528      140.530      -12.664       60.347       59.371       38.254     3641.721     3524.874     1463.336        1.554        0.431      149.338       31.675        0.045      342.529       18.001      866.207
04/06/2014  17:21:00       11.750      175.085      -25.854       40.725       64.836       31.638     1658.551     4203.743     1000.955        1.916        0.343      175.478       34.826        0.039      342.398       17.778      866.207
04/06/2014  17:22:00      -76.186       55.934      -10.282       68.100       60.422       31.530     4637.632     3650.824      994.172        0.916        0.464       94.515       31.197        0.109      342.429       17.832      866.193
04/06/2014  17:23:00      -65.508      170.935      -21.629       73.744       68.439       40.409     5438.161     4683.849     1632.925        2.286        0.588      183.058       45.682        0.062      342.390       17.765      866.190
04/06/2014  17:24:00      -87.392      206.261      -16.343       64.338       61.132       40.633     4139.358     3737.105     1651.008        2.999        0.476      224.011       32.392        0.021      342.360       17.712      866.183
04/06/2014  17:25:00      -76.955       52.734      -19.069       58.546       68.209       25.471     3427.661     4652.482      648.753        0.890        0.436       93.289       35.943        0.148      342.255       17.535      866.176
04/06/2014  17:26:00       13.354      -16.206        4.208       19.652       21.492       24.341      386.216      461.907      592.474        0.095        0.072       20.999       16.384        0.609      342.270       17.563      866.130
04/06/2014  17:27:00       -2.335       38.659        7.255       24.684       24.278       26.472      609.304      589.414      700.747        0.173        0.095       38.730       11.286        0.085      342.166       17.385      866.141
04/06/2014  17:28:00      -23.865       67.127      -12.674       37.466       44.418       14.210     1403.687     1972.937      201.938        0.441        0.179       71.243       13.951        0.038      342.547       18.032      866.168
04/06/2014  17:29:00     -197.985      119.859      -40.404       62.053       52.388       36.636     3850.571     2744.538     1342.174        3.157        0.397      231.439       30.150        0.017      342.445       17.857      866.178
04/06/2014  17:30:00     -158.343      133.577      -43.725       53.825       47.719       27.857     2897.099     2277.104      775.986        2.539        0.298      207.160       22.522        0.012      342.209       17.458      866.181
04/06/2014  17:31:00      -47.028       86.977      -31.004       50.199       36.285       19.009     2519.982     1316.568      361.343        0.747        0.210       98.876       11.929        0.015      342.176       17.403      866.172
04/06/2014  17:32:00      -41.834       82.891       -8.507       50.063       45.821       30.146     2506.296     2099.605      908.763        0.710        0.276       92.850       31.499        0.115      342.329       17.662      866.158
04/06/2014  17:33:00     -116.126      116.512      -25.243       44.449       48.955       39.229     1975.704     2396.550     1538.934        1.680        0.296      164.500       30.051        0.033      342.502       17.957      866.158
04/06/2014  17:34:00      -57.546      190.015      -19.530       29.974       41.565       27.999      898.441     1727.690      783.956        2.160        0.171      198.538       13.483        0.005      342.361       17.714      866.163
04/06/2014  17:35:00      -72.350      187.631      -20.813       40.796       70.440       31.416     1664.341     4961.809      986.994        2.424        0.381      201.097       25.100        0.016      342.360       17.712      866.165
04/06/2014  17:36:00     -101.910      109.511      -10.442       52.483       75.208       41.613     2754.420     5656.280     1731.647        1.631        0.507      149.594       36.584        0.060      342.603       18.128      866.164
04/06/2014  17:37:00      -92.884      126.014      -18.578       43.195       65.302       31.918     1865.797     4264.381     1018.748        1.600        0.357      156.548       27.346        0.031      342.522       17.990      866.172
04/06/2014  17:38:00      -68.643      121.781       -5.046       69.928       81.374       42.001     4889.963     6621.671     1764.118        1.642        0.664      139.795       44.191        0.100      342.496       17.944      866.192
04/06/2014  17:39:00      -85.639      380.253      -54.748       64.963      117.381       40.687     4220.165    13778.400     1655.440        8.728        0.983      389.777       46.264        0.014      342.186       17.414      866.224
04/06/2014  17:40:00     -102.276      145.961      -23.070       77.450       72.695       37.365     5998.457     5284.616     1396.136        2.249        0.634      178.227       44.220        0.062      342.278       17.575      866.225
04/06/2014  17:41:00       37.078       58.874       -4.126       41.031       36.399       19.856     1683.549     1324.874      394.258        0.413        0.170       69.576        9.473        0.019      342.189       17.427      866.194
04/06/2014  17:42:00       17.064      246.427      -34.103       65.103       85.074       49.001     4238.424     7237.606     2401.077        3.803        0.694      247.017       35.892        0.021      342.118       17.301      866.207
04/06/2014  17:43:00     -110.995      317.359      -34.621       79.543       89.378       57.437     6327.103     7988.489     3299.051        6.592        0.881      336.209       46.918        0.019      342.275       17.567      866.204
04/06/2014  17:44:00     -175.292      310.441      -53.595       85.066       92.154       55.869     7236.247     8492.373     3121.295        7.441        0.942      356.512       54.689        0.024      342.240       17.509      866.230
04/06/2014  17:45:00     -129.768      226.051      -15.873       88.458       98.875       57.684     7824.892     9776.224     3327.428        4.456        1.046      260.651       60.715        0.054      342.365       17.721      866.241
04/06/2014  17:46:00      -88.056      244.545      -34.651       55.539       93.384       53.099     3084.571     8720.546     2819.475        4.169        0.731      259.915       56.860        0.048      342.245       17.518      866.256
04/06/2014  17:47:00      -24.054      234.704      -26.171       54.772       70.306       44.521     2999.940     4942.896     1982.141        3.314        0.496      235.933       43.785        0.034      342.124       17.310      866.252
04/06/2014  17:48:00      -12.887      212.087      -39.624       33.446       42.584       19.326     1118.606     1813.380      373.488        2.501        0.165      212.479        8.452        0.002      342.143       17.345      866.238
04/06/2014  17:49:00        9.493      106.601      -17.452       39.885       52.351       32.274     1590.784     2740.595     1041.613        0.856        0.269      107.023       26.992        0.064      342.228       17.491      866.228
04/06/2014  17:50:00        2.638      103.261       -4.391       26.538       61.315       25.691      704.249     3759.548      660.034        0.791        0.256      103.294       33.391        0.104      342.321       17.649      866.215
04/06/2014  17:51:00      -90.759       75.356      -17.635       36.078       41.098       22.296     1301.599     1689.059      497.097        0.886        0.174      117.965       20.925        0.031      342.657       18.220      866.224
04/06/2014  17:52:00      -77.302      221.193      -33.401       44.202      111.800       30.397     1953.839    12499.153      923.956        3.569        0.769      234.311       37.259        0.025      342.337       17.674      866.223
04/06/2014  17:53:00     -102.292      161.174      -27.639       75.736       72.704       42.688     5735.977     5285.916     1822.276        2.502        0.642      190.894       41.340        0.047      342.381       17.749      866.246
04/06/2014  17:54:00     -104.515      231.474      -23.454       48.649       69.348       40.918     2366.769     4809.101     1674.298        3.695        0.443      253.975       37.733        0.022      342.231       17.492      866.254
04/06/2014  17:55:00      -48.873      105.847      -11.146       45.796       75.514       29.380     2097.249     5702.294      863.161        1.119        0.433      116.586       33.248        0.081      342.188       17.421      866.266
04/06/2014  17:56:00      -69.792        2.478       27.141       78.403       35.108       34.553     6147.007     1232.569     1193.934        0.709        0.429       69.836       31.734        0.206      342.528       18.000      866.245
04/06/2014  17:57:00      -40.311      120.977      -14.290       42.986       79.494       31.150     1847.779     6319.324      970.293        1.280        0.457      127.516       36.196        0.081      342.380       17.749      866.258
04/06/2014  17:58:00     -140.470      114.483      -26.158       73.073      104.834       48.575     5339.685    10990.184     2359.542        2.610        0.934      181.213       43.510        0.058      342.444       17.856      866.259
04/06/2014  17:59:00      -69.737      153.731      -11.935       89.441      104.940       56.671     7999.680    11012.387     3211.589        2.543        1.111      168.809       45.244        0.072      342.461       17.885      866.272
04/06/2014  18:00:00      -73.412      266.528      -32.656       70.168       74.434       42.203     4923.548     5540.482     1781.069        4.487        0.612      276.453       43.375        0.025      342.185       17.414      866.275
04/06/2014  18:01:00      -80.409      224.022      -32.991       48.579       63.922       31.657     2359.918     4086.028     1002.181        3.259        0.372      238.016       29.519        0.015      342.191       17.424      866.277
04/06/2014  18:02:00       38.710      188.658      -18.563       81.200       97.911       57.468     6593.393     9586.660     3302.597        2.845        0.974      192.589       59.684        0.096      342.261       17.546      866.288
04/06/2014  18:03:00      -33.854      224.928      -26.431       77.166       93.722       39.362     5954.596     8783.754     1549.399        3.436        0.814      227.461       38.959        0.029      342.310       17.628      866.290
04/06/2014  18:04:00      -53.650      401.580      -52.174       74.651       68.820       40.053     5572.836     4736.191     1604.229        8.939        0.596      405.148       35.980        0.008      342.119       17.303      866.300
04/06/2014  18:05:00     -120.597      249.382      -38.283       57.069      108.612       42.167     3256.873    11796.612     1778.040        4.751        0.842      277.011       45.575        0.027      342.231       17.493      866.300
04/06/2014  18:06:00     -143.917      167.051      -19.193       87.321      103.292       44.619     7624.985    10669.235     1990.896        3.463        1.014      220.495       44.711        0.041      342.284       17.584      866.298
04/06/2014  18:07:00       -4.967      143.167        2.157       88.420       86.828       62.110     7818.082     7539.168     3857.644        1.987        0.961      143.253       58.717        0.168      342.289       17.594      866.307
04/06/2014  18:08:00      -55.736      291.715      -26.270       59.669      113.066       48.158     3560.332    12783.879     2319.194        5.377        0.933      296.991       58.905        0.039      342.178       17.402      866.325
04/06/2014  18:09:00      -85.671      310.757      -42.853       67.784      111.836       50.081     4594.628    12507.373     2508.079        6.267        0.981      322.350       43.076        0.018      342.188       17.419      866.341
04/06/2014  18:10:00     -148.740      183.087      -37.854       69.875       64.064       48.381     4882.556     4104.222     2340.684        3.420        0.566      235.891       46.989        0.040      342.238       17.504      866.349
04/06/2014  18:11:00     -118.750      112.296      -12.655       94.451       51.961       43.254     8920.957     2699.990     1870.897        2.018        0.675      163.438       46.257        0.080      342.162       17.376      866.347
04/06/2014  18:12:00      -43.098      103.314      -15.472       46.237       47.364       20.295     2137.885     2243.381      411.879        0.878        0.240      111.942       25.454        0.052      342.233       17.499      866.338
04/06/2014  18:13:00      -99.312      291.431      -46.290      106.099       69.512       43.101    11256.929     4831.970     1857.658        5.744        0.897      307.888       45.448        0.022      342.126       17.312      866.356
04/06/2014  18:14:00      -63.613      211.678      -27.622       48.707       82.959       36.696     2372.324     6882.219     1346.594        3.011        0.530      221.030       32.268        0.021      342.168       17.385      866.363
04/06/2014  18:15:00      -47.489      219.935      -19.077       68.354      101.271       42.570     4672.299    10255.865     1812.194        3.386        0.837      225.003       53.760        0.057      342.100       17.270      866.362
04/06/2014  18:16:00      -27.626      197.076      -29.709       35.913       87.139       27.724     1289.738     7593.174      768.616        2.507        0.483      199.002       40.968        0.042      342.075       17.227      866.346
04/06/2014  18:17:00        9.077       91.318      -10.206       32.176       57.601       22.180     1035.269     3317.864      491.954        0.668        0.242       91.768       16.671        0.033      342.165       17.385      866.334
04/06/2014  18:18:00      -25.480       92.563       -6.563       92.904       79.397       42.968     8631.060     6303.812     1846.257        1.302        0.839       96.006       54.508        0.322      342.150       17.358      866.323
04/06/2014  18:19:00       13.735      112.113        5.630       78.163       71.427       46.089     6109.488     5101.746     2124.161        1.306        0.667      112.951       44.105        0.152      342.157       17.370      866.342
04/06/2014  18:20:00       27.206      197.910      -19.101       56.273       95.683       58.328     3166.622     9155.190     3402.133        2.800        0.786      199.771       55.683        0.078      342.101       17.272      866.334
04/06/2014  18:21:00       18.246       95.995        1.102       51.119       77.121       47.912     2613.194     5947.585     2295.592        1.020        0.543       97.714       49.325        0.255      342.042       17.174      866.327
04/06/2014  18:22:00      -42.886      127.124      -23.574       46.216       48.730       24.096     2135.929     2374.602      580.602        1.182        0.255      134.163       22.989        0.029      342.103       17.279      866.321
04/06/2014  18:23:00      -73.681      174.275      -28.865       51.401       54.334       30.549     2642.038     2952.194      933.265        2.158        0.326      189.211       29.392        0.024      342.099       17.270      866.321
04/06/2014  18:24:00      -41.965      103.553        0.569       62.578       84.306       40.436     3916.006     7107.421     1635.064        1.257        0.633      111.733       41.996        0.141      342.158       17.369      866.341
04/06/2014  18:25:00      -18.451      148.697      -23.311       58.661       61.325       36.708     3441.073     3760.711     1347.512        1.577        0.427      149.838       33.608        0.050      342.115       17.297      866.342
04/06/2014  18:26:00      -49.667      181.389      -17.742       58.867       67.126       36.483     3465.336     4505.962     1330.985        2.249        0.465      188.066       37.056        0.039      342.006       17.112      866.339
04/06/2014  18:27:00       29.020      116.838      -12.886       44.452       45.501       33.110     1975.967     2070.357     1096.259        0.990        0.257      120.388       27.193        0.051      342.059       17.203      866.329
04/06/2014  18:28:00       20.531       85.343        7.038       48.534       85.844       38.323     2355.589     7369.244     1468.682        0.947        0.560       87.778       45.932        0.274      342.111       17.292      866.340
04/06/2014  18:29:00      105.682       93.028       10.044      110.198       71.167       52.255    12143.692     5064.799     2730.620        1.993        0.997      140.793       46.331        0.108      342.013       17.124      866.333
04/06/2014  18:30:00      123.430      114.225       20.517       83.162       63.174       45.856     6915.874     3990.992     2102.781        2.085        0.650      168.173       38.321        0.052      341.999       17.100      866.315
04/06/2014  18:31:00      106.739       99.063       11.620       58.782       48.206       47.651     3455.363     2323.792     2270.663        1.469        0.402      145.626       24.702        0.029      342.012       17.123      866.311
04/06/2014  18:32:00       41.964       34.774        7.213       48.323       31.727       28.074     2335.129     1006.621      788.167        0.358        0.206       54.500       16.974        0.097      341.964       17.042      866.325
04/06/2014  18:33:00       -4.544      169.573      -24.816       47.747       90.268       34.080     2279.732     8148.375     1161.449        2.049        0.579      169.634       46.448        0.075      342.061       17.205      866.336
04/06/2014  18:34:00      -14.487      255.073      -37.258       52.560       51.849       26.107     2762.554     2688.279      681.573        3.640        0.307      255.484       20.129        0.006      342.045       17.176      866.343
04/06/2014  18:35:00       55.015      126.562       -7.492       47.261       67.725       45.494     2233.630     4586.685     2069.708        1.399        0.445      138.002       43.048        0.097      342.038       17.168      866.342
04/06/2014  18:36:00       -0.405      194.393      -14.543       79.030       96.887       44.406     6245.747     9387.160     1971.876        2.780        0.880      194.393       51.406        0.070      342.021       17.136      866.338
04/06/2014  18:37:00      -41.781      219.834      -27.133       48.984       79.361       35.316     2399.425     6298.179     1247.239        3.037        0.497      223.769       36.659        0.027      342.057       17.198      866.339
04/06/2014  18:38:00      -41.983      222.595      -30.980       43.852       61.724       32.331     1922.960     3809.833     1045.287        2.952        0.339      226.520       30.900        0.019      342.050       17.185      866.329
04/06/2014  18:39:00       31.814      159.761      -20.949       67.159       99.168       37.372     4510.369     9834.269     1396.683        2.135        0.787      162.898       50.730        0.097      342.015       17.128      866.318
04/06/2014  18:40:00      -79.174      210.273      -26.743       60.059       88.697       32.513     3607.124     7867.177     1057.081        3.186        0.627      224.685       38.468        0.029      341.965       17.041      866.328
04/06/2014  18:41:00      -19.955      262.110      -42.508       65.419       87.740       40.778     4279.648     7698.316     1662.877        4.227        0.682      262.868       43.778        0.028      341.972       17.052      866.330
04/06/2014  18:42:00      -72.232      196.334      -31.028       57.258       55.951       35.733     3278.497     3130.557     1276.869        2.621        0.384      209.200       29.488        0.020      341.976       17.060      866.323
04/06/2014  18:43:00      -58.108      174.752      -23.381       59.655       59.551       34.251     3558.761     3546.267     1173.117        2.137        0.414      184.160       28.262        0.024      341.964       17.040      866.313
04/06/2014  18:44:00      -18.218      148.086        2.799       79.570       82.712       43.989     6331.335     6841.345     1935.052        1.869        0.755      149.202       38.533        0.067      342.031       17.155      866.313
04/06/2014  18:45:00       71.471       54.235        6.976       75.451       50.730       39.502     5692.906     2573.532     1560.395        0.896        0.491       89.719       34.774        0.150      341.935       16.993      866.322
04/06/2014  18:46:00       77.433       74.940       12.189       48.448       41.395       45.735     2347.175     1713.533     2091.652        0.896        0.308      107.758       21.367        0.039      341.898       16.931      866.311
04/06/2014  18:47:00       60.758      171.452      -19.018       58.887       80.802       58.116     3467.690     6528.916     3377.431        2.341        0.669      181.899       54.377        0.089      341.877       16.892      866.307
04/06/2014  18:48:00       72.007      126.268        9.906       61.190       80.910       59.990     3744.201     6546.473     3598.771        1.756        0.694      145.357       55.929        0.148      341.881       16.899      866.312
04/06/2014  18:49:00       50.604      135.113       -8.988       63.141       74.759       37.611     3986.795     5588.973     1414.593        1.594        0.550      144.279       40.754        0.080      341.894       16.922      866.325
04/06/2014  18:50:00       26.421      172.911       -9.764       42.406       81.044       38.896     1798.290     6568.122     1512.901        2.028        0.494      174.918       44.670        0.065      341.933       16.987      866.333
04/06/2014  18:51:00      -12.829      197.176      -30.133       38.230       53.629       19.613     1461.528     2876.062      384.664        2.234        0.236      197.593       21.513        0.012      341.955       17.026      866.336
04/06/2014  18:52:00        6.004       96.025       -5.517       35.361       45.993       30.135     1250.426     2115.383      908.112        0.678        0.214       96.212       27.290        0.080      341.927       16.979      866.344
04/06/2014  18:53:00       61.501      130.013        1.437       89.422       68.987       45.416     7996.206     4759.273     2062.595        1.775        0.741      143.825       53.842        0.140      341.870       16.881      866.339
04/06/2014  18:54:00       40.069      157.927      -21.540       50.522       46.134       31.198     2552.513     2128.356      973.312        1.633        0.283      162.931       23.037        0.020      341.868       16.879      866.344
04/06/2014  18:55:00        5.972      171.544      -23.624       53.401       61.203       27.873     2851.710     3745.855      776.877        1.870        0.369      171.648       26.811        0.024      341.910       16.949      866.359
04/06/2014  18:56:00      -42.028      213.382      -25.366       49.697       45.152       37.198     2469.830     2038.724     1383.674        2.692        0.295      217.482       29.860        0.019      341.882       16.900      866.379
04/06/2014  18:57:00      -22.872      151.518      -24.988       68.232      106.279       35.229     4655.578    11295.267     1241.079        2.065        0.860      153.235       41.025        0.072      341.877       16.894      866.383
04/06/2014  18:58:00       44.058      219.587      -26.012       64.061       87.502       43.976     4103.872     7656.642     1933.850        3.226        0.685      223.964       50.674        0.051      341.865       16.870      866.385
04/06/2014  18:59:00       -4.432      140.632      -10.979       65.311       75.028       41.256     4265.518     5629.174     1702.022        1.575        0.580      140.702       37.930        0.073      341.851       16.849      866.400
04/06/2014  19:00:00       -0.103      125.472       -9.298       39.726       57.814       23.837     1578.192     3342.480      568.191        1.066        0.274      125.473       20.428        0.027      341.873       16.888      866.416
04/06/2014  19:01:00       38.420       78.072      -13.331       25.854       38.183       23.926      668.422     1457.965      572.470        0.522        0.135       87.014       19.084        0.048      341.808       16.777      866.418
04/06/2014  19:02:00       46.123       93.535       -8.603       31.070       58.830       30.510      965.334     3460.947      930.858        0.815        0.268      104.289       35.476        0.116      341.790       16.747      866.416
04/06/2014  19:03:00       21.584      127.684       -2.259       61.016       75.344       32.515     3722.936     5676.670     1057.242        1.361        0.523      129.495       26.237        0.041      341.770       16.711      866.432
04/06/2014  19:04:00       22.834      168.707      -25.706       33.787       34.423       24.802     1141.531     1184.960      615.117        1.629        0.147      170.245       18.772        0.012      341.755       16.688      866.438
04/06/2014  19:05:00       70.294      126.680       -0.226       61.380       59.487       45.717     3767.504     3538.746     2090.059        1.519        0.470      144.876       50.754        0.123      341.729       16.643      866.436
04/06/2014  19:06:00       98.337      137.301       -8.642       83.162       86.161       55.601     6915.975     7423.751     3091.489        2.301        0.872      168.884       52.724        0.097      341.709       16.607      866.441
04/06/2014  19:07:00       42.174      175.408      -11.236       62.847      101.322       42.151     3949.758    10266.141     1776.676        2.433        0.800      180.406       55.376        0.094      341.717       16.621      866.452
04/06/2014  19:08:00       26.595      216.737      -24.432       49.932       95.904       38.531     2493.193     9197.630     1484.625        3.072        0.659      218.362       45.514        0.043      341.743       16.665      866.445
04/06/2014  19:09:00      -58.759      115.513      -18.601       45.322       50.458       32.354     2054.045     2545.972     1046.752        1.139        0.282      129.599       29.163        0.051      341.788       16.745      866.458
04/06/2014  19:10:00       -6.198      203.737      -31.811       36.692       55.539       24.936     1346.269     3084.562      621.823        2.380        0.253      203.831       28.679        0.020      341.747       16.672      866.449
04/06/2014  19:11:00      -53.427      288.343      -39.668       68.416       67.122       33.556     4680.734     4505.419     1126.021        4.894        0.516      293.251       17.317        0.003      341.732       16.643      866.436
04/06/2014  19:12:00      -40.393      237.486      -28.541       53.139       95.801       38.797     2823.763     9177.826     1505.181        3.617        0.675      240.897       50.135        0.043      341.712       16.611      866.439
04/06/2014  19:13:00      -11.076      253.380      -36.508       52.395       58.582       27.007     2745.217     3431.855      729.393        3.628        0.345      253.622       27.512        0.012      341.711       16.609      866.433
04/06/2014  19:14:00       -8.737      190.339      -26.464       47.964       50.263       27.346     2300.540     2526.348      747.802        2.129        0.279      190.539       24.793        0.017      341.696       16.585      866.428
04/06/2014  19:15:00       10.017      130.673      -18.545       38.521       43.975       29.866     1483.892     1933.834      891.958        1.091        0.215      131.057       25.822        0.039      341.665       16.535      866.426
04/06/2014  19:16:00      -54.067      110.880      -15.321       44.473       40.717       29.762     1977.844     1657.888      885.749        0.999        0.226      123.360       22.426        0.033      341.717       16.624      866.439
04/06/2014  19:17:00      -21.270      219.556      -28.306       45.894      102.267       26.695     2106.236    10458.628      712.644        3.137        0.664      220.584       34.729        0.025      341.693       16.582      866.422
04/06/2014  19:18:00      -41.429      278.397      -34.724       66.871       68.822       28.710     4471.762     4736.428      824.270        4.523        0.502      281.463       27.860        0.010      341.655       16.516      866.427
04/06/2014  19:19:00      -12.748      241.781      -36.537       55.423       55.003       35.420     3071.729     3025.276     1254.577        3.365        0.368      242.117       33.932        0.020      341.639       16.486      866.424
04/06/2014  19:20:00      -48.250      254.537      -34.734       43.555       55.618       30.262     1897.061     3093.355      915.798        3.711        0.295      259.070       28.559        0.012      341.642       16.493      866.430
04/06/2014  19:21:00       -6.441      213.846      -39.028       37.263       80.949       23.589     1388.552     6552.669      556.436        2.789        0.425      213.943       32.303        0.023      341.649       16.507      866.432
04/06/2014  19:22:00      -58.917      266.851      -39.670       30.228       61.688       21.724      913.712     3805.377      471.942        4.072        0.260      273.278       21.005        0.006      341.657       16.518      866.442
04/06/2014  19:23:00      -37.858      178.194      -21.085       59.539       44.244       22.184     3544.870     1957.528      492.147        1.981        0.300      182.171       20.021        0.012      341.617       16.452      866.455
04/06/2014  19:24:00      -81.354      162.700      -22.685       52.942       64.721       36.085     2802.866     4188.824     1302.104        2.095        0.415      181.905       28.327        0.024      341.646       16.501      866.457
04/06/2014  19:25:00      -61.288      228.580      -29.957       53.024       63.762       32.026     2811.534     4065.639     1025.651        3.240        0.395      236.654       30.463        0.017      341.628       16.470      866.462
04/06/2014  19:26:00      -36.835      217.244      -27.231       54.381       89.288       39.941     2957.311     7972.409     1595.289        3.091        0.626      220.344       50.564        0.053      341.569       16.369      866.461
04/06/2014  19:27:00      -93.605      108.796      -16.916       55.390       57.856       37.380     3068.054     3347.263     1397.261        1.435        0.391      143.522       32.720        0.052      341.576       16.382      866.470
04/06/2014  19:28:00      -44.111      194.092      -28.389       59.781       87.037       34.305     3573.720     7575.368     1176.831        2.637        0.616      199.041       36.221        0.033      341.579       16.387      866.478
04/06/2014  19:29:00      -46.521      216.266      -30.754       52.012       82.773       27.018     2705.285     6851.349      729.947        3.008        0.514      221.213       33.215        0.023      341.538       16.317      866.483
04/06/2014  19:30:00      -28.338      164.413      -23.834       57.389       65.482       23.230     3293.468     4287.898      539.628        1.826        0.406      166.837       25.216        0.023      341.507       16.265      866.504
04/06/2014  19:31:00      -43.353      171.227      -19.990       41.368       74.451       30.251     1711.298     5543.009      915.133        1.988        0.408      176.630       37.216        0.044      341.471       16.204      866.513
04/06/2014  19:32:00     -122.617      148.573      -34.198       52.861       53.915       31.795     2794.267     2906.792     1010.933        2.249        0.336      192.636       33.573        0.030      341.486       16.229      866.518
04/06/2014  19:33:00      -92.877      162.432      -27.390       53.118       62.673       39.418     2821.545     3927.875     1553.810        2.203        0.415      187.111       37.831        0.041      341.469       16.201      866.533
04/06/2014  19:34:00      -81.927      119.881      -16.247       60.726       57.886       34.017     3687.630     3350.809     1157.124        1.477        0.410      145.201       34.312        0.056      341.463       16.191      866.537
04/06/2014  19:35:00      -56.642      185.517      -23.043       50.602       63.670       33.104     2560.529     4053.931     1095.906        2.293        0.386      193.971       29.901        0.024      341.446       16.162      866.550
04/06/2014  19:36:00      -56.083      122.888      -15.000       51.513       80.872       33.533     2653.575     6540.261     1124.441        1.439        0.516      135.081       20.868        0.024      341.452       16.173      866.560
04/06/2014  19:37:00      -66.321      151.352      -17.372       40.449       60.792       27.195     1636.089     3695.643      739.588        1.684        0.304      165.245       27.000        0.027      341.391       16.070      866.566
04/06/2014  19:38:00      -97.567      158.518      -23.430       40.584       68.512       28.675     1647.069     4693.829      822.252        2.118        0.358      186.137       20.431        0.012      341.394       16.075      866.571
04/06/2014  19:39:00      -85.425      112.975      -21.407       36.669       50.274       28.197     1344.603     2527.455      795.066        1.259        0.233      141.636       28.151        0.040      341.369       16.034      866.571
04/06/2014  19:40:00     -136.674      136.106      -34.282       42.115       76.683       32.479     1773.686     5880.227     1054.910        2.354        0.435      192.885       32.991        0.029      341.295       15.905      866.575
04/06/2014  19:41:00      -90.315      130.890      -25.081       39.211       62.087       35.111     1537.511     3854.844     1232.775        1.627        0.331      159.025       27.740        0.030      341.242       15.820      866.584
04/06/2014  19:42:00     -124.193      147.441      -25.393       72.479       72.878       46.288     5253.140     5311.149     2142.609        2.525        0.635      192.776       49.377        0.066      341.185       15.720      866.579
04/06/2014  19:43:00      -97.533      134.340      -24.887       41.848       40.901       25.975     1751.260     1672.931      674.681        1.614        0.205      166.012       22.166        0.018      341.184       15.721      866.579
04/06/2014  19:44:00     -142.392      156.258      -29.379       50.713       66.695       34.741     2571.761     4448.264     1206.915        2.689        0.411      211.405       32.369        0.023      341.165       15.687      866.589
04/06/2014  19:45:00     -159.689      167.098      -29.610       88.138       91.844       45.778     7768.220     8435.376     2095.634        3.630        0.915      231.133       52.565        0.052      341.140       15.644      866.590
04/06/2014  19:46:00     -111.268      157.415      -29.265       56.735       79.676       35.626     3218.846     6348.309     1269.205        2.442        0.542      192.769       29.582        0.024      341.114       15.601      866.603
04/06/2014  19:47:00     -163.148      149.926      -35.882       48.991       74.495       36.292     2400.075     5549.549     1317.096        2.982        0.463      221.574       36.882        0.028      341.094       15.565      866.609
04/06/2014  19:48:00     -124.101      163.914      -25.006       54.790       59.658       38.842     3001.956     3559.063     1508.672        2.548        0.403      205.594       31.223        0.023      341.020       15.439      866.610
04/06/2014  19:49:00     -112.232      102.705      -24.319       57.694       44.212       20.844     3328.649     1954.701      434.476        1.473        0.286      152.133       24.554        0.026      341.005       15.417      866.613
04/06/2014  19:50:00      -88.824       67.193       -4.776       31.337       44.876       26.712      982.019     2013.868      713.552        0.807        0.185      111.376       24.685        0.049      341.017       15.436      866.620
04/06/2014  19:51:00      -67.224       93.508      -17.356       53.115       44.783       30.950     2821.167     2005.500      957.888        0.967        0.289      115.164       32.941        0.082      340.913       15.260      866.626
04/06/2014  19:52:00     -110.125      125.228      -17.309       48.718       68.479       33.458     2373.484     4689.388     1119.415        1.814        0.409      166.762       39.743        0.057      340.813       15.092      866.636
04/06/2014  19:53:00     -126.444      112.328      -21.150       40.161       56.892       30.667     1612.940     3236.675      940.447        1.742        0.290      169.133       22.889        0.018      340.848       15.152      866.649
04/06/2014  19:54:00     -133.159      137.177      -37.129       53.553       65.109       30.490     2867.964     4239.122      929.651        2.298        0.402      191.178       36.386        0.036      340.779       15.032      866.665
04/06/2014  19:55:00      -98.008      132.076      -13.046       61.257       45.239       36.647     3752.427     2046.590     1343.004        1.718        0.357      164.467       27.048        0.027      340.722       14.939      866.666
04/06/2014  19:56:00     -136.873      117.355      -17.705       60.282       59.863       38.069     3633.923     3583.607     1449.268        2.074        0.433      180.295       33.025        0.034      340.714       14.924      866.673
04/06/2014  19:57:00      -95.163      101.281      -19.126       49.120       36.746       28.514     2412.811     1350.268      813.044        1.213        0.229      138.975       14.796        0.011      340.701       14.902      866.673
04/06/2014  19:58:00     -111.911      134.294      -22.381       61.115       56.494       40.371     3735.073     3191.625     1629.838        1.981        0.428      174.811       31.518        0.033      340.725       14.942      866.668
04/06/2014  19:59:00     -141.785      128.477      -32.292       58.956       54.176       38.741     3475.794     2935.035     1500.882        2.278        0.396      191.336       32.906        0.030      340.738       14.963      866.668
04/06/2014  20:00:00     -135.183      142.499      -31.105       81.709       92.921       49.379     6676.381     8634.398     2438.279        2.864        0.887      196.419       57.927        0.087      340.705       14.910      866.662
04/06/2014  20:01:00      -98.690      150.670      -23.357       57.852       64.478       37.099     3346.809     4157.429     1376.355        2.093        0.444      180.114       35.326        0.038      340.682       14.871      866.654
04/06/2014  20:02:00      -89.854       81.847      -16.552       64.399       58.749       32.414     4147.294     3451.403     1050.679        1.185        0.432      121.543       25.358        0.044      340.768       15.017      866.650
04/06/2014  20:03:00     -131.890      172.365      -34.225       62.121       62.951       42.775     3859.027     3962.849     1829.720        2.896        0.483      217.036       38.395        0.031      340.667       14.843      866.651
04/06/2014  20:04:00     -147.597      170.389      -40.980       68.039       86.399       49.578     4629.305     7464.710     2458.020        3.352        0.728      225.427       52.620        0.054      340.664       14.839      866.656
04/06/2014  20:05:00      -76.234      153.758       -9.165       50.413       71.404       40.151     2541.431     5098.573     1612.084        1.939        0.463      171.619       37.177        0.047      340.643       14.803      866.668
04/06/2014  20:06:00     -112.174      167.865      -32.306       50.258       96.646       35.838     2525.897     9340.523     1284.385        2.748        0.658      201.895       41.578        0.042      340.673       14.854      866.677
04/06/2014  20:07:00     -118.278      144.593      -34.312       50.818       50.821       32.983     2582.474     2582.823     1087.862        2.116        0.313      186.807       20.294        0.012      340.668       14.845      866.698
04/06/2014  20:08:00      -91.413      118.423      -14.549       66.576       61.927       39.921     4432.389     3835.013     1593.690        1.622        0.493      149.600       40.753        0.074      340.664       14.839      866.716
04/06/2014  20:09:00      -86.828      106.063      -10.380       59.871       69.437       40.401     3584.494     4821.554     1632.213        1.447        0.502      137.071       44.938        0.107      340.617       14.762      866.726
04/06/2014  20:10:00     -117.118       95.179      -15.264       57.940       60.308       36.310     3357.075     3637.035     1318.424        1.566        0.416      150.917       29.323        0.038      340.601       14.734      866.749
04/06/2014  20:11:00      -96.268      154.115      -30.317       57.413       71.982       33.345     3296.284     5181.429     1111.886        2.176        0.479      181.711       33.824        0.035      340.620       14.766      866.752
04/06/2014  20:12:00      -83.958      109.500      -25.509       54.028       51.619       32.902     2919.050     2664.497     1082.562        1.318        0.333      137.982       26.220        0.036      340.589       14.713      866.761
04/06/2014  20:13:00      -27.826      131.909      -23.715       48.284       59.242       28.281     2331.377     3509.595      799.828        1.269        0.332      134.812       31.791        0.056      340.598       14.728      866.771
04/06/2014  20:14:00      -74.176       91.095       -4.711       57.347       53.989       36.015     3288.638     2914.832     1297.069        1.066        0.375      117.475       29.696        0.064      340.574       14.689      866.776
04/06/2014  20:15:00      -93.835       95.220      -16.567       44.624       41.873       35.844     1991.294     1753.371     1284.766        1.159        0.251      133.686       28.876        0.047      340.542       14.634      866.793
04/06/2014  20:16:00      -74.140       76.334      -12.559       35.372       50.090       30.734     1251.161     2508.978      944.548        0.809        0.235      106.413       26.032        0.060      340.580       14.699      866.800
04/06/2014  20:17:00      -51.128      143.494      -15.256       44.346       58.680       32.275     1966.567     3443.379     1041.664        1.494        0.323      152.331       33.248        0.048      340.520       14.596      866.813
04/06/2014  20:18:00      -67.441      171.638      -23.871       59.026       74.794       37.429     3484.012     5594.140     1400.933        2.253        0.524      184.413       42.439        0.053      340.572       14.683      866.823
04/06/2014  20:19:00      -67.052      163.630      -21.520       45.001       62.811       33.787     2025.060     3945.231     1141.543        1.942        0.356      176.835       32.565        0.034      340.527       14.608      866.836
04/06/2014  20:20:00      -65.884      160.217      -24.776       45.594       76.605       40.276     2078.834     5868.353     1622.193        2.009        0.478      173.234       35.808        0.043      340.545       14.638      866.837
04/06/2014  20:21:00      -38.759       75.943        3.959       53.509       49.533       30.975     2863.195     2453.524      959.467        0.678        0.314       85.261       25.241        0.088      340.491       14.549      866.845
04/06/2014  20:22:00      -48.742      145.211      -19.838       41.561       88.456       29.871     1727.323     7824.441      892.284        1.715        0.522      153.173       35.068        0.052      340.581       14.699      866.848
04/06/2014  20:23:00      -38.513      151.729      -21.062       51.998       61.568       37.361     2703.748     3790.655     1395.871        1.642        0.395      156.541       38.351        0.060      340.502       14.566      866.862
04/06/2014  20:24:00      -46.550      146.698      -21.685       75.258       75.245       34.336     5663.693     5661.770     1178.949        1.833        0.625      153.906       35.892        0.054      340.463       14.499      866.870
04/06/2014  20:25:00      -41.390      167.207      -27.652       38.533       63.530       32.448     1484.800     4036.087     1052.865        1.850        0.329      172.254       36.078        0.044      340.509       14.578      866.882
04/06/2014  20:26:00      -38.062      178.429      -15.066       58.158       61.979       30.340     3382.314     3841.431      920.509        2.083        0.407      182.444       31.826        0.030      340.446       14.470      866.886
04/06/2014  20:27:00     -100.094      168.905      -24.330       59.745       86.720       32.733     3569.486     7520.403     1071.472        2.565        0.608      196.336       33.291        0.029      340.480       14.527      866.895
04/06/2014  20:28:00      -94.255      211.477      -36.295       47.501       60.248       34.874     2256.364     3629.853     1216.174        3.101        0.355      231.531       30.853        0.018      340.458       14.488      866.907
04/06/2014  20:29:00      -62.378      216.667      -36.678       55.903       62.695       33.886     3125.150     3930.648     1148.262        3.019        0.410      225.468       19.877        0.008      340.447       14.471      866.917
04/06/2014  20:30:00      -77.722      202.919      -20.193       61.277       76.550       38.929     3754.882     5859.873     1515.492        2.938        0.557      217.294       33.518        0.024      340.415       14.417      866.942
04/06/2014  20:31:00     -119.564      212.122      -32.230       51.973       82.703       41.507     2701.148     6839.743     1722.864        3.579        0.563      243.498       38.417        0.025      340.419       14.420      866.953
04/06/2014  20:32:00      -65.625      188.980      -19.560       53.097       67.446       40.046     2819.332     4549.026     1603.694        2.469        0.449      200.051       30.992        0.024      340.456       14.486      866.974
04/06/2014  20:33:00     -143.330      149.300      -30.224       83.932       99.360       43.987     7044.500     9872.399     1934.813        3.130        0.943      206.963       49.529        0.057      340.421       14.428      866.995
04/06/2014  20:34:00      -56.114      126.673       -8.013       40.569       69.512       31.614     1645.805     4831.928      999.439        1.337        0.374      138.546       31.137        0.051      340.409       14.409      867.024
04/06/2014  20:35:00     -110.353      242.763      -33.986       82.443       96.023       39.167     6796.856     9220.456     1534.063        4.491        0.878      266.668       36.057        0.018      340.379       14.356      867.047
04/06/2014  20:36:00     -112.769      166.892      -27.709       53.328       88.046       37.699     2843.876     7752.043     1421.217        2.668        0.601      201.420       33.327        0.027      340.384       14.364      867.075
04/06/2014  20:37:00      -66.231      139.560       -6.972       55.832       64.238       42.897     3117.208     4126.523     1840.177        1.650        0.454      154.479       34.411        0.050      340.361       14.326      867.091
04/06/2014  20:38:00      -61.503      102.056       -5.613       35.588       48.341       26.793     1266.514     2336.831      717.864        0.927        0.216      119.156       20.902        0.031      340.372       14.349      867.103
04/06/2014  20:39:00      -78.032       71.851       -1.225       72.413       43.286       32.305     5243.598     1873.667     1043.623        0.971        0.408      106.074       24.425        0.053      340.444       14.467      867.122
04/06/2014  20:40:00     -118.287      184.880      -41.206       47.760       80.730       36.024     2281.012     6517.368     1297.708        2.998        0.505      219.482       40.552        0.034      340.388       14.369      867.137
04/06/2014  20:41:00      -68.372      157.761      -18.489       57.627       75.349       33.562     3320.832     5677.404     1126.376        2.001        0.506      171.940       32.046        0.035      340.410       14.411      867.146
04/06/2014  20:42:00     -104.512      150.343      -26.035       69.273       81.659       44.545     4798.695     6668.251     1984.294        2.382        0.673      183.100       45.317        0.061      340.428       14.441      867.167
04/06/2014  20:43:00      -80.951      102.861      -12.864       52.661       67.592       31.159     2773.202     4568.683      970.873        1.280        0.416      130.895       24.161        0.034      340.418       14.424      867.175
04/06/2014  20:44:00      -99.207      141.366      -30.688       49.522       41.369       24.923     2452.402     1711.373      621.146        1.778        0.239      172.703       22.876        0.018      340.411       14.412      867.188
04/06/2014  20:45:00      -95.098      117.571      -12.841       54.815       60.112       34.787     3004.699     3613.397     1210.111        1.543        0.391      151.217       32.374        0.046      340.402       14.397      867.201
04/06/2014  20:46:00     -126.882      128.613      -30.064       54.568       56.994       30.571     2977.697     3248.260      934.582        2.035        0.358      180.666       31.299        0.030      340.433       14.448      867.215
04/06/2014  20:47:00      -72.324      172.515      -24.617       59.348       82.427       39.486     3522.199     6794.266     1559.116        2.373        0.594      187.062       26.549        0.020      340.412       14.414      867.237
04/06/2014  20:48:00     -114.988      113.909      -24.926       68.161       45.565       34.078     4645.882     2076.167     1161.300        1.735        0.394      161.857       29.964        0.034      340.424       14.433      867.246
04/06/2014  20:49:00     -120.565       91.651      -26.472       50.380       59.736       30.957     2538.178     3568.376      958.306        1.535        0.353      151.446       20.564        0.018      340.436       14.454      867.257
04/06/2014  20:50:00     -114.771      121.193      -30.309       48.392       61.851       32.537     2341.830     3825.597     1058.679        1.800        0.361      166.914       37.227        0.050      340.386       14.370      867.280
04/06/2014  20:51:00      -75.443       89.851      -15.502       53.771       52.294       32.953     2891.295     2734.611     1085.932        1.036        0.336      117.324       29.800        0.065      340.394       14.383      867.282
04/06/2014  20:52:00      -78.583       77.457      -20.066       24.799       34.897       26.766      615.009     1217.810      716.397        0.756        0.127      110.340       14.095        0.016      340.392       14.381      867.294
04/06/2014  20:53:00      -77.966       83.122      -11.704       39.675       56.422       28.159     1574.145     3183.438      792.945        0.934        0.278      113.965       32.162        0.080      340.402       14.398      867.308
04/06/2014  20:54:00      -71.676      115.579      -12.472       47.240       66.462       33.620     2231.612     4417.138     1130.295        1.321        0.389      136.000       34.847        0.066      340.379       14.359      867.326
04/06/2014  20:55:00     -103.924      111.405      -28.155       66.799       48.018       35.348     4462.045     2305.715     1249.467        1.601        0.401      152.352       36.166        0.056      340.364       14.333      867.340
04/06/2014  20:56:00      -75.972      104.374      -19.386       49.643       46.503       28.700     2464.412     2162.540      823.698        1.124        0.273      129.096       25.174        0.038      340.375       14.351      867.362
04/06/2014  20:57:00      -94.085       95.898       -5.995       42.685       56.972       38.730     1821.992     3245.843     1499.991        1.232        0.328      134.345       36.128        0.072      340.325       14.265      867.371
04/06/2014  20:58:00      -12.840       79.740       -0.777       41.382       71.670       33.588     1712.477     5136.550     1128.142        0.725        0.399       80.767       40.395        0.250      340.304       14.232      867.385
04/06/2014  20:59:00      -32.248       61.535      -12.606       54.183       48.333       26.915     2935.806     2336.084      724.417        0.549        0.300       69.473       33.193        0.228      340.237       14.117      867.402
04/06/2014  21:00:00       -7.750      110.177      -19.073       38.356       28.477       17.864     1471.155      810.923      319.132        0.758        0.130      110.450       14.110        0.016      340.274       14.181      867.415
04/06/2014  21:01:00      -10.577       83.518      -14.680       41.125       37.439       20.889     1691.230     1401.670      436.370        0.542        0.176       84.185       25.572        0.092      340.243       14.129      867.420
04/06/2014  21:02:00      -40.085       97.729      -17.225       37.111       53.045       18.179     1377.234     2813.725      330.477        0.799        0.226      105.631       17.623        0.028      340.313       14.248      867.441
04/06/2014  21:03:00      -64.958       36.395       -4.116       41.559       30.919       25.912     1727.122      955.969      671.454        0.446        0.168       74.459       20.156        0.073      340.379       14.358      867.452
04/06/2014  21:04:00      -77.884      108.523      -16.866       37.569       68.065       26.664     1411.394     4632.878      710.977        1.244        0.338      133.578       20.118        0.023      340.409       14.410      867.458
04/06/2014  21:05:00     -116.156       88.583      -22.420       48.832       53.584       27.827     2384.580     2871.275      774.336        1.393        0.302      146.079       20.818        0.020      340.342       14.295      867.469
04/06/2014  21:06:00      -91.839       62.500      -15.351       41.449       36.539       24.357     1717.987     1335.089      593.283        0.811        0.182      111.089       16.992        0.023      340.429       14.444      867.478
04/06/2014  21:07:00     -123.469       82.607      -28.909       51.405       39.994       24.518     2642.506     1599.497      601.143        1.387        0.242      148.555       20.638        0.019      340.324       14.265      867.497
04/06/2014  21:08:00     -161.088      106.531      -28.953       64.396       72.209       38.376     4146.795     5214.157     1472.683        2.448        0.542      193.127       39.920        0.043      340.356       14.317      867.499
04/06/2014  21:09:00     -172.097      131.050      -37.453       42.972       58.164       36.788     1846.570     3383.036     1353.359        2.739        0.329      216.313       33.251        0.024      340.342       14.293      867.498
04/06/2014  21:10:00     -176.480      151.223      -40.980       71.177       64.561       48.050     5066.169     4168.089     2308.777        3.362        0.577      232.408       45.711        0.039      340.279       14.185      867.504
04/06/2014  21:11:00     -108.372       81.572      -10.721       60.771       54.210       32.752     3693.139     2938.767     1072.676        1.311        0.385      135.641       32.492        0.057      340.292       14.210      867.517
04/06/2014  21:12:00     -112.471       69.055      -11.568       60.515       77.300       32.507     3662.089     5975.335     1056.691        1.412        0.535      131.978       36.927        0.078      340.314       14.248      867.518
04/06/2014  21:13:00     -116.262       63.402      -15.049       52.656       48.775       32.189     2772.687     2378.995     1036.143        1.197        0.309      132.426       22.128        0.028      340.279       14.189      867.516
04/06/2014  21:14:00     -116.411       97.453      -19.596       48.956       43.536       33.744     2396.701     1895.411     1138.687        1.443        0.272      151.818       30.155        0.039      340.184       14.028      867.527
04/06/2014  21:15:00     -106.281       46.479      -14.740       28.081       33.431       26.109      788.516     1117.618      681.701        0.813        0.129      116.000        9.883        0.007      340.260       14.158      867.535
04/06/2014  21:16:00      -94.906        5.141      -12.212       45.112       36.516       20.770     2035.122     1333.444      431.373        0.649        0.190       95.045        5.392        0.003      340.310       14.242      867.538
04/06/2014  21:17:00      -51.740        9.806       -2.135       43.200       41.597       24.532     1866.246     1730.281      601.831        0.349        0.210       52.661       23.858        0.205      340.209       14.072      867.544
04/06/2014  21:18:00      -42.639        5.233       -5.144       24.317       35.448       19.156      591.305     1256.566      366.938        0.204        0.111       42.959       10.985        0.065      340.204       14.063      867.570
04/06/2014  21:19:00      -89.874      -23.096      -11.434       28.932       26.965       16.739      837.089      727.127      280.182        0.529        0.092       92.794       18.111        0.038      339.920       13.583      867.601
04/06/2014  21:20:00     -119.464      -39.588      -13.685       38.042       38.729       20.348     1447.169     1499.957      414.044        0.969        0.168      125.852        9.622        0.006      339.835       13.441      867.609
04/06/2014  21:21:00     -143.654      -44.170      -12.221       38.410       31.581       20.948     1475.336      997.366      438.809        1.282        0.146      150.292       19.342        0.017      339.796       13.375      867.627
04/06/2014  21:22:00     -110.287      -10.759      -13.714       50.127       36.771       22.138     2512.672     1352.125      490.082        0.841        0.218      110.810       21.374        0.037      339.805       13.391      867.639
04/06/2014  21:23:00      -70.312      -36.345        2.114       36.235       25.739       18.359     1312.976      662.476      337.051        0.429        0.116       79.150       18.514        0.055      339.767       13.325      867.665
04/06/2014  21:24:00        4.649      -23.457       14.566       27.640       27.055       19.546      763.985      731.957      382.028        0.133        0.094       23.914       18.437        0.594      339.543       12.948      867.685
04/06/2014  21:25:00      -35.722      -21.299        9.421       43.043       32.192       17.549     1852.670     1036.338      307.964        0.251        0.160       41.590       22.418        0.291      339.638       13.108      867.706
04/06/2014  21:26:00      -95.158      -35.445      -11.245       45.095       32.433       20.217     2033.564     1051.887      408.745        0.697        0.175      101.545       17.623        0.030      339.704       13.220      867.722
04/06/2014  21:27:00      -47.677      -50.391        3.545       45.962       25.697       23.674     2112.537      660.354      560.464        0.408        0.167       69.371       10.105        0.021      339.672       13.165      867.744
04/06/2014  21:28:00      -56.502      -41.871       10.862       61.421       55.885       36.591     3772.503     3123.176     1338.934        0.665        0.412       70.325       39.904        0.322      339.392       12.692      867.754
04/06/2014  21:29:00     -127.572      -48.655       -5.770       49.836       37.671       27.753     2483.620     1419.132      770.210        1.167        0.234      136.536       26.342        0.037      339.260       12.470      867.767
04/06/2014  21:30:00      -43.639      -52.702       -5.102       55.916       36.631       35.258     3126.618     1341.798     1243.150        0.521        0.286       68.424       29.248        0.183      339.209       12.387      867.776
04/06/2014  21:31:00      -27.547       -6.989       36.839       85.677       36.038       35.184     7340.503     1298.765     1237.911        0.602        0.494       28.420       44.675        2.471      339.221       12.405      867.787
04/06/2014  21:32:00     -105.153      -28.517        9.326       58.436       65.725       28.306     3414.713     4319.836      801.246        1.024        0.427      108.951       32.768        0.090      339.347       12.619      867.809
04/06/2014  21:33:00     -159.402      -29.622      -14.808       42.672       37.036       23.751     1820.870     1371.664      564.101        1.513        0.188      162.131       20.456        0.016      339.456       12.802      867.818
04/06/2014  21:34:00     -150.980       10.599      -14.140       47.463       49.168       27.909     2252.727     2417.524      778.888        1.428        0.272      151.351       25.301        0.028      339.449       12.789      867.827
04/06/2014  21:35:00     -119.505       -1.059      -11.167       38.494       35.706       23.460     1481.816     1274.902      550.364        0.886        0.165      119.510       21.003        0.031      339.540       12.942      867.834
04/06/2014  21:36:00     -111.642      -11.363      -10.967       31.528       40.123       22.281      994.018     1609.842      496.441        0.791        0.155      112.219       15.677        0.020      339.647       13.124      867.843
04/06/2014  21:37:00     -125.567      -14.003      -12.802       41.886       45.301       23.037     1754.460     2052.181      530.700        1.023        0.217      126.345       18.026        0.020      339.655       13.137      867.842
04/06/2014  21:38:00     -116.403      -62.042       -3.080       38.787       25.604       17.201     1504.428      655.563      295.887        0.993        0.123      131.905       14.316        0.012      339.462       12.810      867.835
04/06/2014  21:39:00      -60.793      -35.004       -1.311       62.102       27.175       30.802     3856.647      738.473      948.751        0.523        0.277       70.151       33.691        0.231      339.506       12.887      867.842
04/06/2014  21:40:00     -103.727      -52.023       -3.097       36.274       22.051       16.814     1315.829      486.263      282.702        0.778        0.104      116.041       13.983        0.015      339.435       12.766      867.860
04/06/2014  21:41:00      -87.636      -49.536       -3.659       39.221       25.333       21.747     1538.317      641.758      472.937        0.640        0.133      100.667       15.617        0.024      339.510       12.892      867.876
04/06/2014  21:42:00      -80.842      -42.711       -6.271       49.373       28.460       19.329     2437.661      809.962      373.621        0.601        0.181       91.431       19.176        0.044      339.464       12.816      867.878
04/06/2014  21:43:00      -81.145      -50.054        1.718       46.310       34.000       20.802     2144.651     1155.980      432.723        0.641        0.187       95.341       24.941        0.068      339.455       12.801      867.877
04/06/2014  21:44:00      -42.700       -8.771       11.078       50.990       28.910       22.442     2599.983      835.809      503.636        0.298        0.197       43.592       22.916        0.276      339.400       12.707      867.885
04/06/2014  21:45:00      -96.901      -10.204       -5.270       37.253       21.908       17.760     1387.772      479.964      315.409        0.585        0.109       97.437       17.815        0.033      339.529       12.926      867.892
04/06/2014  21:46:00     -117.254      -27.380      -11.236       36.486       23.062       14.272     1331.219      531.876      203.692        0.835        0.103      120.409       14.376        0.014      339.392       12.692      867.897
04/06/2014  21:47:00     -111.504      -39.884      -10.381       18.164       13.684       12.453      329.927      187.244      155.084        0.740        0.034      118.422        6.389        0.003      339.399       12.706      867.895
04/06/2014  21:48:00      -66.602      -19.746        1.132       26.201       24.018       13.255      686.467      576.852      175.686        0.313        0.072       69.468       13.916        0.040      339.435       12.767      867.911
04/06/2014  21:49:00      -30.372      -14.628        2.675       26.442       18.834       11.248      699.169      354.738      126.521        0.116        0.059       33.711        9.321        0.076      339.484       12.850      867.929
04/06/2014  21:50:00      -17.685      -33.529       13.949       23.082       24.040       12.788      532.795      577.910      163.531        0.145        0.064       37.907       10.986        0.084      339.484       12.850      867.941
04/06/2014  21:51:00      -59.720      -26.968       -5.412       13.135       20.669        9.039      172.519      427.207       81.712        0.250        0.034       65.527        7.739        0.014      339.521       12.910      867.947
04/06/2014  21:52:00      -39.772        0.563       -4.724       25.579       19.996       18.867      654.292      399.847      355.963        0.151        0.071       39.776       14.996        0.142      339.582       13.013      867.955
04/06/2014  21:53:00      -51.413       -2.188       -4.580       28.348       21.599       17.677      803.588      466.511      312.490        0.213        0.079       51.459        9.146        0.032      339.492       12.863      867.975
04/06/2014  21:54:00      -57.970        6.920       -5.387       22.265       31.316       19.881      495.748      980.710      395.243        0.265        0.094       58.381       12.907        0.049      339.438       12.771      867.998
04/06/2014  21:55:00      -68.799       19.928      -12.718       30.880       29.512       18.295      953.560      870.980      334.713        0.373        0.108       71.627       19.491        0.074      339.448       12.788      868.011
04/06/2014  21:56:00      -86.977       38.340      -10.228       20.154       21.014       17.654      406.171      441.599      311.666        0.515        0.058       95.052       12.434        0.017      339.641       13.114      868.016
04/06/2014  21:57:00      -86.570       22.174       -6.319       17.226       21.480       18.271      296.735      461.405      333.822        0.456        0.055       89.365       10.765        0.015      339.808       13.396      868.015
04/06/2014  21:58:00      -63.814       -9.774       -1.529       22.991       28.735       18.928      528.605      825.687      358.254        0.294        0.086       64.559       13.678        0.045      339.624       13.086      868.012
04/06/2014  21:59:00      -72.693      -23.596       -4.757       25.271       19.709       12.509      638.604      388.443      156.477        0.352        0.059       76.427        9.950        0.017      339.314       12.561      868.013
04/06/2014  22:00:00      -81.996      -26.096       -4.182       28.630       26.529       15.669      819.703      703.793      245.515        0.460        0.088       86.048       13.989        0.026      339.294       12.529      868.013
04/06/2014  22:01:00      -86.644        8.810      -10.530       24.366       34.138       22.418      593.724     1165.427      502.562        0.498        0.113       87.091       17.455        0.040      339.380       12.675      868.020
04/06/2014  22:02:00      -74.438      -18.802       -0.242       31.920       25.813       19.513     1018.856      666.331      380.739        0.398        0.103       76.775       14.401        0.035      339.304       12.545      868.024
04/06/2014  22:03:00      -78.018        6.564       -9.248       31.604       25.339       15.466      998.840      642.087      239.205        0.405        0.094       78.293       12.752        0.027      339.491       12.861      868.031
04/06/2014  22:04:00      -59.137      -15.672        2.692       37.523       24.411       24.255     1407.944      595.892      588.307        0.317        0.130       61.179       20.856        0.116      339.218       12.402      868.037
04/06/2014  22:05:00      -49.134      -11.178        0.663       27.048       26.691       17.730      731.616      712.404      314.361        0.215        0.088       50.390       11.954        0.056      339.156       12.297      868.045
04/06/2014  22:06:00      -75.782      -13.241       -7.596       28.581       27.578       16.050      816.856      760.567      257.596        0.391        0.092       76.930       11.745        0.023      339.332       12.592      868.058
04/06/2014  22:07:00      -77.756      -11.289       -1.304       32.434       33.380       16.788     1051.961     1114.199      281.843        0.431        0.122       78.572       13.208        0.028      339.309       12.553      868.070
04/06/2014  22:08:00     -123.554      -13.666      -12.484       35.851       27.037       20.328     1285.308      730.984      413.226        0.902        0.121      124.307       16.964        0.019      339.253       12.461      868.065
04/06/2014  22:09:00     -124.183      -10.120       -7.807       50.891       38.697       22.128     2589.926     1497.451      489.666        1.008        0.229      124.595       24.448        0.039      339.160       12.302      868.055
04/06/2014  22:10:00     -162.557       22.591      -13.985       55.332       39.110       28.602     3061.582     1529.620      818.094        1.627        0.270      164.119       30.169        0.034      339.074       12.158      868.052
04/06/2014  22:11:00     -194.307       29.855      -17.566       31.957       23.294       17.738     1021.255      542.597      314.635        2.042        0.094      196.587       16.584        0.007      338.873       11.819      868.051
04/06/2014  22:12:00     -127.815       -7.724      -11.423       53.009       39.329       27.940     2809.999     1546.750      780.627        1.083        0.257      128.048       25.360        0.039      338.882       11.836      868.051
04/06/2014  22:13:00     -128.166        9.240      -16.127       37.181       35.341       22.970     1382.464     1248.956      527.618        0.996        0.158      128.499       15.541        0.015      339.050       12.118      868.058
04/06/2014  22:14:00     -152.903        7.145      -16.517       54.117       35.990       30.514     2928.624     1295.300      931.115        1.443        0.258      153.070       27.770        0.033      339.046       12.111      868.058
04/06/2014  22:15:00     -153.765        0.345      -20.845       46.348       41.920       25.153     2148.124     1757.261      632.654        1.431        0.227      153.765       23.788        0.024      338.822       11.734      868.053
04/06/2014  22:16:00     -100.411      -40.379       -8.001       53.345       42.273       25.535     2845.650     1786.993      652.042        0.853        0.264      108.226       23.008        0.045      338.649       11.443      868.043
04/06/2014  22:17:00     -164.942       -8.445      -17.505       44.371       53.389       29.320     1968.780     2850.375      859.656        1.663        0.284      165.158       23.329        0.020      338.731       11.581      868.031
04/06/2014  22:18:00     -168.565      -31.259      -18.421       51.174       33.550       28.855     2618.774     1125.602      832.587        1.715        0.229      171.439       29.227        0.029      338.560       11.295      868.040
04/06/2014  22:19:00     -160.636      -13.633      -19.709       49.494       38.414       28.359     2449.630     1475.604      804.223        1.555        0.236      161.213       21.537        0.018      338.417       11.052      868.037
04/06/2014  22:20:00     -117.590      -22.466      -10.990       53.211       48.613       31.651     2831.422     2363.233     1001.787        1.032        0.310      119.716       28.734        0.058      338.452       11.114      868.034
04/06/2014  22:21:00     -185.672        4.374      -24.806       48.321       38.521       27.872     2334.883     1483.883      776.824        1.985        0.230      185.724       21.985        0.014      338.507       11.203      868.030
04/06/2014  22:22:00     -223.941       16.485      -27.125       50.293       45.014       34.072     2529.366     2026.301     1160.921        2.844        0.286      224.547       29.612        0.017      338.450       11.106      868.035
04/06/2014  22:23:00     -200.926       -6.903      -21.408       48.023       42.699       33.901     2306.191     1823.173     1149.273        2.308        0.264      201.045       28.531        0.020      338.337       10.916      868.043
04/06/2014  22:24:00     -184.392      -24.595      -23.093       51.594       38.443       27.204     2661.971     1477.865      740.034        2.001        0.244      186.025       30.002        0.026      338.322       10.894      868.033
04/06/2014  22:25:00     -183.634      -11.160      -17.029       58.044       37.830       35.354     3369.061     1431.088     1249.910        2.009        0.303      183.973       32.563        0.031      338.351       10.942      868.041
04/06/2014  22:26:00     -176.218      -39.499      -15.021       42.290       57.502       21.998     1788.429     3306.506      483.906        1.921        0.279      180.590       22.965        0.016      338.278       10.819      868.054
04/06/2014  22:27:00     -156.123       30.037      -12.642       40.179       46.121       22.107     1614.343     2127.181      488.730        1.483        0.212      158.986       15.943        0.010      338.363       10.963      868.064
04/06/2014  22:28:00     -144.384      -21.815       -6.044       35.481       49.011       27.822     1258.928     2402.072      774.085        1.290        0.222      146.023       19.653        0.018      338.468       11.140      868.074
04/06/2014  22:29:00     -188.772       12.530      -20.892       44.619       40.121       27.637     1990.896     1609.692      763.782        2.030        0.218      189.187       23.474        0.015      338.567       11.304      868.096
04/06/2014  22:30:00     -183.416       36.132      -12.828       53.849       36.641       25.184     2899.736     1342.546      634.210        1.999        0.244      186.941       26.173        0.020      338.422       11.061      868.106
04/06/2014  22:31:00     -103.517       17.154       -3.308       46.013       39.295       32.156     2117.218     1544.117     1033.984        0.786        0.235      104.928       26.018        0.061      338.461       11.128      868.118
04/06/2014  22:32:00     -167.734       -5.438      -23.257       45.989       44.654       29.801     2115.030     1993.963      888.107        1.685        0.250      167.823       22.865        0.019      338.336       10.919      868.118
04/06/2014  22:33:00     -188.405       -9.453      -24.639       40.710       41.406       27.474     1657.281     1714.474      754.802        2.016        0.206      188.642       25.317        0.018      338.164       10.626      868.115
04/06/2014  22:34:00     -131.122       -6.287      -16.301       40.938       30.988       24.126     1675.885      960.241      582.041        1.036        0.161      131.272       21.642        0.027      338.414       11.049      868.123
04/06/2014  22:35:00      -86.800      -24.362       -5.352       31.870       37.495       22.825     1015.672     1405.892      520.988        0.555        0.147       90.154       20.684        0.053      338.440       11.092      868.131
04/06/2014  22:36:00      -69.516      -51.618        1.820       33.040       30.492       23.937     1091.628      929.763      572.993        0.505        0.130       86.585       17.607        0.041      338.221       10.724      868.137
04/06/2014  22:37:00      -91.156      -48.264       -1.809       40.778       38.777       24.555     1662.814     1503.694      602.966        0.721        0.188      103.145       23.068        0.050      338.237       10.753      868.156
04/06/2014  22:38:00      -26.152      -49.950       13.635       47.923       40.832       30.234     2296.581     1667.225      914.088        0.412        0.244       56.382       31.050        0.303      338.397       11.020      868.158
04/06/2014  22:39:00      -45.605      -67.266        7.843       34.377       27.363       18.803     1181.751      748.711      353.541        0.447        0.114       81.269       17.548        0.047      338.528       11.240      868.169
04/06/2014  22:40:00      -62.257      -52.562        0.336       24.215       28.922       17.021      586.373      836.496      289.704        0.418        0.086       81.478       15.032        0.034      338.566       11.303      868.169
04/06/2014  22:41:00      -56.377      -64.264       -0.442       42.149       30.893       22.833     1776.505      954.398      521.351        0.528        0.163       85.488       23.946        0.078      338.613       11.383      868.170
04/06/2014  22:42:00     -121.323      -49.833       -1.184       47.118       33.964       20.282     2220.076     1153.549      411.342        1.049        0.189      131.159       16.095        0.015      338.505       11.203      868.178
04/06/2014  22:43:00     -119.441      -50.846       -4.247       38.782       32.321       20.554     1504.068     1044.641      422.456        0.992        0.149      129.814       20.086        0.024      338.448       11.106      868.178
04/06/2014  22:44:00     -128.039      -58.100       -5.166       39.295       32.917       20.792     1544.120     1083.542      432.315        1.143        0.153      140.605        6.051        0.002      338.467       11.139      868.171
04/06/2014  22:45:00     -136.273      -33.563       -2.968       37.981       43.970       23.974     1442.567     1933.394      574.751        1.183        0.198      140.345       21.754        0.024      338.424       11.066      868.187
04/06/2014  22:46:00     -181.982      -51.089       -8.470       42.666       38.331       26.670     1820.359     1469.230      711.291        1.990        0.200      189.017       24.813        0.017      338.318       10.888      868.193
04/06/2014  22:47:00     -180.754      -42.005       -0.247       40.800       36.008       24.860     1664.615     1296.597      618.004        1.901        0.179      185.570       22.328        0.014      338.190       10.672      868.204
04/06/2014  22:48:00     -196.045      -60.341       -8.169       43.168       40.467       23.563     1863.505     1637.614      555.217        2.310        0.203      205.121       18.864        0.008      338.145       10.593      868.216
04/06/2014  22:49:00     -186.776      -85.431      -11.687       47.227       35.174       26.163     2230.422     1237.204      684.521        2.324        0.208      205.387       19.085        0.009      338.083       10.493      868.216
04/06/2014  22:50:00     -170.077      -77.732       -6.590       54.691       42.985       20.967     2991.088     1847.692      439.614        2.014        0.264      186.998       23.054        0.015      338.095       10.513      868.211
04/06/2014  22:51:00     -161.097      -46.328       -5.124       57.204       43.289       30.344     3272.296     1873.979      920.736        1.709        0.303      167.626       30.962        0.034      338.078       10.484      868.208
04/06/2014  22:52:00     -130.116      -28.692       -2.620       39.015       35.162       23.137     1522.195     1236.378      535.339        1.053        0.165      133.242       17.004        0.016      338.117       10.550      868.198
04/06/2014  22:53:00     -118.811      -52.963        2.688       40.002       47.629       29.609     1600.179     2268.509      876.713        1.084        0.237      130.081       22.527        0.030      338.064       10.461      868.203
04/06/2014  22:54:00      -73.409      -56.917        0.835       66.188       36.381       28.794     4380.802     1323.558      829.121        0.758        0.327       92.890       30.358        0.107      338.125       10.563      868.216
04/06/2014  22:55:00      -62.235      -49.523       -9.974       34.690       21.357       20.115     1203.417      456.140      404.619        0.424        0.103       79.534       11.921        0.022      338.138       10.587      868.222
04/06/2014  22:56:00      -54.860      -42.786        1.298       41.615       27.270       19.875     1731.822      743.651      395.023        0.386        0.144       69.572       23.945        0.118      338.157       10.617      868.231
04/06/2014  22:57:00      -55.313      -36.553       -2.616       35.602       26.701       18.899     1267.524      712.948      357.166        0.337        0.117       66.300       20.627        0.097      338.200       10.691      868.252
04/06/2014  22:58:00      -76.547      -54.296       -5.396       50.573       42.936       21.004     2557.581     1843.491      441.173        0.684        0.242       93.848       17.859        0.036      338.168       10.636      868.269
04/06/2014  22:59:00      -85.185      -50.878      -11.483       23.162       24.392       13.823      536.458      594.981      191.073        0.565        0.066       99.222        9.864        0.010      338.199       10.688      868.271
04/06/2014  23:00:00     -123.006      -15.427       -9.587       24.873       27.739       15.758      618.688      769.467      248.314        0.855        0.082      123.969       15.322        0.015      338.203       10.695      868.290
04/06/2014  23:01:00     -104.986      -56.988      -11.037       33.363       17.426       15.407     1113.094      303.653      237.387        0.802        0.083      119.456       16.142        0.018      338.247       10.768      868.298
04/06/2014  23:02:00     -102.759      -30.104       -6.043       31.263       28.780       17.409      977.387      828.305      303.063        0.681        0.105      107.078       11.887        0.012      338.332       10.910      868.302
04/06/2014  23:03:00      -89.976      -64.362       -6.584       44.903       22.356       16.185     2016.276      499.787      261.967        0.753        0.139      110.626       18.467        0.028      338.384       11.000      868.304
04/06/2014  23:04:00      -60.230      -49.422        1.508       32.529       33.297       16.088     1058.122     1108.677      258.830        0.425        0.121       77.911       18.921        0.059      338.307       10.869      868.309
04/06/2014  23:05:00      -89.674      -44.344       -3.939       21.057       21.053       13.523      443.389      443.223      182.881        0.555        0.053      100.039       13.590        0.018      338.259       10.788      868.302
04/06/2014  23:06:00     -108.981      -49.295       -6.385       15.020       12.026       11.672      225.592      144.629      136.246        0.743        0.025      119.612        5.376        0.002      338.303       10.862      868.296
04/06/2014  23:07:00     -120.085      -41.214      -13.632       16.452       15.523       13.750      270.660      240.961      189.065        0.850        0.035      126.961       10.199        0.006      338.233       10.746      868.290
04/06/2014  23:08:00     -144.871      -47.196      -15.887       16.578       18.166       14.561      274.838      330.010      212.030        1.214        0.041      152.365        8.314        0.003      338.208       10.705      868.288
04/06/2014  23:09:00     -135.104      -51.856      -19.435       18.102       14.836       15.805      327.672      220.109      249.809        1.106        0.040      144.714       11.195        0.006      338.167       10.634      868.279
04/06/2014  23:10:00     -127.146      -40.024      -14.688       21.613       20.989       15.194      467.101      440.536      230.871        0.956        0.057      133.297       12.494        0.009      338.128       10.569      868.272
04/06/2014  23:11:00     -125.886      -26.926      -11.731       29.184       30.811       18.385      851.722      949.301      338.006        0.942        0.107      128.733       13.634        0.011      338.191       10.674      868.274
04/06/2014  23:12:00      -75.004       -1.968        1.661       55.264       36.230       23.885     3054.143     1312.609      570.501        0.528        0.247       75.029       28.324        0.143      338.194       10.681      868.293
04/06/2014  23:13:00     -105.097        2.291      -11.277       36.611       28.632       19.153     1340.379      819.765      366.838        0.685        0.126      105.122       15.200        0.021      338.507       11.206      868.299
04/06/2014  23:14:00      -82.213      -30.913       -8.534       41.225       41.808       19.026     1699.480     1747.893      361.982        0.580        0.190       87.833       21.527        0.060      338.394       11.017      868.288
04/06/2014  23:15:00     -116.951      -33.254       -9.990       27.357       36.814       20.581      748.416     1355.251      423.571        0.870        0.126      121.587       16.339        0.018      338.195       10.683      868.277
04/06/2014  23:16:00     -114.873      -64.016       -8.118       23.682       33.538       15.679      560.833     1124.818      245.826        0.965        0.097      131.507       10.423        0.006      338.113       10.543      868.269
04/06/2014  23:17:00     -138.213      -37.553       -7.080       43.597       47.789       21.760     1900.701     2283.761      473.480        1.261        0.233      143.224       22.604        0.025      338.038       10.418      868.252
04/06/2014  23:18:00     -112.827      -18.490       -3.796       48.723       29.499       23.764     2373.957      870.169      564.717        0.845        0.190      114.332       25.794        0.051      338.045       10.429      868.234
04/06/2014  23:19:00     -118.420      -13.376       -8.038       36.853       34.923       23.231     1358.156     1219.592      539.660        0.869        0.156      119.173       21.412        0.032      338.132       10.577      868.225
04/06/2014  23:20:00     -135.996       -6.744      -16.661       32.608       26.144       20.396     1063.311      683.532      415.983        1.049        0.108      136.164       18.698        0.019      338.096       10.516      868.229
04/06/2014  23:21:00     -136.939       -1.264      -18.861       43.028       30.389       25.587     1851.367      923.515      654.712        1.127        0.171      136.945       26.254        0.037      338.096       10.517      868.244
04/06/2014  23:22:00     -101.149       -5.918       -4.477       46.928       39.499       28.587     2202.220     1560.157      817.207        0.743        0.229      101.322       24.177        0.057      338.190       10.673      868.256
04/06/2014  23:23:00      -57.104       -8.018       -1.224       52.179       23.811       18.707     2722.674      566.981      349.956        0.348        0.182       57.665       23.918        0.172      338.267       10.803      868.265
04/06/2014  23:24:00      -75.876      -28.886       -0.954       29.776       28.217       18.537      886.591      796.206      343.607        0.431        0.101       81.188       16.537        0.041      338.188       10.669      868.263
04/06/2014  23:25:00      -70.959      -39.575       -7.055       18.340       20.489       12.865      336.362      419.820      165.510        0.379        0.046       81.248        8.213        0.010      338.086       10.500      868.256
04/06/2014  23:26:00      -54.291      -46.277        1.420       23.157       16.907       13.629      536.235      285.833      185.743        0.305        0.050       71.337       11.309        0.025      338.053       10.444      868.262
04/06/2014  23:27:00      -78.301      -24.908       -0.728       35.465       32.259       23.631     1257.799     1040.638      558.407        0.480        0.143       82.167       20.777        0.064      338.005       10.363      868.260
04/06/2014  23:28:00      -59.301       -4.029        3.514       50.580       39.111       20.654     2558.326     1529.671      426.584        0.403        0.226       59.438       21.903        0.136      338.184       10.663      868.260
04/06/2014  23:29:00      -20.667       -7.615       12.497       36.399       30.963       15.956     1324.862      958.721      254.582        0.159        0.127       22.025       17.371        0.622      338.141       10.591      868.271
04/06/2014  23:30:00       -6.341      -33.254       -5.926       20.833       29.364       18.417      434.017      862.232      339.196        0.141        0.082       33.853       12.649        0.140      338.127       10.567      868.303
04/06/2014  23:31:00       12.203     -119.140      -23.047       55.809       55.973       50.417     3114.623     3132.992     2541.904        1.183        0.439      119.763       34.463        0.083      338.150       10.606      868.342
04/06/2014  23:32:00       35.806      -99.041      -22.339       55.837       71.356       41.736     3117.732     5091.698     1741.933        1.077        0.498      105.314       37.783        0.129      338.032       10.409      868.387
04/06/2014  23:33:00       37.952      -21.865       53.692       59.400      107.082       67.646     3528.329    11466.495     4575.959        1.218        0.979       43.800       71.245        2.646      337.925       10.230      868.406
04/06/2014  23:34:00      -25.308      -43.197       10.791       58.452       69.124       24.943     3416.602     4778.123      622.173        0.572        0.441       50.065       26.361        0.277      338.047       10.434      868.403
04/06/2014  23:35:00      -71.510       -1.464        3.986       55.642       50.560       29.910     3095.979     2556.352      894.581        0.584        0.327       71.525       21.436        0.090      338.155       10.615      868.372
04/06/2014  23:36:00      -13.969      -41.483        4.608       39.317       32.603       19.904     1545.805     1062.959      396.181        0.247        0.150       43.772       16.040        0.134      338.072       10.476      868.389
04/06/2014  23:37:00        3.397      -78.076      -12.877       34.814       51.356       27.151     1211.990     2637.435      737.181        0.543        0.229       78.150       25.890        0.110      338.009       10.370      868.434
04/06/2014  23:38:00       -2.658       23.577       45.631       30.550       44.216       39.038      933.299     1955.090     1523.950        0.353        0.221       23.726       31.621        1.776      337.877       10.148      868.489
04/06/2014  23:39:00       -9.285       57.288      107.599       33.314       72.717       53.765     1109.823     5287.788     2890.627        1.212        0.464       58.035       51.963        0.802      337.845       10.093      868.524
04/06/2014  23:40:00      133.840     -152.308      -30.684       67.296       67.731       36.131     4528.728     4587.472     1305.468        2.623        0.521      202.758       24.987        0.015      337.827       10.060      868.536
04/06/2014  23:41:00      -17.025      -19.767       12.421       36.512       51.032       37.567     1333.128     2604.258     1411.267        0.309        0.267       26.088       32.053        1.510      337.814       10.042      868.525
04/06/2014  23:42:00      -40.449      -48.658      -14.424       30.104       23.093       20.355      906.246      533.276      414.313        0.303        0.093       63.276        7.851        0.015      337.988       10.334      868.514
04/06/2014  23:43:00      -88.400      -13.261       -2.896       17.390       21.033       12.945      302.411      442.386      167.576        0.446        0.046       89.389        7.326        0.007      337.934       10.242      868.500
04/06/2014  23:44:00     -111.572      -20.154       -8.942       21.579       22.955       12.031      465.672      526.953      144.739        0.704        0.057      113.378       10.460        0.009      337.910       10.203      868.478
04/06/2014  23:45:00      -95.542      -14.564       -1.742       30.959       30.693       19.312      958.460      942.067      372.946        0.581        0.114       96.646       17.354        0.032      338.036       10.416      868.464
04/06/2014  23:46:00     -130.223      -23.889      -11.488       40.588       25.641       16.709     1647.357      657.473      279.191        1.012        0.129      132.396       20.044        0.023      337.868       10.133      868.459
04/06/2014  23:47:00     -141.521      -47.039      -12.487       23.734       25.446       12.639      563.299      647.478      159.757        1.188        0.069      149.134        8.690        0.003      337.829       10.067      868.448
04/06/2014  23:48:00     -127.333      -47.938       -3.892       33.039       29.996       18.791     1091.600      899.761      353.106        1.044        0.117      136.058       15.570        0.013      337.833       10.074      868.441
04/06/2014  23:49:00     -150.016      -57.912      -12.537       42.638       28.347       17.692     1818.012      803.551      313.009        1.447        0.147      160.806       11.943        0.006      337.856       10.112      868.445
04/06/2014  23:50:00      -72.566      -48.222       13.990       77.425       44.976       23.861     5994.561     2022.835      569.332        0.819        0.429       87.127       31.208        0.128      337.819       10.051      868.451
04/06/2014  23:51:00     -168.153      -75.782       -5.282       35.936       40.516       21.847     1291.393     1641.551      477.273        1.873        0.171      184.441       19.096        0.011      337.708        9.864      868.455
04/06/2014  23:52:00     -172.014      -44.061      -12.518       31.644       32.147       20.529     1001.372     1033.413      421.453        1.707        0.123      177.567       15.615        0.008      337.682        9.822      868.453
04/06/2014  23:53:00     -149.417      -46.960      -11.814       34.552       41.761       20.746     1193.827     1744.018      430.399        1.402        0.168      156.623       17.477        0.012      337.718        9.883      868.457
04/06/2014  23:54:00     -172.709      -22.621      -15.316       50.293       46.372       28.168     2529.385     2150.356      793.435        1.802        0.274      174.185       29.554        0.029      337.694        9.841      868.450
04/06/2014  23:55:00     -193.461      -38.788      -14.733       43.086       54.564       26.407     1856.409     2977.268      697.344        2.234        0.277      197.311       20.711        0.011      337.825       10.059      868.434
04/06/2014  23:56:00     -175.505      -60.534       -6.485       65.575       50.378       33.222     4300.094     2537.920     1103.718        2.122        0.397      185.651       36.387        0.038      337.613        9.702      868.422
04/06/2014  23:57:00     -238.800      -33.590      -29.881       51.550       34.065       28.822     2657.438     1160.424      830.736        3.185        0.232      241.151       24.702        0.010      337.465        9.453      868.422
04/06/2014  23:58:00     -269.670      -17.063      -23.040       65.731       57.493       46.221     4320.627     3305.419     2136.382        4.165        0.488      270.209       37.028        0.019      337.331        9.229      868.418
04/06/2014  23:59:00     -236.422      -25.493      -22.110       56.368       61.707       37.667     3177.299     3807.779     1418.780        3.272        0.420      237.792       30.000        0.016      337.300        9.178      868.403
